[[{"header":{"parameterUnit":"m.s-1","parameterCategory":1,"la1":30.6,"la2":29.2853,"lo1":-89.7004,"lo2":-87.6739,"dy":0.0162,"dx":0.0183,"nx":112,"ny":82,"refTime":"2024-08-27T06:00:00:Z","depth":0,"parameterNumber":2,"parameterNumberName":"U-component_of_WINDS"},"data":[0.0,0.0,0.0,0.0,0.0,0.0,0.0,0.0,0.0,0.0,0.0,0.0,0.0,0.0,0.0,0.0,0.0,0.0,0.0,0.0,0.0,0.0,0.0,0.0,0.0,0.0,0.0,0.0,0.0,0.0,0.0,0.0,0.0,0.0,0.0,0.0,0.0,0.0,0.0,0.0,0.0,0.0,0.0,0.0,0.0,0.0,0.0,0.0,0.0,0.0,0.0,0.0,0.0,0.0,0.0,0.0,0.0,0.0,0.0,0.0,0.0,0.0,0.0,0.0,0.0,0.0,0.0,0.0,0.0,0.0,0.0,0.0,0.0,0.0,0.0,0.0,0.0,0.0,0.0,0.0,0.0,0.0,0.0,0.0,0.0,0.0,0.0,0.0,0.0,0.0,-0.1016,-0.1092,-0.1185,-0.1198,-0.1147,-0.1157,-0.1154,-0.1009,0.0,0.0,0.0,0.0,0.0,0.0,0.0,0.0,0.0,0.0,0.0,0.0,0.0,0.0,0.0,0.0,0.0,0.0,0.0,0.0,0.0,0.0,0.0,0.0,0.0,0.0,0.0,0.0,0.0,0.0,0.0,0.0,0.0,0.0,0.0,0.0,0.0,0.0,0.0,0.0,0.0,0.0,0.0,0.0,0.0,0.0,0.0,0.0,0.0,0.0,0.0,0.0,0.0,0.0,0.0,0.0,0.0,0.0,0.0,0.0,0.0,0.0,0.0,0.0,0.0,0.0,0.0,0.0,0.0,0.0,0.0,0.0,0.0,0.0,0.0,0.0,0.0,0.0,0.0,0.0,0.0,0.0,0.0,0.0,0.0,0.0,0.0,0.0,0.0,0.0,0.0,0.0,0.0,0.0,0.0,0.0,0.0,0.0,0.0,0.0,0.0,0.0,0.0,0.0,-0.0987,-0.1181,-0.1229,-0.1286,-0.1276,-0.1231,-0.1172,-0.11,0.0,0.0,0.0,0.0,0.0,0.0,0.0,0.0,0.0,0.0,0.0,0.0,0.0,0.0,0.0,0.0,0.0,0.0,0.0,0.0,0.0,0.0,0.0,0.0,0.0,0.0,0.0,0.0,0.0,0.0,0.0,0.0,0.0,0.0,0.0,0.0,0.0,0.0,0.0,0.0,0.0,0.0,0.0,0.0,0.0,0.0,0.0,0.0,0.0,0.0,0.0,0.0,0.0,0.0,0.0,0.0,0.0,0.0,0.0,0.0,0.0,0.0,0.0,0.0,0.0,0.0,0.0,0.0,0.0,0.0,0.0,0.0,0.0,0.0,0.0,0.0,0.0,0.0,0.0,0.0,0.0,0.0,0.0,0.0,0.0,0.0,0.0,0.0,0.0,0.0,0.0,0.0,0.0,0.0,0.0,0.0,0.0,0.0,0.0,0.0,0.0,0.0,0.0,-0.1022,-0.1056,-0.1222,-0.1288,-0.1296,-0.1296,-0.1239,-0.1176,-0.1113,-0.0977,0.0,0.0,0.0,0.0,0.0,0.0,0.0,0.0,0.0,0.0,0.0,0.0,0.0,0.0,0.0,0.0,0.0,0.0,0.0,0.0,0.0,0.0,0.0,0.0,0.0,0.0,0.0,0.0,0.0,0.0,0.0,0.0,0.0,0.0,0.0,0.0,0.0,0.0,0.0,0.0,0.0,0.0,0.0,0.0,0.0,0.0,0.0,0.0,0.0,0.0,0.0,0.0,0.0,0.0,0.0,0.0,0.0,0.0,0.0,0.0,0.0,0.0,0.0,0.0,0.0,0.0,0.0,0.0,0.0,0.0,0.0,0.0,0.0,0.0,0.0,0.0,0.0,0.0,0.0,0.0,0.0,0.0,0.0,0.0,0.0,0.0,0.0,0.0,0.0,0.0,0.0,0.0,0.0,0.0,0.0,0.0,0.0,0.0,0.0,0.0,0.0,0.0,-0.1258,-0.1309,-0.1442,-0.1453,-0.141,-0.1286,-0.1228,-0.1165,-0.1069,-0.0953,0.0,0.0,0.0,0.0,0.0,0.0,0.0,0.0,0.0,0.0,0.0,0.0,0.0,0.0,0.0,0.0,0.0,0.0,0.0,0.0,0.0,0.0,0.0,0.0,0.0,0.0,0.0,0.0,0.0,0.0,0.0,0.0,0.0,0.0,0.0,0.0,0.0,0.0,0.0,0.0,0.0,0.0,0.0,0.0,0.0,0.0,0.0,0.0,0.0,0.0,0.0,0.0,0.0,0.0,0.0,0.0,0.0,0.0,0.0,0.0,0.0,0.0,0.0,0.0,0.0,0.0,0.0,0.0,0.0,0.0,0.0,0.0,0.0,0.0,0.0,0.0,0.0,0.0,0.0,0.0,0.0,0.0,0.0,0.0,0.0,0.0,0.0,0.0,0.0,0.0,0.0,0.0,0.0,0.0,0.0,0.0,0.0,0.0,0.0,0.0,0.0,0.0,-0.1702,-0.1781,-0.1833,-0.1843,-0.1671,-0.1255,-0.1159,-0.1064,-0.1008,-0.0952,0.0,0.0,0.0,0.0,0.0,0.0,0.0,0.0,0.0,0.0,0.0,0.0,0.0,0.0,0.0,0.0,0.0,0.0,0.0,0.0,0.0,0.0,0.0,0.0,0.0,0.0,0.0,0.0,0.0,0.0,0.0,0.0,0.0,0.0,0.0,0.0,0.0,0.0,0.0,0.0,0.0,0.0,0.0,0.0,0.0,0.0,0.0,0.0,0.0,0.0,0.0,0.0,0.0,0.0,0.0,0.0,0.0,0.0,0.0,0.0,0.0,0.0,0.0,0.0,0.0,0.0,0.0,0.0,0.0,0.0,0.0,0.0,0.0,0.0,0.0,0.0,0.0,0.0,0.0,0.0,0.0,0.0,0.0,0.0,0.0,0.0,0.0,0.0,0.0,0.0,0.0,0.0,0.0,0.0,0.0,0.0,0.0,0.0,0.0,0.0,0.0,0.0,-0.2073,-0.2156,-0.2259,-0.2275,-0.2175,-0.1971,-0.1686,-0.15,-0.1393,0.0,0.0,0.0,0.0,0.0,0.0,0.0,0.0,0.0,0.0,0.0,0.0,0.0,0.0,0.0,0.0,0.0,0.0,0.0,0.0,0.0,0.0,0.0,0.0,0.0,0.0,0.0,0.0,0.0,0.0,0.0,0.0,0.0,0.0,0.0,0.0,0.0,0.0,0.0,0.0,0.0,0.0,0.0,0.0,0.0,0.0,0.0,0.0,0.0,0.0,0.0,0.0,0.0,0.0,0.0,0.0,0.0,0.0,0.0,0.0,0.0,0.0,0.0,0.0,0.0,0.0,0.0,0.0,0.0,0.0,0.0,0.0,0.0,0.0,0.0,0.0,0.0,0.0,0.0,0.0,0.0,0.0,0.0,0.0,0.0,0.0,0.0,0.0,0.0,0.0,0.0,0.0,0.0,0.0,0.0,0.0,0.0,0.0,0.0,0.0,0.0,0.0,-0.2347,-0.2466,-0.2552,-0.2689,-0.2707,-0.2594,-0.2397,-0.2119,-0.1872,-0.167,0.0,0.0,0.0,0.0,0.0,0.0,0.0,0.0,0.0,0.0,0.0,0.0,0.0,0.0,0.0,0.0,0.0,0.0,0.0,0.0,0.0,0.0,0.0,0.0,0.0,0.0,0.0,0.0,0.0,0.0,0.0,0.0,0.0,0.0,0.0,0.0,0.0,0.0,0.0,0.0,0.0,0.0,0.0,0.0,0.0,0.0,0.0,0.0,0.0,0.0,0.0,0.0,0.0,0.0,0.0,0.0,0.0,0.0,0.0,0.0,0.0,0.0,0.0,0.0,0.0,0.0,0.0,0.0,0.0,0.0,0.0,0.0,0.0,0.0,0.0,0.0,0.0,0.0,0.0,0.0,0.0,0.0,0.0,0.0,0.0,0.0,0.0,0.0,0.0,0.0,0.0,0.0,0.0,0.0,0.0,0.0,0.0,0.0,0.0,0.0,0.0,0.0,-0.2715,-0.2924,-0.3046,-0.3085,-0.3102,-0.2886,-0.2376,-0.2314,-0.2175,0.0,0.0,0.0,0.0,0.0,0.0,0.0,0.0,0.0,0.0,0.0,0.0,0.0,0.0,0.0,0.0,0.0,0.0,0.0,0.0,0.0,0.0,0.0,0.0,0.0,0.0,0.0,0.0,0.0,0.0,0.0,0.0,0.0,0.0,0.0,0.0,0.0,0.0,0.0,0.0,0.0,0.0,0.0,0.0,0.0,0.0,0.0,0.0,0.0,0.0,0.0,0.0,0.0,0.0,0.0,0.0,0.0,0.0,0.0,0.0,0.0,0.0,0.0,0.0,0.0,0.0,0.0,0.0,0.0,0.0,0.0,0.0,0.0,0.0,0.0,0.0,0.0,0.0,0.0,0.0,0.0,0.0,0.0,0.0,0.0,0.0,0.0,0.0,0.0,0.0,0.0,0.0,0.0,0.0,0.0,0.0,0.0,0.0,0.0,0.0,0.0,0.0,0.0,-0.3014,-0.3244,-0.3419,-0.3589,-0.3608,-0.3461,-0.3183,-0.293,-0.265,-0.2329,0.0,0.0,0.0,0.0,0.0,0.0,0.0,0.0,0.0,0.0,0.0,0.0,0.0,0.0,0.0,0.0,0.0,0.0,0.0,0.0,0.0,0.0,0.0,0.0,0.0,0.0,0.0,0.0,0.0,0.0,0.0,0.0,0.0,0.0,0.0,0.0,0.0,0.0,0.0,0.0,0.0,0.0,0.0,0.0,0.0,0.0,0.0,0.0,0.0,0.0,0.0,0.0,0.0,0.0,0.0,0.0,0.0,0.0,0.0,0.0,0.0,0.0,0.0,0.0,0.0,0.0,0.0,0.0,0.0,0.0,0.0,0.0,0.0,0.0,0.0,0.0,0.0,0.0,0.0,0.0,0.0,0.0,0.0,0.0,0.0,0.0,0.0,0.0,0.0,0.0,0.0,0.0,0.0,0.0,0.0,0.0,0.0,0.0,0.0,0.0,0.0,0.0,-0.3148,-0.3387,-0.3567,-0.3783,-0.3802,-0.3729,-0.3516,-0.3316,-0.3051,-0.2658,0.0,0.0,0.0,0.0,0.0,0.0,0.0,0.0,0.0,0.0,0.0,0.0,0.0,0.0,0.0,0.0,0.0,0.0,0.0,0.0,0.0,0.0,0.0,0.0,0.0,0.0,0.0,0.0,0.0,0.0,0.0,0.0,0.0,0.0,0.0,0.0,0.0,0.0,0.0,0.0,0.0,0.0,0.0,0.0,0.0,0.0,0.0,0.0,0.0,0.0,0.0,0.0,0.0,0.0,0.0,0.0,0.0,0.0,0.0,0.0,0.0,0.0,0.0,0.0,0.0,0.0,0.0,0.0,0.0,0.0,0.0,0.0,0.0,0.0,0.0,0.0,0.0,0.0,0.0,0.0,0.0,0.0,0.0,0.0,0.0,0.0,0.0,0.0,0.0,0.0,0.0,0.0,0.0,0.0,0.0,0.0,0.0,0.0,0.0,0.0,0.0,0.0,-0.3148,-0.3393,-0.3575,-0.3783,-0.3802,-0.3734,-0.3526,-0.3503,-0.3318,-0.2861,0.0,0.0,0.0,0.0,0.0,0.0,0.0,0.0,0.0,0.0,0.0,0.0,0.0,0.0,0.0,0.0,0.0,0.0,0.0,0.0,0.0,0.0,0.0,0.0,0.0,0.0,0.0,0.0,0.0,0.0,0.0,0.0,0.0,0.0,0.0,0.0,0.0,0.0,0.0,0.0,0.0,0.0,0.0,0.0,0.0,0.0,0.0,0.0,0.0,0.0,0.0,0.0,0.0,0.0,0.0,0.0,0.0,0.0,0.0,0.0,-0.1964,-0.1777,0.0,0.0,0.0,0.0,0.0,0.0,0.0,0.0,0.0,0.0,0.0,0.0,0.0,0.0,0.0,0.0,0.0,0.0,0.0,0.0,0.0,0.0,0.0,0.0,0.0,0.0,0.0,0.0,0.0,0.0,0.0,0.0,0.0,0.0,0.0,0.0,0.0,0.0,0.0,0.0,-0.3156,-0.3408,-0.364,-0.3791,-0.3802,-0.3758,-0.3607,-0.3538,-0.3397,-0.3124,-0.2895,0.0,0.0,0.0,0.0,0.0,0.0,0.0,0.0,0.0,0.0,0.0,0.0,0.0,0.0,0.0,0.0,0.0,0.0,0.0,0.0,0.0,0.0,0.0,0.0,0.0,0.0,0.0,0.0,0.0,0.0,0.0,0.0,0.0,0.0,0.0,0.0,0.0,0.0,0.0,0.0,0.0,0.0,0.0,0.0,0.0,0.0,0.0,0.0,0.0,0.0,0.0,0.0,0.0,0.0,0.0,0.0,0.0,0.0,0.0,-0.2485,-0.226,0.0,0.0,0.0,0.0,0.0,0.0,0.0,0.0,0.0,0.0,0.0,0.0,0.0,0.0,0.0,0.0,0.0,0.0,0.0,0.0,0.0,0.0,0.0,0.0,0.0,0.0,0.0,0.0,0.0,0.0,0.0,0.0,0.0,0.0,0.0,0.0,0.0,0.0,0.0,0.0,-0.3493,-0.3779,-0.3967,-0.4064,-0.4073,-0.4035,-0.3938,-0.3775,-0.361,-0.3343,-0.3086,0.0,0.0,0.0,0.0,0.0,0.0,0.0,0.0,0.0,0.0,0.0,0.0,0.0,0.0,0.0,0.0,0.0,0.0,0.0,0.0,0.0,0.0,0.0,0.0,0.0,0.0,0.0,0.0,0.0,0.0,0.0,0.0,0.0,0.0,0.0,0.0,0.0,0.0,0.0,0.0,0.0,0.0,0.0,0.0,0.0,0.0,0.0,0.0,0.0,0.0,0.0,0.0,0.0,-0.3165,-0.3394,-0.3516,-0.3717,-0.3871,-0.3907,-0.3063,-0.2873,-0.3091,-0.2696,0.0,0.0,0.0,0.0,0.0,0.0,0.0,0.0,0.0,0.0,0.0,0.0,0.0,0.0,0.0,0.0,0.0,0.0,0.0,0.0,0.0,0.0,-0.3621,-0.3801,-0.3975,-0.3876,-0.3041,0.0,0.0,0.0,0.0,0.0,0.0,0.0,0.0,0.0,0.0,0.0,-0.3882,-0.4154,-0.4332,-0.4375,-0.4384,-0.439,-0.4308,-0.4093,-0.3866,-0.3659,-0.3396,-0.316,0.0,0.0,0.0,0.0,0.0,0.0,0.0,0.0,0.0,0.0,0.0,0.0,0.0,0.0,0.0,0.0,0.0,0.0,0.0,0.0,0.0,0.0,0.0,0.0,0.0,0.0,0.0,0.0,0.0,0.0,0.0,0.0,-0.1683,-0.1906,0.0,0.0,0.0,0.0,0.0,0.0,0.0,0.0,0.0,0.0,0.0,0.0,0.0,-0.3313,-0.3426,-0.3819,-0.4077,-0.4147,-0.4483,-0.4676,-0.4673,-0.4699,-0.4695,-0.4575,-0.4424,0.0,-0.3927,-0.3942,0.0,0.0,0.0,0.0,0.0,0.0,0.0,0.0,0.0,0.0,0.0,0.0,0.0,0.0,0.0,0.0,0.0,0.0,0.0,0.0,0.0,0.0,-0.4313,-0.4432,-0.447,-0.4411,-0.4331,-0.3946,-0.3588,-0.3411,-0.3384,-0.3314,0.0,0.0,0.0,0.0,0.0,0.0,-0.3899,-0.4177,-0.4409,-0.4382,-0.4384,-0.438,-0.4404,-0.4284,-0.422,-0.4214,-0.3987,-0.3823,-0.3668,-0.3386,0.0,0.0,0.0,0.0,0.0,0.0,0.0,0.0,0.0,0.0,0.0,0.0,0.0,0.0,0.0,0.0,0.0,0.0,0.0,0.0,0.0,0.0,0.0,0.0,0.0,0.0,0.0,0.0,0.0,-0.174,-0.1965,-0.2407,-0.2285,-0.2246,0.0,0.0,0.0,0.0,0.0,0.0,0.0,0.0,0.0,-0.4092,-0.4144,-0.4262,-0.4458,-0.4689,-0.483,-0.4833,-0.5072,-0.517,-0.517,-0.517,-0.5146,-0.5101,-0.5233,-0.5176,-0.4971,-0.4579,-0.439,-0.4329,0.0,0.0,0.0,0.0,-0.4078,-0.4058,-0.4237,-0.4244,-0.4201,-0.4225,0.0,0.0,0.0,0.0,0.0,0.0,0.0,-0.413,-0.43,-0.4528,-0.4718,-0.4887,-0.4969,-0.504,-0.5074,-0.4851,-0.4504,-0.3995,-0.405,-0.404,-0.3575,-0.3681,0.0,0.0,0.0,-0.4388,-0.4503,-0.4699,-0.487,-0.487,-0.4776,-0.474,-0.474,-0.4619,-0.4525,-0.4463,-0.4294,-0.4121,-0.3977,-0.3735,-0.352,0.0,0.0,0.0,0.0,0.0,0.0,0.0,0.0,0.0,0.0,0.0,0.0,0.0,0.0,0.0,0.0,0.0,0.0,0.0,0.0,0.0,0.0,0.0,0.0,0.0,0.0,0.0,0.0,-0.2172,-0.2361,-0.2855,-0.2851,-0.2837,0.0,0.0,0.0,0.0,0.0,0.0,-0.434,-0.445,-0.4603,-0.4901,-0.4908,-0.4998,-0.5182,-0.5262,-0.5361,-0.5391,-0.5569,-0.5608,-0.5608,-0.5608,-0.5593,-0.5566,-0.575,-0.5797,-0.5761,-0.5178,-0.4897,-0.4863,-0.4791,-0.4728,-0.4666,-0.4736,-0.4728,-0.4679,-0.479,-0.481,-0.4778,-0.4763,-0.4671,-0.4548,-0.4461,0.0,0.0,0.0,0.0,-0.4588,-0.4773,-0.4956,-0.509,-0.5284,-0.5397,-0.5488,-0.5534,-0.5569,-0.5369,-0.4614,-0.4712,-0.4733,-0.4125,-0.4295,0.0,-0.4329,-0.4642,-0.4955,-0.5048,-0.5162,-0.5233,-0.5233,-0.5129,-0.5061,-0.5061,-0.4875,-0.4743,-0.4692,-0.4579,-0.4418,-0.4267,-0.4104,-0.3939,-0.3806,0.0,0.0,0.0,0.0,0.0,0.0,0.0,0.0,0.0,0.0,0.0,0.0,0.0,0.0,0.0,0.0,0.0,0.0,0.0,0.0,0.0,0.0,0.0,0.0,0.0,0.0,0.0,0.0,0.0,-0.3152,-0.3453,0.0,0.0,0.0,0.0,-0.4147,-0.435,-0.4565,-0.4743,-0.4902,-0.5017,-0.5185,-0.5192,-0.5247,-0.5407,-0.5598,-0.5749,-0.5856,-0.6109,-0.626,-0.626,-0.626,-0.6198,-0.6086,-0.6086,-0.6086,-0.6075,-0.5882,-0.5758,-0.565,-0.5486,-0.5281,-0.5111,-0.5352,-0.5278,-0.5113,-0.536,-0.5413,-0.5379,-0.5445,-0.54,-0.5339,-0.5328,-0.5167,0.0,0.0,-0.5167,-0.5184,-0.5384,-0.5446,-0.5521,-0.565,-0.5675,-0.5672,-0.568,-0.5894,-0.586,-0.5273,-0.5165,-0.5124,-0.4947,0.0,-0.498,-0.4972,-0.5083,-0.517,-0.5175,-0.5325,-0.5402,-0.5402,-0.5252,-0.5178,-0.5178,-0.5078,-0.4976,-0.4968,-0.4968,-0.4914,-0.4755,-0.4624,-0.4424,-0.4095,-0.3799,0.0,0.0,0.0,0.0,0.0,0.0,0.0,0.0,0.0,0.0,0.0,0.0,0.0,0.0,0.0,0.0,0.0,0.0,0.0,0.0,0.0,0.0,0.0,0.0,0.0,0.0,0.0,0.0,-0.3862,-0.4141,0.0,-0.4138,-0.4471,-0.471,-0.479,-0.5152,-0.5447,-0.5487,-0.565,-0.5784,-0.5894,-0.5899,-0.5954,-0.6067,-0.6113,-0.6183,-0.6226,-0.6325,-0.6377,-0.6377,-0.6377,-0.6352,-0.6312,-0.6312,-0.6312,-0.6306,-0.6263,-0.6132,-0.5956,-0.5912,-0.5823,-0.5743,-0.5834,-0.582,-0.5745,-0.5834,-0.5866,-0.5836,-0.588,-0.5866,-0.5831,-0.5831,-0.5771,-0.5758,-0.5975,-0.5974,-0.5981,-0.6204,-0.6163,-0.611,-0.6157,-0.6169,-0.6192,-0.6325,-0.6433,-0.6433,-0.6201,-0.604,-0.5856,-0.5599,-0.5635,-0.5661,-0.5576,-0.5747,-0.584,-0.567,-0.5709,-0.5653,-0.5485,-0.5377,-0.5344,-0.5344,-0.5195,-0.5127,-0.5127,-0.5059,-0.4922,-0.4801,-0.472,-0.4582,-0.4377,-0.4085,-0.3835,0.0,0.0,0.0,0.0,0.0,0.0,0.0,0.0,0.0,0.0,0.0,0.0,0.0,0.0,0.0,0.0,0.0,0.0,0.0,0.0,0.0,0.0,0.0,0.0,0.0,-0.371,-0.4017,-0.4341,-0.4621,-0.4772,-0.4701,-0.509,-0.5373,-0.5373,-0.5799,-0.6026,-0.6026,-0.6138,-0.6241,-0.6323,-0.6325,-0.6361,-0.6384,-0.6387,-0.6387,-0.6387,-0.6487,-0.6539,-0.6539,-0.6637,-0.6686,-0.6686,-0.6686,-0.6686,-0.6686,-0.6686,-0.659,-0.6444,-0.6251,-0.6254,-0.635,-0.635,-0.637,-0.6423,-0.6384,-0.6369,-0.6369,-0.6369,-0.6369,-0.6369,-0.6369,-0.6369,-0.6417,-0.6602,-0.659,-0.6525,-0.6707,-0.6685,-0.6569,-0.6569,-0.6569,-0.6597,-0.6734,-0.6799,-0.6888,-0.6888,-0.6616,-0.6347,-0.6113,-0.615,-0.618,-0.6088,-0.6233,-0.626,-0.608,-0.608,-0.5996,-0.5825,-0.5758,-0.5667,-0.5621,-0.542,-0.529,-0.5249,-0.506,-0.4879,-0.4798,-0.4753,-0.4629,-0.4506,-0.4197,-0.3936,-0.3701,0.0,0.0,0.0,0.0,0.0,0.0,0.0,0.0,0.0,0.0,0.0,0.0,0.0,0.0,0.0,0.0,0.0,0.0,0.0,0.0,0.0,0.0,0.0,-0.3755,-0.4081,-0.437,-0.4509,-0.4929,-0.5215,-0.5147,-0.5617,-0.5915,-0.5915,-0.6185,-0.6322,-0.6322,-0.6377,-0.6437,-0.6437,-0.6437,-0.6437,-0.6437,-0.6437,-0.6437,-0.6437,-0.6692,-0.6795,-0.6842,-0.7089,-0.7188,-0.7188,-0.7188,-0.7188,-0.7188,-0.7235,-0.7238,-0.7185,-0.6637,-0.6589,-0.6795,-0.6795,-0.6961,-0.7118,-0.6994,-0.6998,-0.6995,-0.6995,-0.6995,-0.6995,-0.6995,-0.6995,-0.6995,-0.6995,-0.7039,-0.6988,-0.6992,-0.6985,-0.6985,-0.6938,-0.6938,-0.6938,-0.6944,-0.708,-0.7218,-0.7218,-0.6969,-0.6651,-0.6468,-0.6444,-0.6441,-0.6438,-0.6438,0.0,-0.6432,-0.6428,-0.6428,-0.6384,-0.6365,-0.6236,-0.6017,-0.5717,-0.5505,-0.5374,-0.5053,-0.4868,-0.4865,-0.4789,-0.4701,-0.4541,-0.4161,-0.3942,-0.3953,0.0,0.0,0.0,0.0,0.0,0.0,0.0,0.0,0.0,0.0,0.0,0.0,0.0,0.0,0.0,0.0,0.0,0.0,0.0,0.0,0.0,-0.4234,-0.4563,-0.4488,-0.4786,-0.5102,-0.5349,-0.5639,-0.5831,-0.5845,-0.6056,-0.6168,-0.6168,-0.6505,-0.6644,-0.6644,-0.6872,-0.6986,-0.6986,-0.6986,-0.6986,-0.6986,-0.6986,-0.6986,-0.6989,-0.7039,-0.7089,-0.7089,-0.7188,-0.7188,-0.7188,-0.7188,-0.7188,-0.7235,-0.8021,-0.8365,-0.8266,-0.7332,-0.7039,-0.7089,-0.7089,-0.7604,-0.8343,-0.8304,-0.8769,-0.9445,-0.9445,-0.9445,-0.9445,-0.9445,-0.9445,-0.9494,-0.9696,-0.9648,-0.9449,-0.8882,-0.8655,-0.8383,-0.7597,-0.7412,-0.7439,-0.7538,-0.7606,-0.7654,-0.7654,-0.7573,-0.7455,-0.731,-0.7287,-0.725,-0.7144,-0.7125,-0.6998,-0.6716,-0.6704,-0.6612,-0.6432,-0.6398,-0.6361,-0.6281,-0.6609,-0.6725,-0.6457,-0.6722,-0.6588,-0.5904,-0.5859,-0.5732,-0.5441,-0.5288,-0.5075,0.0,0.0,0.0,0.0,0.0,0.0,0.0,0.0,0.0,0.0,0.0,0.0,0.0,0.0,0.0,0.0,0.0,0.0,0.0,0.0,0.0,0.0,-0.5224,-0.588,-0.5993,-0.5683,-0.5557,-0.5815,-0.6048,-0.6162,-0.6162,-0.6368,-0.6489,-0.6489,-0.6802,-0.6992,-0.6992,-0.7138,-0.7188,-0.7188,-0.7188,-0.7188,-0.7188,-0.7188,-0.7188,-0.7188,-0.7291,-0.7391,-0.7391,-0.7487,-0.7537,-0.7537,-0.7537,-0.7537,-0.7587,-0.8226,-0.8471,-0.8471,0.0,0.0,0.0,0.0,-0.9251,-0.9792,-0.9792,-1.023,-1.0721,-1.0721,-1.0721,-1.0721,-1.0721,-1.0427,-1.0087,-1.0243,-0.9917,-0.9401,-0.8919,-0.8757,-0.8542,-0.7928,-0.7784,-0.7807,-0.7889,-0.7906,-0.7906,-0.7906,-0.7906,0.0,-0.7797,-0.7682,-0.757,-0.7482,-0.7465,-0.7392,-0.7168,-0.7101,-0.6972,-0.6831,-0.6732,-0.6672,-0.6618,-0.6842,0.0,0.0,0.0,-0.6719,-0.6416,-0.6722,0.0,0.0,0.0,0.0,0.0,-0.59,0.0,0.0,-0.5132,-0.5092,0.0,0.0,0.0,0.0,0.0,0.0,0.0,0.0,0.0,0.0,0.0,0.0,0.0,0.0,0.0,0.0,-0.6671,-0.7638,-0.7894,-0.6929,-0.623,-0.6314,-0.6359,-0.6434,-0.6577,-0.6874,-0.7089,-0.7188,-0.7434,-0.758,-0.758,-0.7534,0.0,0.0,0.0,-0.7288,-0.7288,-0.7288,-0.7288,-0.7288,-0.7543,-0.7646,-0.7646,-0.7892,-0.7988,-0.7988,-0.7988,-0.8088,-0.8187,-0.8333,-0.8478,-0.8821,-0.9739,-1.028,-1.0538,-1.0881,-1.1126,-1.1224,-1.1317,0.0,0.0,-1.156,-1.156,-1.156,-1.156,-1.0877,-1.0145,-1.0145,-0.946,-0.8676,-0.8577,-0.8528,-0.8482,-0.8233,-0.8283,-0.8287,-0.8038,-0.8088,-0.8137,-0.8038,-0.7988,-0.7988,-0.7988,-0.7824,-0.7645,-0.7628,-0.7624,-0.7617,-0.76,-0.7482,-0.7443,-0.7443,-0.7258,0.0,-0.6947,-0.6939,-0.6755,-0.6398,-0.609,-0.6121,-0.6603,-0.729,-0.7686,-0.7659,-0.7646,-0.7707,-0.7799,-0.7744,-0.7778,-0.7967,-0.664,-0.6144,0.0,0.0,0.0,0.0,0.0,0.0,0.0,0.0,0.0,0.0,0.0,0.0,0.0,0.0,0.0,-0.7697,-0.8585,-0.9221,-0.9393,-0.9364,-0.8969,-0.79,-0.7168,-0.7149,-0.8224,-0.8396,-0.8757,-0.9637,-0.994,-1.0092,-1.0092,-0.9505,-0.9114,-0.9114,-0.8283,-0.7839,-0.7839,-0.7839,-0.7839,-0.7839,-0.7889,0.0,-0.7942,-0.7992,-0.7988,-0.7988,-0.7988,-0.8482,-0.9361,-1.0243,-1.156,-1.278,-0.9653,-0.8478,-0.8676,-0.9558,-1.044,-1.1317,-1.2145,-1.2974,-1.3709,-1.3709,-1.3709,-1.3709,-1.3709,-1.3565,0.0,-1.3366,-1.3221,-1.2877,-1.1999,-1.1799,-1.1365,-0.9702,-0.9948,-1.0096,-0.8382,-0.8676,-0.9019,-0.8187,-0.7988,-0.7988,-0.7988,-0.7941,-0.7864,-0.7787,-0.777,-0.7729,-0.7614,-0.7573,-0.7556,-0.7556,-0.7417,-0.7316,-0.7288,-0.8308,-0.851,-0.7476,-0.7232,-0.7194,-0.7321,-0.749,-0.7533,-0.7391,-0.7366,-0.7322,-0.7177,-0.6667,-0.6536,-0.6701,-0.7575,-0.8317,0.0,0.0,0.0,0.0,0.0,0.0,0.0,0.0,0.0,0.0,0.0,-0.6779,-0.7551,0.0,-0.8725,-0.9097,-1.0035,-1.0768,-1.089,-1.1014,-1.0672,-0.9462,-0.8905,-0.8852,-0.9538,-0.9739,-1.0034,-1.0574,-1.0828,-1.0783,-1.0243,-0.9805,-0.9361,-0.8825,-0.8283,-0.8237,-0.8775,-0.8283,-0.8283,-0.8825,-0.8825,-0.8825,-0.8825,-0.9361,-0.9608,-0.9608,-0.9608,-0.9899,-1.044,-1.0979,-1.1804,-1.2538,-1.044,-1.0243,-1.1219,-1.1755,-1.229,-1.2829,-1.3318,-1.3854,-1.4298,-1.4298,-1.4298,-1.4298,-1.4298,-1.395,-1.3511,-1.3511,-1.3125,-1.2635,-1.2096,-1.195,-1.1707,-1.0636,-1.0832,-1.0925,-0.985,-0.9998,-1.0243,-0.9702,-0.9706,-0.9805,-0.9805,-0.9899,-0.9477,-0.8133,-0.7877,-0.785,-0.7828,-0.8225,-0.8503,-0.8503,-0.8819,-0.9001,-0.8865,-0.9304,-0.9326,-0.8726,-0.895,-0.9117,-0.9117,-0.9504,-0.9464,-0.8912,-0.8882,-0.8651,-0.809,-0.7806,-0.7727,-0.7929,-0.875,-0.8828,0.0,0.0,0.0,0.0,0.0,0.0,0.0,-0.6362,-0.7224,-0.7425,-0.8268,-0.9192,-0.9733,-1.0202,-1.0497,-1.0447,-1.1415,-1.2231,-1.2372,-1.2393,-1.2145,-1.1253,-1.076,-1.0565,-1.0809,-1.1014,-1.1268,-1.1463,-1.1658,-1.1433,-1.0641,-1.0399,-0.9921,-0.9118,-0.8838,-0.9115,-1.0003,-0.9084,-0.9069,-0.9899,-0.9899,-0.9899,-0.9948,-1.0832,-1.1219,-1.1219,-1.1414,-1.1512,-1.1512,-1.1712,-1.1804,-1.1804,-1.1804,-1.2829,-1.425,-1.4052,-1.4004,-1.4004,-1.425,-1.4298,-1.4298,-1.4298,-1.4298,-1.4298,-1.4298,-1.3709,-1.3022,-1.3022,-1.2441,-1.1804,-1.1804,-1.1804,-1.1755,-1.1609,-1.1707,-1.1755,-1.1414,-1.1512,-1.1609,-1.1365,-1.1512,-1.1658,-1.1658,-1.1804,-1.1165,-0.9065,-0.8726,-0.8676,-0.8676,-0.9332,-0.9769,-0.9769,-1.0359,-1.0716,-1.064,-1.0178,-0.9981,-1.0147,-1.049,-1.0662,-1.0615,-1.1282,-1.1282,-1.0481,-1.0522,-1.0176,-0.9504,-0.9504,-0.9586,-0.9723,-0.9899,-0.9038,-0.5005,-0.5627,-0.6214,-0.666,-0.7203,-0.7724,0.0,-0.8471,-0.8809,-0.8704,-0.8886,-0.9433,-1.0558,-1.1049,-1.1645,-1.2659,-1.3298,-1.365,-1.3684,-1.3865,-1.4004,-1.3902,-1.1999,-1.1214,-1.2334,-1.2484,-1.2877,-1.3854,-1.3956,-1.4013,-1.4106,-1.3248,-1.2736,-1.2904,-1.1796,-1.1244,-1.1394,-1.1018,-1.0877,-1.1023,-1.1023,-1.1023,-1.1023,-1.117,-1.1219,-1.1268,-1.2145,-1.2533,-1.2635,-1.3565,-1.3956,-1.3956,-1.3956,-1.41,-1.4196,-1.3221,-1.2877,-1.3022,-1.3956,-1.4298,-1.4298,-1.4298,-1.4298,-1.4298,-1.4298,-1.4202,-1.41,-1.41,-1.4052,-1.3956,-1.3956,-1.3956,-1.3757,-1.3071,-1.3613,-1.3854,-1.2193,-1.2587,-1.2974,-1.1999,-1.1853,-1.1853,-1.1853,-1.1896,-1.1804,-1.1507,-1.1317,-1.1219,-1.1219,-1.1102,-1.0991,-1.0991,-1.0943,-1.1153,-1.1817,-1.107,-1.0949,-1.1767,-1.1111,-1.0605,-1.0332,-1.068,-1.069,-1.0322,-1.055,-1.0611,-1.0543,-1.0543,-1.0521,-1.0569,-1.0615,-1.0246,-0.6746,-0.7588,-0.824,-0.8734,-0.9371,-0.9732,-0.9389,-0.9985,-1.0487,-0.9992,-1.0608,-1.141,-1.1918,-1.2476,-1.3039,-1.3523,-1.3903,-1.4112,-1.4112,-1.4256,-1.4298,-1.4298,-1.3414,-1.3076,-1.3559,-1.3613,-1.387,-1.4479,-1.4539,-1.4359,-1.401,-1.3556,-1.3143,-1.2628,-1.2128,-1.2125,-1.2684,-1.1986,-1.1942,-1.2545,-1.2545,-1.2473,-1.234,-1.2942,-1.3166,-1.3028,-1.3463,-1.3613,-1.3661,-1.41,-1.4298,-1.4298,-1.4298,-1.4298,-1.4244,-1.3806,-1.3613,-1.3709,-1.4148,-1.4298,-1.4298,-1.4298,-1.4298,-1.4298,-1.4298,-1.4298,-1.4346,-1.449,-1.4544,-1.4592,-1.4736,-1.479,-1.4688,-1.4346,-1.4592,-1.4742,-1.395,-1.41,-1.4298,-1.3854,-1.3896,-1.3986,-1.3986,-1.4082,-1.4178,-1.4178,-1.2818,-1.1707,-1.1609,-1.1999,-1.2484,-1.2931,-1.2808,-1.2761,-1.313,-1.2625,-1.2495,-1.2905,-1.254,-1.2268,-1.2163,-1.2257,-1.2029,-1.1378,-1.1471,-1.1242,-1.0694,-1.0694,-1.0756,-1.0871,-1.082,-1.0749,-0.8205,-0.9092,-0.9787,-1.0367,-1.0972,-1.1303,-1.0805,-1.1365,-1.1871,-1.1481,-1.2235,-1.304,-1.3087,-1.3521,-1.3931,-1.4022,-1.416,-1.4298,-1.4298,-1.4298,-1.4298,-1.4298,-1.4298,-1.4298,-1.4298,-1.4298,-1.4413,-1.4696,-1.4714,-1.4504,-1.4054,-1.4071,-1.3738,-1.3122,-1.3013,-1.3344,-1.4014,-1.328,-1.3197,-1.3919,-1.3919,-1.3819,-1.3685,-1.4392,-1.4606,-1.4413,-1.4328,-1.4298,-1.4298,-1.4298,-1.4298,-1.4298,-1.4298,-1.4298,-1.4298,-1.4298,-1.4298,-1.4298,-1.4298,-1.4346,-1.4394,-1.4394,-1.4442,-1.4538,-1.4538,-1.4538,-1.4544,-1.4742,-1.479,-1.4838,-1.5035,-1.5083,-1.5131,-1.5172,-1.522,-1.522,-1.5267,-1.5267,-1.5267,-1.5267,-1.5452,-1.5588,-1.5588,-1.5683,-1.5784,-1.5784,-1.4178,-1.2872,-1.2587,-1.3071,-1.3661,-1.425,-1.4129,-1.4014,-1.4014,-1.3839,-1.3731,-1.3731,-1.3731,-1.3701,-1.3628,-1.3688,-1.3366,-1.259,-1.2651,-1.236,-1.1708,-1.1708,-1.1791,-1.1898,-1.1845,-1.1745,-0.9071,-0.9702,-1.039,-1.0848,-1.1332,-1.1856,-1.256,-1.2723,-1.2889,-1.3321,-1.3474,-1.3582,-1.3823,-1.3883,-1.3979,-1.425,-1.4298,-1.4298,-1.4298,-1.4298,-1.4298,-1.4298,-1.4298,-1.4298,-1.4298,-1.4298,-1.4413,-1.4696,-1.4714,-1.4944,-1.5405,-1.5435,-1.5549,-1.5749,-1.5509,-1.5435,-1.5435,-1.5131,-1.5005,-1.5056,-1.5056,-1.505,-1.5038,-1.4785,-1.4714,-1.469,-1.4419,-1.4298,-1.4298,-1.4298,-1.4298,-1.4298,-1.4298,-1.4298,-1.4298,-1.4298,-1.4298,-1.4298,-1.4298,-1.4496,-1.4688,-1.4688,-1.4838,-1.5083,-1.5083,-1.5083,-1.5083,-1.5083,-1.5083,-1.5083,-1.5083,-1.5083,-1.5178,-1.5452,-1.5493,-1.554,-1.573,-1.5784,-1.5784,-1.5784,-1.5784,-1.5778,-1.5778,-1.5784,-1.5784,-1.5784,-1.573,-1.5547,-1.5029,-1.4592,-1.425,-1.4298,-1.4292,-1.4286,-1.4286,-1.428,-1.4274,-1.4274,-1.4274,-1.4159,-1.3906,-1.4135,-1.4153,-1.3853,-1.4094,-1.4226,-1.4178,-1.4178,-1.4178,-1.4184,-1.4184,-1.365,-0.9943,-1.0569,-1.115,-1.1794,-1.2332,-1.2806,-1.3197,-1.327,-1.3298,-1.3474,-1.3498,-1.3519,-1.3614,-1.3761,-1.395,-1.4039,-1.4183,-1.4298,-1.4298,-1.4461,-1.4509,-1.4322,-1.4612,-1.4769,-1.4594,-1.4407,-1.4485,-1.4944,-1.498,-1.5203,-1.5728,-1.5759,-1.5801,-1.5885,-1.5807,-1.5759,-1.5759,-1.5674,-1.5626,-1.5626,-1.5451,-1.5366,-1.536,-1.5095,-1.498,-1.4962,-1.469,-1.4576,-1.4564,-1.4377,-1.4298,-1.4298,-1.4298,-1.4298,-1.4298,-1.4298,-1.4298,-1.4346,-1.4496,-1.464,-1.4736,-1.4885,-1.5035,-1.5083,-1.5083,-1.5083,-1.5131,-1.5309,-1.5356,-1.5404,-1.5547,-1.5547,-1.5594,-1.5683,-1.5683,-1.5737,-1.5778,-1.5784,-1.5784,-1.5784,-1.5784,-1.5784,-1.5784,-1.5784,-1.5737,-1.5635,-1.5588,-1.554,-1.5404,-1.507,-1.4838,-1.4838,-1.4688,-1.4592,-1.4592,-1.4394,-1.4298,-1.4298,-1.4298,-1.4256,-1.4171,-1.425,-1.4256,-1.4165,-1.4447,-1.4496,-1.4298,-1.4496,-1.4496,-1.4292,-1.3559,-1.3414,-1.0667,-1.1333,-1.1959,-1.2518,-1.3006,-1.3381,-1.3601,-1.3636,-1.3661,-1.3659,-1.3643,-1.3596,-1.3501,-1.3622,-1.3797,-1.3888,-1.4045,-1.4226,-1.4419,-1.4606,-1.4684,-1.46,-1.4896,-1.5091,-1.4965,-1.4832,-1.4862,-1.5215,-1.5246,-1.5439,-1.5867,-1.5891,-1.5891,-1.5891,-1.5891,-1.5891,-1.5891,-1.5891,-1.5891,-1.5885,-1.5722,-1.5638,-1.5632,-1.5469,-1.5354,-1.5234,-1.5068,-1.4953,-1.4841,-1.466,-1.4576,-1.4582,-1.4582,-1.4637,-1.4721,-1.4623,-1.4653,-1.4721,-1.4623,-1.464,-1.4742,-1.5035,-1.5178,-1.5267,-1.5315,-1.5363,-1.541,-1.5547,-1.5588,-1.5635,-1.5784,-1.5784,-1.5784,-1.5784,-1.5784,-1.5784,-1.5784,-1.5784,-1.5784,-1.5784,-1.5784,-1.5784,-1.5784,-1.5784,-1.5778,-1.5635,-1.5588,-1.5547,-1.5356,-1.5226,-1.5083,-1.5083,-1.4939,-1.4838,-1.4838,-1.4688,-1.4544,-1.4442,-1.4442,-1.4394,-1.4298,-1.4298,-1.4298,-1.4298,-1.4496,-1.4496,-1.4298,-1.4496,-1.4496,-1.4292,-1.3613,-1.3414,-1.1321,-1.1991,-1.2664,-1.31,-1.3404,-1.3588,-1.3865,-1.3913,-1.3879,-1.3877,-1.3851,-1.3761,-1.3501,-1.3477,-1.3574,-1.3827,-1.3912,-1.4129,-1.4648,-1.4739,-1.4847,-1.5077,-1.5131,-1.5239,-1.5518,-1.5524,-1.5546,-1.5551,-1.5557,-1.5666,-1.5927,-1.5945,-1.5891,-1.5891,-1.5891,-1.5945,-1.5945,-1.5945,-1.5939,-1.5939,-1.5939,-1.5939,-1.5933,-1.5953,-1.5784,-1.5551,-1.5534,-1.5423,-1.5176,-1.5164,-1.5157,-1.5165,-1.5165,-1.5312,-1.5484,-1.5223,-1.5293,-1.5422,-1.4606,-1.455,-1.4783,-1.5035,-1.5315,-1.554,-1.573,-1.5784,-1.5784,-1.5784,-1.5784,-1.5784,-1.5784,-1.5784,-1.5784,-1.5784,-1.5784,-1.5784,-1.5784,-1.5784,-1.5784,-1.5784,-1.5784,-1.5784,-1.5784,-1.5784,-1.5832,-1.5804,-1.5791,-1.5642,-1.5178,-1.5131,-1.5131,-1.5131,-1.5131,-1.5131,-1.5131,-1.5131,-1.4987,-1.4742,-1.4736,-1.4592,-1.4346,-1.4346,-1.4346,-1.4346,-1.4346,-1.4346,-1.4346,-1.4346,-1.4346,-1.4298,-1.4244,-1.3709,-1.2262,-1.2865,-1.3374,-1.3654,-1.392,-1.4058,-1.3915,-1.392,-1.3788,-1.3372,-1.3157,-1.2928,-1.2668,-1.2952,-1.3197,-1.327,-1.399,-1.4558,-1.4696,-1.5052,-1.5297,-1.5411,-1.5762,-1.6033,-1.6079,-1.6295,-1.6388,-1.6411,-1.6229,-1.6131,-1.6205,-1.6217,-1.6111,-1.5891,-1.6105,-1.6217,-1.6217,-1.6418,-1.6524,-1.6524,-1.6524,-1.6524,-1.6518,-1.6508,-1.647,-1.6398,-1.6174,-1.6061,-1.5997,-1.5846,-1.5777,-1.5758,-1.5758,-1.5808,-1.5852,-1.5781,-1.58,-1.582,-1.5336,-1.5248,-1.5309,-1.5547,-1.5689,-1.573,-1.5784,-1.5784,-1.5784,-1.5784,-1.5784,-1.5784,-1.5784,-1.5784,-1.5784,-1.5784,-1.5784,-1.5784,-1.5784,-1.5784,-1.5784,-1.5784,-1.5784,-1.5784,-1.5784,-1.5784,-1.5905,-1.6126,-1.5972,-1.5784,-1.5642,-1.5642,-1.5642,-1.5642,-1.5499,-1.5404,-1.5404,-1.522,-1.5083,-1.4981,-1.4987,-1.4981,-1.4885,-1.4885,-1.4885,-1.4885,-1.5064,-1.5016,-1.4592,-1.479,-1.4688,-1.4292,-1.3463,-1.3366,-1.3031,-1.3502,-1.3927,-1.4028,-1.4118,-1.4057,-1.3797,-1.3646,-1.3411,-1.288,-1.2644,-1.2451,-1.2192,-1.2487,-1.2843,-1.3041,-1.3821,-1.4485,-1.4835,-1.5342,-1.5695,-1.5865,-1.6237,-1.652,-1.6683,-1.6805,-1.6948,-1.71,-1.6695,-1.6466,-1.6465,-1.6477,-1.6424,-1.6258,-1.6418,-1.6477,-1.6477,-1.663,-1.6677,-1.6677,-1.6677,-1.6677,-1.6677,-1.6842,-1.6842,-1.6723,-1.6676,-1.6612,-1.6488,-1.6336,-1.6311,-1.6304,-1.6304,-1.6406,-1.6488,-1.6358,-1.639,-1.6462,-1.6119,-1.6009,-1.5978,-1.5769,-1.5683,-1.5683,-1.5784,-1.5784,-1.5784,-1.5784,-1.5784,-1.5784,-1.5784,-1.5784,-1.5865,-1.5992,-1.6025,-1.6059,-1.6186,-1.6213,-1.6213,-1.6213,-1.6213,-1.6213,-1.6213,-1.6213,-1.6273,-1.644,-1.6319,-1.6213,-1.6213,-1.5944,-1.5784,-1.5784,-1.5683,-1.5635,-1.5635,-1.5499,-1.5363,-1.5267,-1.5267,-1.522,-1.5083,-1.5083,-1.5083,-1.5083,-1.5267,-1.5172,-1.4885,-1.5035,-1.4885,-1.4448,-1.3971,-1.4023,-1.3608,-1.3981,-1.4298,-1.4298,-1.4099,-1.3827,-1.3532,-1.326,-1.2861,-1.233,-1.221,-1.2125,-1.1826,-1.2059,-1.2439,-1.2982,-1.3538,-1.4183,-1.5042,-1.5593,-1.6026,-1.6399,-1.6636,-1.6895,-1.7226,-1.7226,-1.7331,-1.7582,-1.71,-1.6783,-1.6789,-1.6789,-1.6789,-1.6789,-1.6789,-1.6783,-1.6836,-1.6836,-1.6836,-1.6836,-1.6836,-1.6836,-1.6836,-1.7113,-1.7113,-1.6842,-1.712,-1.7113,-1.6836,-1.6836,-1.68,-1.6801,-1.6801,-1.7001,-1.7226,-1.6921,-1.6987,-1.7213,-1.6867,-1.6767,-1.6617,-1.5838,-1.5599,-1.564,-1.5743,-1.5784,-1.5784,-1.5784,-1.5784,-1.5784,-1.5784,-1.5811,-1.5952,-1.6213,-1.6348,-1.64,-1.6653,-1.6707,-1.6707,-1.6707,-1.6707,-1.6707,-1.6707,-1.6707,-1.672,-1.676,-1.6734,-1.672,-1.676,-1.6286,-1.5932,-1.5892,-1.5919,-1.5932,-1.5892,-1.5878,-1.5836,-1.5599,-1.5599,-1.5491,-1.5178,-1.5178,-1.5178,-1.5178,-1.5178,-1.5172,-1.5124,-1.521,-1.5086,-1.4798,-1.5071,-1.5103,-1.4112,-1.4262,-1.4298,-1.4298,-1.4099,-1.3779,-1.3302,-1.2976,-1.2566,-1.1784,-1.1627,-1.1543,-1.1304,-1.1655,-1.2121,-1.2693,-1.3411,-1.4279,-1.5281,-1.5696,-1.6183,-1.6935,-1.7067,-1.7226,-1.7483,-1.7529,-1.7536,-1.7582,-1.7477,-1.7371,-1.712,-1.712,-1.712,-1.712,-1.712,-1.7219,-1.7424,-1.7424,-1.7424,-1.7424,-1.7424,-1.7424,-1.7477,-1.7477,-1.7477,-1.7477,-1.7529,-1.7477,-1.7424,-1.7424,-1.7443,-1.7456,-1.7456,-1.7456,-1.7502,-1.7448,-1.7462,-1.7468,-1.7226,-1.7125,-1.7025,-1.6386,-1.6144,-1.6104,-1.5858,-1.5784,-1.5784,-1.5784,-1.5784,-1.5784,-1.5784,-1.6012,-1.6213,-1.6308,-1.646,-1.6647,-1.6693,-1.6707,-1.6707,-1.6707,-1.6707,-1.6707,-1.6707,-1.6707,-1.6787,-1.7085,-1.6867,-1.6794,-1.7092,-1.6767,-1.646,-1.6219,-1.6413,-1.6453,-1.6219,-1.6413,-1.6446,-1.6164,-1.6144,-1.6037,-1.5703,-1.5689,-1.5689,-1.5689,-1.5689,-1.5594,-1.5452,-1.5638,-1.5609,-1.5377,-1.5712,-1.5846,-1.4226,-1.4298,-1.4298,-1.4298,-1.3996,-1.3562,-1.3025,-1.259,-1.2113,-1.1449,-1.1273,-1.1236,-1.1135,-1.1405,-1.189,-1.2415,-1.3061,-1.392,-1.5103,-1.5682,-1.6278,-1.7127,-1.7331,-1.7483,-1.7582,-1.7582,-1.7582,-1.7582,-1.7582,-1.7529,-1.743,-1.7437,-1.7437,-1.7437,-1.7437,-1.7483,-1.7582,-1.7582,-1.7582,-1.7582,-1.7582,-1.7582,-1.7582,-1.7582,-1.7582,-1.7582,-1.7582,-1.7582,-1.7582,-1.7582,-1.7582,-1.7582,-1.7582,-1.7582,-1.7582,-1.7582,-1.7582,-1.7562,-1.7474,-1.7427,-1.7353,-1.6924,-1.6569,-1.6279,-1.6279,-1.6179,-1.6059,-1.6059,-1.6059,-1.6059,-1.6059,-1.6166,-1.6402,-1.6703,-1.6947,-1.7161,-1.7161,-1.7161,-1.7161,-1.7161,-1.7161,-1.7161,-1.7161,-1.7161,-1.7208,-1.7407,-1.7255,-1.7215,-1.7407,-1.7248,-1.6994,-1.6547,-1.662,-1.6647,-1.6513,-1.6627,-1.6647,-1.6506,-1.65,-1.6433,-1.6293,-1.6286,-1.6286,-1.6286,-1.6286,-1.6237,-1.6139,-1.6272,-1.6203,-1.5918,-1.6208,-1.6285,-1.4159,-1.4256,-1.4298,-1.4298,-1.3906,-1.3375,-1.2825,-1.23,-1.1769,-1.1226,-1.1111,-1.1111,-1.1149,-1.1292,-1.163,-1.2257,-1.2717,-1.3524,-1.4891,-1.5593,-1.6284,-1.7121,-1.7443,-1.7582,-1.7582,-1.7582,-1.7582,-1.7582,-1.7582,-1.7582,-1.7582,-1.7582,-1.7582,-1.7582,-1.7582,-1.7582,-1.7582,-1.7582,-1.7582,-1.7582,-1.7582,-1.7582,-1.7582,-1.7582,-1.7582,-1.7582,-1.7582,-1.7582,-1.7582,-1.7582,-1.7582,-1.7582,-1.7582,-1.7582,-1.7582,-1.7582,-1.7582,-1.7582,-1.7582,-1.7582,-1.7549,-1.7367,-1.6938,-1.6543,-1.6653,-1.6547,-1.6366,-1.6366,-1.6366,-1.6366,-1.6366,-1.6462,-1.6643,-1.7172,-1.7467,-1.7582,-1.7582,-1.7582,-1.7582,-1.7582,-1.7582,-1.7582,-1.7582,-1.7582,-1.7582,-1.7582,-1.7582,-1.7582,-1.7582,-1.7582,-1.7408,-1.6941,-1.6894,-1.6867,-1.6807,-1.686,-1.6867,-1.6807,-1.68,-1.6774,-1.6707,-1.6707,-1.6707,-1.6707,-1.6707,-1.6707,-1.6707,-1.6767,-1.6706,-1.6518,-1.6755,-1.6775,-1.3936,-1.4117,-1.4298,-1.4298,-1.3906,-1.3375,-1.2825,-1.23,-1.1769,-1.1226,-1.1111,-1.1149,-1.1335,-1.1241,-1.1445,-1.2431,-1.2651,-1.3286,-1.4877,-1.5593,-1.6222,-1.7121,-1.7422,-1.7582,-1.7582,-1.7582,-1.7582,-1.7582,-1.7582,-1.7582,-1.7582,-1.7582,-1.7582,-1.7582,-1.7582,-1.7582,-1.7582,-1.7582,-1.7582,-1.7582,-1.7582,-1.7582,-1.7582,-1.7582,-1.7582,-1.7582,-1.7582,-1.7582,-1.7582,-1.7582,-1.7582,-1.7582,-1.7582,-1.7582,-1.7582,-1.7582,-1.7582,-1.7582,-1.7582,-1.7582,-1.7582,-1.7549,-1.738,-1.7079,-1.678,-1.6687,-1.6667,-1.6667,-1.6667,-1.6667,-1.6667,-1.6867,-1.7199,-1.7468,-1.7562,-1.7582,-1.7582,-1.7582,-1.7582,-1.7582,-1.7582,-1.7582,-1.7582,-1.7582,-1.7582,-1.7582,-1.7582,-1.7582,-1.7582,-1.7582,-1.7562,-1.7508,-1.7502,-1.7395,-1.7179,-1.74,-1.7388,-1.7179,-1.7159,-1.7038,-1.6714,-1.6707,-1.6707,-1.6707,-1.6707,-1.6707,-1.6707,-1.7025,-1.7159,-1.7121,-1.7408,-1.7489,-1.3821,-1.4099,-1.4256,-1.4099,-1.3762,-1.3316,-1.2759,-1.2221,-1.1731,-1.134,-1.1186,-1.1149,-1.1372,-1.1223,-1.1437,-1.2462,-1.2528,-1.3002,-1.4578,-1.4981,-1.5581,-1.6774,-1.6981,-1.7194,-1.7549,-1.7582,-1.7582,-1.7582,-1.7582,-1.7582,-1.7582,-1.7582,-1.7582,-1.7582,-1.7582,-1.7582,-1.7582,-1.7582,-1.7582,-1.7582,-1.7582,-1.7582,-1.7582,-1.7582,-1.7582,-1.7582,-1.7582,-1.7582,-1.7582,-1.7582,-1.7582,-1.7582,-1.7582,-1.7582,-1.7582,-1.7582,-1.7582,-1.7582,-1.7582,-1.7582,-1.7582,-1.7582,-1.7554,-1.744,-1.7268,-1.7114,-1.7025,-1.7025,-1.7025,-1.7025,-1.7025,-1.7239,-1.7494,-1.7555,-1.7582,-1.7582,-1.7582,-1.7582,-1.7582,-1.7582,-1.7582,-1.7582,-1.7582,-1.7582,-1.7582,-1.7582,-1.7582,-1.7582,-1.7582,-1.7582,-1.7582,-1.7582,-1.7582,-1.7535,-1.7474,-1.7515,-1.7528,-1.7467,-1.746,-1.7355,-1.7241,-1.7235,-1.7235,-1.7235,-1.7235,-1.7235,-1.7235,-1.7407,-1.746,-1.7467,-1.7528,-1.7582,-1.3429,-1.3803,-1.402,-1.3839,-1.3528,-1.3182,-1.2706,-1.2187,-1.1756,-1.154,-1.1335,-1.126,-1.1521,-1.1409,-1.1564,-1.2407,-1.2514,-1.2902,-1.4156,-1.4576,-1.5107,-1.6206,-1.6473,-1.6774,-1.7275,-1.7482,-1.7582,-1.7582,-1.7582,-1.7582,-1.7582,-1.7582,-1.7582,-1.7582,-1.7582,-1.7582,-1.7582,-1.7582,-1.7582,-1.7582,-1.7582,-1.7582,-1.7582,-1.7582,-1.7582,-1.7582,-1.7582,-1.7582,-1.7582,-1.7582,-1.7582,-1.7582,-1.7582,-1.7582,-1.7582,-1.7582,-1.7582,-1.7582,-1.7582,-1.7582,-1.7582,-1.7582,-1.7582,-1.7582,-1.7582,-1.7494,-1.7326,-1.7326,-1.7326,-1.7326,-1.7326,-1.7481,-1.7582,-1.7582,-1.7582,-1.7582,-1.7582,-1.7582,-1.7582,-1.7582,-1.7582,-1.7582,-1.7582,-1.7582,-1.7582,-1.7582,-1.7582,-1.7582,-1.7582,-1.7582,-1.7582,-1.7582,-1.7582,-1.7582,-1.7582,-1.7582,-1.7582,-1.7582,-1.7582,-1.7582,-1.7582,-1.7582,-1.7582,-1.7582,-1.7582,-1.7582,-1.7582,-1.7582,-1.7582,-1.7582,-1.7582,-1.7582,-1.2644,-1.3115,-1.3519,-1.3519,-1.3241,-1.2935,-1.2663,-1.2187,-1.1795,-1.1689,-1.1558,-1.1521,-1.1929,-1.1818,-1.1846,-1.2337,-1.2661,-1.3091,-1.3623,-1.4458,-1.5122,-1.5378,-1.5925,-1.6393,-1.6687,-1.7241,-1.7582,-1.7582,-1.7582,-1.7582,-1.7582,-1.7582,-1.7582,-1.7582,-1.7582,-1.7582,-1.7582,-1.7582,-1.7582,-1.7582,-1.7582,-1.7582,-1.7582,-1.7582,-1.7582,-1.7582,-1.7582,-1.7582,-1.7582,-1.7582,-1.7582,-1.7582,-1.7582,-1.7582,-1.7582,-1.7582,-1.7582,-1.7582,-1.7582,-1.7582,-1.7582,-1.7582,-1.7582,-1.7582,-1.7582,-1.7582,-1.7582,-1.7582,-1.7582,-1.7582,-1.7582,-1.7582,-1.7582,-1.7582,-1.7582,-1.7582,-1.7582,-1.7582,-1.7582,-1.7582,-1.7582,-1.7582,-1.7582,-1.7582,-1.7582,-1.7582,-1.7582,-1.7582,-1.7582,-1.7582,-1.7582,-1.7582,-1.7582,-1.7582,-1.7582,-1.7582,-1.7582,-1.7582,-1.7582,-1.7582,-1.7582,-1.7582,-1.7582,-1.7582,-1.7582,-1.7582,-1.7582,-1.7582,-1.7582,-1.7582,-1.7582,-1.7582,-1.2037,-1.2494,-1.282,-1.2527,-1.2546,-1.2463,-1.2074,-1.1866,-1.1746,-1.1688,-1.1558,-1.1521,-1.1929,-1.1855,-1.2042,-1.3048,-1.3198,-1.342,-1.4167,-1.4845,-1.5364,-1.5658,-1.6567,-1.7201,-1.7295,-1.7475,-1.7582,-1.7582,-1.7582,-1.7582,-1.7582,-1.7582,-1.7582,-1.7582,-1.7582,-1.7582,-1.7582,-1.7582,-1.7582,-1.7582,-1.7582,-1.7582,-1.7582,-1.7582,-1.7582,-1.7582,-1.7582,-1.7582,-1.7582,-1.7582,-1.7582,-1.7582,-1.7582,-1.7582,-1.7582,-1.7582,-1.7582,-1.7582,-1.7582,-1.7582,-1.7582,-1.7582,-1.7582,-1.7582,-1.7582,-1.7582,-1.7582,-1.7582,-1.7582,-1.7582,-1.7582,-1.7582,-1.7582,-1.7582,-1.7582,-1.7582,-1.7582,-1.7582,-1.7582,-1.7582,-1.7582,-1.7582,-1.7582,-1.7582,-1.7582,-1.7582,-1.7582,-1.7582,-1.7582,-1.7582,-1.7582,-1.7582,-1.7582,-1.7582,-1.7582,-1.7582,-1.7582,-1.7582,-1.7582,-1.7582,-1.7582,-1.7582,-1.7582,-1.7582,-1.7582,-1.7582,-1.7582,-1.7582,-1.7582,-1.7582,-1.7582,-1.7582,-1.1396,-1.1811,-1.2134,-1.2048,-1.2145,-1.2207,-1.2023,-1.187,-1.1818,-1.1892,-1.1781,-1.1744,-1.204,-1.2094,-1.2386,-1.3174,-1.3372,-1.3642,-1.4246,-1.4863,-1.5424,-1.5932,-1.674,-1.7295,-1.746,-1.7515,-1.7582,-1.7582,-1.7582,-1.7582,-1.7582,-1.7582,-1.7582,-1.7582,-1.7582,-1.7582,-1.7582,-1.7582,-1.7582,-1.7582,-1.7582,-1.7582,-1.7582,-1.7582,-1.7582,-1.7582,-1.7582,-1.7582,0.0,-1.7582,-1.7582,-1.7582,-1.7582,-1.7582,-1.7582,-1.7582,-1.7582,-1.7582,-1.7582,-1.7582,-1.7582,-1.7582,-1.7582,-1.7582,-1.7582,-1.7582,-1.7582,-1.7582,-1.7582,-1.7582,-1.7582,-1.7582,-1.7582,-1.7582,-1.7582,-1.7582,-1.7582,-1.7582,-1.7582,-1.7582,-1.7582,-1.7582,-1.7582,-1.7582,-1.7582,-1.7582,-1.7582,-1.7582,-1.7582,-1.7582,-1.7582,-1.7582,-1.7582,-1.7582,-1.7582,-1.7582,-1.7582,-1.7582,-1.7582,-1.7582,-1.7582,-1.7582,-1.7582,-1.7582,-1.7582,-1.7582,-1.7582,-1.7582,-1.7582,-1.7582,-1.7582,-1.7582,0.0,-1.1118,-1.144,-1.1866,-1.1946,-1.2005,-1.2265,-1.2141,0.0,-1.2224,-1.212,-1.2083,-1.2294,-1.2596,-1.2804,-1.2871,-1.3327,-1.3766,-1.4108,-1.472,-1.543,-1.6308,-1.6607,-1.6874,-1.7206,-1.7474,-1.7582,-1.7582,-1.7582,-1.7582,-1.7582,-1.7582,-1.7582,-1.7582,-1.7582,-1.7582,-1.7582,-1.7582,-1.7582,-1.7582,-1.7582,-1.7582,-1.7582,-1.7582,-1.7582,-1.7582,-1.7582,-1.7582,-1.7582,-1.7582,-1.7582,-1.7582,-1.7582,-1.7582,-1.7582,-1.7582,-1.7582,-1.7582,-1.7582,-1.7582,-1.7582,-1.7582,-1.7582,-1.7582,-1.7582,-1.7582,-1.7582,-1.7582,-1.7582,-1.7582,-1.7582,-1.7582,-1.7582,-1.7582,-1.7582,-1.7582,-1.7582,-1.7582,-1.7582,-1.7582,-1.7582,-1.7582,-1.7582,-1.7582,-1.7582,-1.7582,-1.7582,-1.7582,-1.7582,-1.7582,-1.7582,-1.7582,-1.7582,-1.7582,-1.7582,-1.7582,-1.7582,-1.7582,-1.7582,-1.7582,-1.7582,-1.7582,-1.7582,-1.7582,-1.7582,-1.7582,-1.7582,-1.7582,-1.7582,-1.7582,-1.7582,-1.7582,-0.9869,0.0,-1.0653,-1.0715,-1.1158,-1.1517,0.0,-1.1706,-1.2003,-1.2077,-1.204,-1.2149,-1.2599,-1.2737,-1.3012,-1.3702,-1.4075,-1.4422,-1.476,-1.5497,-1.6342,-1.7168,-1.7335,-1.7402,-1.7475,-1.7542,-1.7582,-1.7582,-1.7582,-1.7582,-1.7582,-1.7582,-1.7582,-1.7582,-1.7582,-1.7582,-1.7582,-1.7582,-1.7582,-1.7582,-1.7582,-1.7582,-1.7582,-1.7582,-1.7582,-1.7582,-1.7582,-1.7582,-1.7582,-1.7582,-1.7582,-1.7582,-1.7582,-1.7582,-1.7582,-1.7582,-1.7582,-1.7582,-1.7582,-1.7582,-1.7582,-1.7582,-1.7582,-1.7582,-1.7582,-1.7582,-1.7582,-1.7582,-1.7582,-1.7582,-1.7582,-1.7582,-1.7582,-1.7582,-1.7582,-1.7582,-1.7582,-1.7582,-1.7582,-1.7582,-1.7582,-1.7582,-1.7582,-1.7582,-1.7582,-1.7582,-1.7582,-1.7582,-1.7582,-1.7582,-1.7582,-1.7582,-1.7582,-1.7582,-1.7582,-1.7582,-1.7582,-1.7582,-1.7582,-1.7582,-1.7582,-1.7582,-1.7582,-1.7582,-1.7582,-1.7582,-1.7582,-1.7582,-1.7582,-1.7582,-1.7582,-1.7582,-0.9474,-1.0009,-1.0493,-1.0732,-1.1088,-1.1394,-1.1457,-1.1735,-1.1952,-1.1952,-1.2065,-1.228,-1.273,-1.2904,-1.3246,-1.3961,-1.4335,-1.4763,-1.5511,-1.6254,-1.6951,-1.7508,-1.7582,-1.7582,-1.7582,-1.7582,-1.7582,-1.7582,-1.7582,-1.7582,-1.7582,-1.7582,-1.7582,-1.7582,-1.7582,-1.7582,-1.7582,-1.7582,-1.7582,-1.7582,-1.7582,-1.7582,-1.7582,-1.7582,-1.7582,-1.7582,-1.7582,-1.7582,-1.7582,-1.7582,-1.7582,-1.7582,-1.7582,-1.7582,-1.7582,-1.7582,-1.7582,-1.7582,-1.7582,-1.7582,-1.7582,-1.7582,-1.7582,-1.7582,-1.7582,-1.7582,-1.7582,-1.7582,-1.7582,-1.7582,-1.7582,-1.7582,-1.7582,-1.7582,-1.7582,-1.7582,-1.7582,-1.7582,-1.7582,-1.7582,-1.7582,-1.7582,-1.7582,-1.7582,-1.7582,-1.7582,-1.7582,-1.7582,-1.7582,-1.7582,-1.7582,-1.7582,-1.7582,-1.7582,-1.7582,-1.7582,-1.7582,-1.7582,-1.7582,-1.7582,-1.7582,-1.7582,-1.7582,-1.7582,-1.7582,-1.7582,-1.7582,-1.7582,-1.7582,-1.7582,-1.7582,-1.7582,-0.9388,-1.0034,-1.0754,-1.1134,-1.1362,-1.155,-1.1757,-1.1906,-1.1973,-1.1973,-1.2164,-1.2496,-1.2797,-1.3106,-1.3534,-1.4122,-1.4543,-1.5164,-1.6301,-1.6884,-1.7306,-1.7549,-1.7582,-1.7582,-1.7582,-1.7582,-1.7582,-1.7582,-1.7582,-1.7582,-1.7582,-1.7582,-1.7582,-1.7582,-1.7582,-1.7582,-1.7582,-1.7582,-1.7582,-1.7582,-1.7582,-1.7582,-1.7582,-1.7582,-1.7582,-1.7582,-1.7582,-1.7582,-1.7582,-1.7582,-1.7582,-1.7582,-1.7582,-1.7582,-1.7582,-1.7582,-1.7582,-1.7582,-1.7582,-1.7582,-1.7582,-1.7582,-1.7582,-1.7582,-1.7582,-1.7582,-1.7582,-1.7582,-1.7582,-1.7582,-1.7582,-1.7582,-1.7582,-1.7582,-1.7582,-1.7582,-1.7582,-1.7582,-1.7582,-1.7582,-1.7582,-1.7582,-1.7582,-1.7582,-1.7582,-1.7582,-1.7582,-1.7582,-1.7582,-1.7582,-1.7582,-1.7582,-1.7582,-1.7582,-1.7582,-1.7582,-1.7582,-1.7582,-1.7582,-1.7582,-1.7582,-1.7582,-1.7582,-1.7582,-1.7582,-1.7582,-1.7582,-1.7582,-1.7582,-1.7582,-1.7582,-1.7582,-0.9521,-1.0509,-1.1286,-1.064,-1.1148,-1.175,-1.1543,-1.1877,-1.2238,-1.2238,-1.2509,-1.2811,-1.308,-1.3587,-1.4148,-1.478,-1.5537,-1.6288,-1.6971,-1.7146,-1.7306,-1.7549,-1.7582,-1.7582,-1.7582,-1.7582,-1.7582,-1.7582,-1.7582,-1.7582,-1.7582,-1.7582,-1.7582,-1.7582,-1.7582,-1.7582,-1.7582,-1.7582,-1.7582,-1.7582,-1.7582,-1.7582,-1.7582,-1.7582,-1.7582,-1.7582,-1.7582,-1.7582,-1.7582,-1.7582,-1.7582,-1.7582,-1.7582,-1.7582,-1.7582,-1.7582,-1.7582,-1.7582,-1.7582,-1.7582,-1.7582,-1.7582,-1.7582,-1.7582,-1.7582,-1.7582,-1.7582,-1.7582,-1.7582,-1.7582,-1.7582,-1.7582,-1.7582,-1.7582,-1.7582,-1.7582,-1.7582,-1.7582,-1.7582,-1.7582,-1.7582,-1.7582,-1.7582,-1.7582,-1.7582,-1.7582,-1.7582,-1.7582,-1.7582,-1.7582,-1.7582,-1.7582,-1.7582,-1.7582,-1.7582,-1.7582,-1.7582,-1.7582,-1.7582,-1.7582,-1.7582,-1.7582,-1.7582,-1.7582,-1.7582,-1.7582,-1.7582,-1.7582,-1.7582,-1.7582,-1.7582,-1.7582,-0.9345,-1.0186,-1.0902,-1.0883,-1.1655,-1.2301,-1.1964,-1.2231,-1.2583,-1.2583,-1.2824,-1.3093,-1.3387,-1.3794,-1.4382,-1.5284,-1.6172,-1.6891,-1.7166,-1.7333,-1.7435,-1.7569,-1.7582,-1.7582,-1.7582,-1.7582,-1.7582,-1.7582,-1.7582,-1.7582,-1.7582,-1.7582,-1.7582,-1.7582,-1.7582,-1.7582,-1.7582,-1.7582,-1.7582,-1.7582,-1.7582,-1.7582,-1.7582,-1.7582,-1.7582,-1.7582,-1.7582,-1.7582,-1.7582,-1.7582,-1.7582,-1.7582,-1.7582,-1.7582,-1.7582,-1.7582,-1.7582,-1.7582,-1.7582,-1.7582,-1.7582,-1.7582,-1.7582,-1.7582,-1.7582,-1.7582,-1.7582,-1.7582,-1.7582,-1.7582,-1.7582,-1.7582,-1.7582,-1.7582,-1.7582,-1.7582,-1.7582,-1.7582,-1.7582,-1.7582,-1.7582,-1.7582,-1.7582,-1.7582,-1.7582,-1.7582,-1.7582,-1.7582,-1.7582,-1.7582,-1.7582,-1.7582,-1.7582,-1.7582,-1.7582,-1.7582,-1.7582,-1.7582,-1.7582,-1.7582,-1.7582,-1.7582,-1.7582,-1.7582,-1.7582,-1.7582,-1.7582,-1.7582,-1.7582,-1.7582,-1.7582,-1.7582,-0.9266,-0.9931,-1.062,-1.1228,-1.1937,-1.2489,-1.2505,-1.2579,-1.2757,-1.3045,-1.3253,-1.3507,-1.3753,-1.4262,-1.491,-1.5879,-1.672,-1.73,-1.73,-1.7494,-1.7582,-1.7582,-1.7582,-1.7582,-1.7582,-1.7582,-1.7582,-1.7582,-1.7582,-1.7582,-1.7582,-1.7582,-1.7582,-1.7582,-1.7582,-1.7582,-1.7582,-1.7582,-1.7582,-1.7582,-1.7582,-1.7582,-1.7582,-1.7582,-1.7582,-1.7582,-1.7582,-1.7582,-1.7582,-1.7582,-1.7582,-1.7582,-1.7582,-1.7582,-1.7582,-1.7582,-1.7582,-1.7582,-1.7582,-1.7582,-1.7582,-1.7582,-1.7582,-1.7582,-1.7582,-1.7582,-1.7582,-1.7582,-1.7582,-1.7582,-1.7582,-1.7582,-1.7582,-1.7582,-1.7582,-1.7582,-1.7582,-1.7582,-1.7582,-1.7582,-1.7582,-1.7582,-1.7582,-1.7582,-1.7582,-1.7582,-1.7582,-1.7582,-1.7582,-1.7582,-1.7582,-1.7582,-1.7582,-1.7582,-1.7582,-1.7582,-1.7582,-1.7582,-1.7582,-1.7582,-1.7582,-1.7582,-1.7582,-1.7582,-1.7582,-1.7582,-1.7582,-1.7582,-1.7582,-1.7582,-1.7582,-1.7582,-0.9496,-1.0287,-1.1002,-1.1315,-1.1435,-1.1804,-1.2899,-1.2726,-1.2645,-1.3761,-1.4008,-1.4115,-1.4402,-1.5364,-1.6233,-1.6587,-1.7154,-1.7549,-1.7549,-1.7569,-1.7582,-1.7582,-1.7582,-1.7582,-1.7582,-1.7582,-1.7582,-1.7582,-1.7582,-1.7582,-1.7582,-1.7582,-1.7582,-1.7582,-1.7582,-1.7582,-1.7582,-1.7582,-1.7582,-1.7582,-1.7582,-1.7582,-1.7582,-1.7582,-1.7582,-1.7582,-1.7582,-1.7582,-1.7582,-1.7582,-1.7582,-1.7582,-1.7582,-1.7582,-1.7582,-1.7582,-1.7582,-1.7582,-1.7582,-1.7582,-1.7582,-1.7582,-1.7582,-1.7582,-1.7582,-1.7582,-1.7582,-1.7582,-1.7582,-1.7582,-1.7582,-1.7582,-1.7582,-1.7582,-1.7582,-1.7582,-1.7582,-1.7582,-1.7582,-1.7582,-1.7582,-1.7582,-1.7582,-1.7582,-1.7582,-1.7582,-1.7582,-1.7582,-1.7582,-1.7582,-1.7582,-1.7582,-1.7582,-1.7582,-1.7582,-1.7582,-1.7582,-1.7582,-1.7582,-1.7582,-1.7582,-1.7582,-1.7582,-1.7582,-1.7582,-1.7582,-1.7582,-1.7582,-1.7582,-1.7582,-1.7582,-1.7582,-0.9295,-1.0082,-1.0914,-1.1536,-1.1837,-1.2191,-1.3019,-1.3313,-1.3641,-1.4506,-1.4673,-1.4723,-1.501,-1.5578,-1.6152,-1.6627,-1.7048,-1.7427,-1.7555,-1.7582,-1.7582,-1.7582,-1.7582,-1.7582,-1.7582,-1.7582,-1.7582,-1.7582,-1.7582,-1.7582,-1.7582,-1.7582,-1.7582,-1.7582,-1.7582,-1.7582,-1.7582,-1.7582,-1.7582,-1.7582,-1.7582,-1.7582,-1.7582,-1.7582,-1.7582,-1.7582,-1.7582,-1.7582,-1.7582,-1.7582,-1.7582,-1.7582,-1.7582,-1.7582,-1.7582,-1.7582,-1.7582,-1.7582,-1.7582,-1.7582,-1.7582,-1.7582,-1.7582,-1.7582,-1.7582,-1.7582,-1.7582,-1.7582,-1.7582,-1.7582,-1.7582,-1.7582,-1.7582,-1.7582,-1.7582,-1.7582,-1.7582,-1.7582,-1.7582,-1.7582,-1.7582,-1.7582,-1.7582,-1.7582,-1.7582,-1.7582,-1.7582,-1.7582,-1.7582,-1.7582,-1.7582,-1.7582,-1.7582,-1.7582,-1.7582,-1.7582,-1.7582,-1.7582,-1.7582,-1.7582,-1.7582,-1.7582,-1.7582,-1.7582,-1.7582,-1.7582,-1.7582,-1.7582,-1.7582,-1.7582,-1.7582,-1.7582,-0.9295,-0.9991,-1.0801,-1.1685,-1.2084,-1.2512,-1.3307,-1.3728,-1.4188,-1.5057,-1.5237,-1.5297,-1.5498,-1.5845,-1.6239,-1.664,-1.7034,-1.7407,-1.7555,-1.7582,-1.7582,-1.7582,-1.7582,-1.7582,-1.7582,-1.7582,-1.7582,-1.7582,-1.7582,-1.7582,-1.7582,-1.7582,-1.7582,-1.7582,-1.7582,-1.7582,-1.7582,-1.7582,-1.7582,-1.7582,-1.7582,-1.7582,-1.7582,-1.7582,-1.7582,-1.7582,-1.7582,-1.7582,-1.7582,-1.7582,-1.7582,-1.7582,-1.7582,-1.7582,-1.7582,-1.7582,-1.7582,-1.7582,-1.7582,-1.7582,-1.7582,-1.7582,-1.7582,-1.7582,-1.7582,-1.7582,-1.7582,-1.7582,-1.7582,-1.7582,-1.7582,-1.7582,-1.7582,-1.7582,-1.7582,-1.7582,-1.7582,-1.7582,-1.7582,-1.7582,-1.7582,-1.7582,-1.7582,-1.7582,-1.7582,-1.7582,-1.7582,-1.7582,-1.7582,-1.7582,-1.7582,-1.7582,-1.7582,-1.7582,-1.7582,-1.7582,-1.7582,-1.7582,-1.7582,-1.7582,-1.7582,-1.7582,-1.7582,-1.7582,-1.7582,-1.7582,-1.7582,-1.7582,-1.7582,-1.7582,-1.7582,-1.7582,-0.9629,-1.0141,-1.0814,-1.1685,-1.2098,-1.2632,-1.3821,-1.3868,-1.4026,-1.5485,-1.5784,-1.5784,-1.5784,-1.6306,-1.67,-1.6707,-1.7194,-1.7582,-1.7582,-1.7582,-1.7582,-1.7582,-1.7582,-1.7582,-1.7582,-1.7582,-1.7582,-1.7582,-1.7582,-1.7582,-1.7582,-1.7582,-1.7582,-1.7582,-1.7582,-1.7582,-1.7582,-1.7582,-1.7582,-1.7582,-1.7582,-1.7582,-1.7582,-1.7582,-1.7582,-1.7582,-1.7582,-1.7582,-1.7582,-1.7582,-1.7582,-1.7582,-1.7582,-1.7582,-1.7582,-1.7582,-1.7582,-1.7582,-1.7582,-1.7582,-1.7582,-1.7582,-1.7582,-1.7582,-1.7582,-1.7582,-1.7582,-1.7582,-1.7582,-1.7582,-1.7582,-1.7582,-1.7582,-1.7582,-1.7582,-1.7582,-1.7582,-1.7582,-1.7582,-1.7582,-1.7582,-1.7582,-1.7582,-1.7582,-1.7582,-1.7582,-1.7582,-1.7582,-1.7582,-1.7582,-1.7582,-1.7582,-1.7582,-1.7582,-1.7582,-1.7582,-1.7582,-1.7582,-1.7582,-1.7582,-1.7582,-1.7582,-1.7582,-1.7582,-1.7582,-1.7582,-1.7582,-1.7582,-1.7582,-1.7582,-1.7582,-1.7582,-0.9449,-1.0279,-1.1283,-1.1785,-1.2757,-1.3707,-1.4262,-1.4489,-1.481,-1.5604,-1.5784,-1.5784,-1.5784,-1.6139,-1.6466,-1.6673,-1.7027,-1.74,-1.7555,-1.7582,-1.7582,-1.7582,-1.7582,-1.7582,-1.7582,-1.7582,-1.7582,-1.7582,-1.7582,-1.7582,-1.7582,-1.7582,-1.7582,-1.7582,-1.7582,-1.7582,-1.7582,-1.7582,-1.7582,-1.7582,-1.7582,-1.7582,-1.7582,-1.7582,-1.7582,-1.7582,-1.7582,-1.7582,-1.7582,-1.7582,-1.7582,-1.7582,-1.7582,-1.7582,-1.7582,-1.7582,-1.7582,-1.7582,-1.7582,-1.7582,-1.7582,-1.7582,-1.7582,-1.7582,-1.7582,-1.7582,-1.7582,-1.7582,-1.7582,-1.7582,-1.7582,-1.7582,-1.7582,-1.7582,-1.7582,-1.7582,-1.7582,-1.7582,-1.7582,-1.7582,-1.7582,-1.7582,-1.7582,-1.7582,-1.7582,-1.7582,-1.7582,-1.7582,-1.7582,-1.7582,-1.7582,-1.7582,-1.7582,-1.7582,-1.7582,-1.7582,-1.7582,-1.7582,-1.7582,-1.7582,-1.7582,-1.7582,-1.7582,-1.7582,-1.7582,-1.7582,-1.7582,-1.7582,-1.7582,-1.7582,-1.7582,-1.7582,-0.9629,-1.0555,-1.1651,-1.23,-1.3293,-1.4255,-1.4897,-1.5177,-1.5404,-1.5711,-1.5784,-1.5784,-1.5784,-1.6072,-1.6366,-1.666,-1.6954,-1.73,-1.7542,-1.7582,-1.7582,-1.7582,-1.7582,-1.7582,-1.7582,-1.7582,-1.7582,-1.7582,-1.7582,-1.7582,-1.7582,-1.7582,-1.7582,-1.7582,-1.7582,-1.7582,-1.7582,-1.7582,-1.7582,-1.7582,-1.7582,-1.7582,-1.7582,-1.7582,-1.7582,-1.7582,-1.7582,-1.7582,-1.7582,-1.7582,-1.7582,-1.7582,-1.7582,-1.7582,-1.7582,-1.7582,-1.7582,-1.7582,-1.7582,-1.7582,-1.7582,-1.7582,-1.7582,-1.7582,-1.7582,-1.7582,-1.7582,-1.7582,-1.7582,-1.7582,-1.7582,-1.7582,-1.7582,-1.7582,-1.7582,-1.7582,-1.7582,-1.7582,-1.7582,-1.7582,-1.7582,-1.7582,-1.7582,-1.7582,-1.7582,-1.7582,-1.7582,-1.7582,-1.7582,-1.7582,-1.7582,-1.7582,-1.7582,-1.7582,-1.7582,-1.7582,-1.7582,-1.7582,-1.7582,-1.7582,-1.7582,-1.7582,-1.7582,-1.7582,-1.7582,-1.7582,-1.7582,-1.7582,-1.7582,-1.7582,-1.7582,-1.7582,-0.9996,-1.0835,-1.1853,-1.2994,-1.3741,-1.4489,-1.5585,-1.5784,-1.5784,-1.5784,-1.5784,-1.5784,-1.5784,-1.6072,-1.6359,-1.662,-1.6914,-1.7259,-1.7502,-1.7542,-1.7555,-1.7582,-1.7582,-1.7582,-1.7582,-1.7582,-1.7582,-1.7582,-1.7582,-1.7582,-1.7582,-1.7582,-1.7582,-1.7582,-1.7582,-1.7582,-1.7582,-1.7582,-1.7582,-1.7582,-1.7635,-1.7635,-1.7582,-1.7582,-1.7582,-1.7582,-1.7582,-1.7582,-1.7582,-1.7582,-1.7582,-1.7582,-1.7582,-1.7582,-1.7582,-1.7582,-1.7582,-1.7582,-1.7582,-1.7582,-1.7582,-1.7582,-1.7582,-1.7582,-1.7582,-1.7582,-1.7582,-1.7582,-1.7582,-1.7582,-1.7582,-1.7582,-1.7582,-1.7582,-1.7582,-1.7582,-1.7582,-1.7582,-1.7582,-1.7582,-1.7582,-1.7582,-1.7582,-1.7582,-1.7582,-1.7582,-1.7582,-1.7582,-1.7582,-1.7582,-1.7582,-1.7582,-1.7582,-1.7582,-1.7582,-1.7582,-1.7582,-1.7582,-1.7582,-1.7582,-1.7582,-1.7582,-1.7582,-1.7582,-1.7582,-1.7582,-1.7582,-1.7582,-1.7582,-1.7582,-1.7582,-1.7582,-0.9612,-1.0563,-1.1807,-1.2746,-1.4045,-1.5237,-1.5718,-1.5784,-1.5784,-1.5784,-1.5784,-1.5784,-1.5784,-1.6072,-1.6342,-1.6359,-1.6607,-1.6907,-1.7253,-1.7293,-1.738,-1.7555,-1.7582,-1.7582,-1.7582,-1.7582,-1.7582,-1.7582,-1.7582,-1.7582,-1.7582,-1.7582,-1.7582,-1.7582,-1.7582,-1.7582,-1.7582,-1.7582,-1.7582,-1.7582,-1.7799,-1.7799,-1.7582,-1.7582,-1.7582,-1.7582,-1.7582,-1.7582,-1.7582,-1.7582,-1.7582,-1.7582,-1.7582,-1.7582,-1.7582,-1.7582,-1.7582,-1.7582,-1.7582,-1.7582,-1.7582,-1.7582,-1.7582,-1.7582,-1.7582,-1.7582,-1.7582,-1.7582,-1.7582,-1.7582,-1.7582,-1.7582,-1.7582,-1.7582,-1.7582,-1.7582,-1.7582,-1.7582,-1.7582,-1.7582,-1.7582,-1.7582,-1.7582,-1.7582,-1.7582,-1.7582,-1.7582,-1.7582,-1.7582,-1.7582,-1.7582,-1.7582,-1.7582,-1.7582,-1.7582,-1.7582,-1.7582,-1.7582,-1.7582,-1.7582,-1.7582,-1.7582,-1.7582,-1.7582,-1.7582,-1.7582,-1.7582,-1.7582,-1.7582,-1.7582,-1.7582,-1.7582,-0.9578,-1.0576,-1.1908,-1.3344,-1.4546,-1.5471,-1.5718,-1.5784,-1.5784,-1.5784,-1.5784,-1.5784,-1.5784,-1.5952,-1.6106,-1.6253,-1.64,-1.66,-1.6894,-1.6941,-1.6994,-1.7141,-1.7288,-1.7427,-1.7427,-1.7502,-1.7582,-1.7582,-1.7582,-1.7582,-1.7582,-1.7582,-1.7582,-1.7582,-1.7582,-1.7635,-1.7799,-1.7635,-1.7635,-1.7799,-1.7799,-1.7747,-1.7582,-1.7582,-1.7582,-1.7582,-1.7582,-1.7582,-1.7582,-1.7582,-1.7582,-1.7582,-1.7582,-1.7582,-1.7582,-1.7582,-1.7582,-1.7582,-1.7582,-1.7582,-1.7582,-1.7582,-1.7582,-1.7582,-1.7582,-1.7582,-1.7582,-1.7582,-1.7582,-1.7582,-1.7582,-1.7582,-1.7582,-1.7582,-1.7582,-1.7582,-1.7582,-1.7582,-1.7582,-1.7582,-1.7582,-1.7582,-1.7582,-1.7582,-1.7582,-1.7582,-1.7582,-1.7582,-1.7582,-1.7582,-1.7582,-1.7582,-1.7582,-1.7582,-1.7582,-1.7582,-1.7582,-1.7582,-1.7582,-1.7582,-1.7582,-1.7582,-1.7582,-1.7582,-1.7582,-1.7582,-1.7582,-1.7582,-1.7582,-1.7582,-1.7582,-1.7582,-0.9504,-1.0651,-1.2081,-1.4007,-1.4922,-1.5458,-1.5698,-1.5792,-1.5784,-1.5784,-1.5784,-1.5784,-1.5784,-1.5784,-1.5912,-1.6152,-1.6192,-1.6299,-1.6587,-1.6627,-1.6647,-1.67,-1.7018,-1.7199,-1.7199,-1.7467,-1.7635,-1.7582,-1.7635,-1.7635,-1.7582,-1.7635,-1.7687,-1.7687,-1.7687,-1.7799,-1.8016,-1.7799,-1.7747,-1.7911,-1.7694,-1.7635,-1.7687,-1.7635,-1.7582,-1.7582,-1.7582,-1.7582,-1.7582,-1.7582,-1.7582,-1.7582,-1.7582,-1.7582,-1.7582,-1.7582,-1.7582,-1.7582,-1.7582,-1.7582,-1.7582,-1.7582,-1.7582,-1.7582,-1.7582,-1.7582,-1.7582,-1.7582,-1.7582,-1.7582,-1.7582,-1.7582,-1.7582,-1.7582,-1.7582,-1.7582,-1.7582,-1.7582,-1.7582,-1.7582,-1.7582,-1.7582,-1.7582,-1.7582,-1.7582,-1.7582,-1.7582,-1.7582,-1.7582,-1.7582,-1.7582,-1.7582,-1.7582,-1.7582,-1.7582,-1.7582,-1.7582,-1.7582,-1.7582,-1.7582,-1.7582,-1.7582,-1.7582,-1.7582,-1.7582,-1.7582,-1.7582,-1.7582,-1.7582,-1.7582,-1.7582,-1.7582,-0.8776,-1.0458,-1.2382,-1.3613,-1.467,-1.5404,-1.5444,-1.5651,-1.5784,-1.5784,-1.5784,-1.5784,-1.5784,-1.5784,-1.5798,-1.5879,-1.5885,-1.5992,-1.6293,-1.6333,-1.6426,-1.6673,-1.7018,-1.7199,-1.7199,-1.763,-1.7859,-1.7635,-1.7799,-1.7859,-1.7635,-1.7799,-1.7964,-1.7964,-1.8167,-1.822,-1.8016,-1.7964,-1.7859,-1.7635,-1.7635,-1.7747,-1.7964,-1.7694,-1.7582,-1.7582,-1.7582,-1.7582,-1.7582,-1.7582,-1.7582,-1.7582,-1.7582,-1.7582,-1.7582,-1.7582,-1.7582,-1.7582,-1.7582,-1.7582,-1.7582,-1.7582,-1.7582,-1.7582,-1.7582,-1.7582,-1.7582,-1.7582,-1.7582,-1.7582,-1.7582,-1.7582,-1.7582,-1.7582,-1.7582,-1.7582,-1.7582,-1.7582,-1.7582,-1.7582,-1.7582,-1.7582,-1.7582,-1.7582,-1.7582,-1.7582,-1.7582,-1.7582,-1.7582,-1.7582,-1.7582,-1.7582,-1.7582,-1.7582,-1.7582,-1.7582,-1.7582,-1.7582,-1.7582,-1.7582,-1.7582,-1.7582,-1.7582,-1.7582,-1.7582,-1.7582,-1.7582,-1.7582,-1.7582,-1.7582,-1.7582,-1.7582,-0.9366,-1.0868,-1.2414,-1.3355,-1.4235,-1.499,-1.5317,-1.5491,-1.5631,-1.5751,-1.5784,-1.5784,-1.5784,-1.5784,-1.5784,-1.5784,-1.5784,-1.5872,-1.6005,-1.6025,-1.6072,-1.6199,-1.648,-1.6827,-1.7096,-1.7541,-1.7787,-1.7845,-1.8062,-1.8115,-1.7852,-1.8062,-1.822,-1.822,-1.8318,-1.8318,-1.822,-1.8069,-1.7852,-1.7582,-1.7747,-1.7799,-1.7747,-1.7635,-1.7582,-1.7582,-1.7582,-1.7582,-1.7582,-1.7582,-1.7582,-1.7582,-1.7582,-1.7582,-1.7582,-1.7582,-1.7582,-1.7582,-1.7582,-1.7582,-1.7582,-1.7582,-1.7582,-1.7582,-1.7582,-1.7582,-1.7582,-1.7582,-1.7582,-1.7582,-1.7582,-1.7582,-1.7582,-1.7582,-1.7582,-1.7582,-1.7582,-1.7582,-1.7582,-1.7582,-1.7582,-1.7582,-1.7582,-1.7582,-1.7582,-1.7582,-1.7582,-1.7582,-1.7582,-1.7582,-1.7582,-1.7582,-1.7582,-1.7582,-1.7582,-1.7582,-1.7582,-1.7582,-1.7582,-1.7582,-1.7582,-1.7582,-1.7582,-1.7582,-1.7582,-1.7582,-1.7582,-1.7582,-1.7582,-1.7582,-1.7582,-1.7582,-0.9666,-1.0839,-1.1929,-1.281,-1.3695,-1.4455,-1.4967,-1.5245,-1.5458,-1.5671,-1.5731,-1.5784,-1.5784,-1.5784,-1.5784,-1.5784,-1.5784,-1.5784,-1.5784,-1.5784,-1.5784,-1.5784,-1.6147,-1.6562,-1.6934,-1.7505,-1.7874,-1.7991,-1.8335,-1.8377,-1.8122,-1.8377,-1.8534,-1.8534,-1.8586,-1.8586,-1.8534,-1.822,-1.7957,-1.7687,-1.7905,-1.7859,-1.7582,-1.7582,-1.7582,-1.7582,-1.7582,-1.7582,-1.7582,-1.7582,-1.7582,-1.7582,-1.7582,-1.7582,-1.7582,-1.7582,-1.7582,-1.7582,-1.7582,-1.7582,-1.7582,-1.7582,-1.7582,-1.7582,-1.7582,-1.7582,-1.7582,-1.7582,-1.7582,-1.7582,-1.7582,-1.7582,-1.7582,-1.7582,-1.7582,-1.7582,-1.7582,-1.7582,-1.7582,-1.7582,-1.7582,-1.7582,-1.7582,-1.7582,-1.7582,-1.7582,-1.7582,-1.7582,-1.7582,-1.7582,-1.7582,-1.7582,-1.7582,-1.7582,-1.7582,-1.7582,-1.7582,-1.7582,-1.7582,-1.7582,-1.7582,-1.7582,-1.7582,-1.7582,-1.7582,-1.7582,-1.7582,-1.7582,-1.7582,-1.7582,-1.7582,-1.7582,-0.8939,-0.9763,-1.0657,-1.1714,-1.2913,-1.389,-1.4191,-1.4862,-1.5398,-1.5418,-1.5638,-1.5784,-1.5784,-1.5784,-1.5784,-1.5784,-1.5784,-1.5784,-1.5784,-1.5784,-1.5784,-1.5784,-1.634,-1.6683,-1.6703,-1.7732,-1.8244,-1.8046,-1.8535,-1.8705,-1.8422,-1.8698,-1.8869,-1.8869,-1.9123,-1.9123,-1.8869,-1.8541,-1.822,-1.7964,-1.7964,-1.7859,-1.7582,-1.7582,-1.7582,-1.7582,-1.7582,-1.7582,-1.7582,-1.7582,-1.7582,-1.7582,-1.7582,-1.7582,-1.7582,-1.7582,-1.7582,-1.7582,-1.7582,-1.7582,-1.7582,-1.7582,-1.7582,-1.7582,-1.7582,-1.7582,-1.7582,-1.7582,-1.7582,-1.7582,-1.7582,-1.7582,-1.7582,-1.7582,-1.7582,-1.7582,-1.7582,-1.7582,-1.7582,-1.7582,-1.7582,-1.7582,-1.7582,-1.7582,-1.7582,-1.7582,-1.7582,-1.7582,-1.7582,-1.7582,-1.7582,-1.7582,-1.7582,-1.7582,-1.7582,-1.7582,-1.7582,-1.7582,-1.7582,-1.7582,-1.7582,-1.7582,-1.7582,-1.7582,-1.7582,-1.7582,-1.7582,-1.7582,-1.7582,-1.7582,-1.7582,-1.7582,-0.8884,-0.9748,-1.0668,-1.1606,-1.2616,-1.3525,-1.4044,-1.4506,-1.489,-1.5077,-1.5204,-1.5331,-1.5518,-1.5705,-1.5784,-1.5784,-1.5784,-1.5784,-1.5784,-1.5927,-1.5981,-1.5825,-1.6306,-1.6738,-1.694,-1.7456,-1.7817,-1.7917,-1.829,-1.8405,-1.8095,-1.8549,-1.8818,-1.8818,-1.9118,-1.9175,-1.8921,-1.8757,-1.8489,-1.8016,-1.8167,-1.8003,-1.7582,-1.7582,-1.7582,-1.7582,-1.7582,-1.7582,-1.7582,-1.7582,-1.7582,-1.7582,-1.7582,-1.7582,-1.7582,-1.7582,-1.7582,-1.7582,-1.7582,-1.7582,-1.7582,-1.7582,-1.7582,-1.7582,-1.7582,-1.7582,-1.7582,-1.7582,-1.7582,-1.7582,-1.7582,-1.7582,-1.7582,-1.7582,-1.7582,-1.7582,-1.7582,-1.7582,-1.7582,-1.7582,-1.7582,-1.7582,-1.7582,-1.7582,-1.7582,-1.7582,-1.7582,-1.7582,-1.7582,-1.7582,-1.7582,-1.7582,-1.7582,-1.7582,-1.7582,-1.7582,-1.7582,-1.7582,-1.7582,-1.7582,-1.7582,-1.7582,-1.7582,-1.7582,-1.7582,-1.7582,-1.7582,-1.7582,-1.7582,-1.7582,-1.7582,-1.7582,-0.8731,-0.9538,-1.0416,-1.138,-1.2159,-1.2876,-1.3756,-1.407,-1.4335,-1.4736,-1.4941,-1.5068,-1.5217,-1.5484,-1.5718,-1.5764,-1.5784,-1.5832,-1.5927,-1.6076,-1.617,-1.6069,-1.6447,-1.6815,-1.7026,-1.7332,-1.762,-1.7836,-1.8149,-1.8207,-1.8066,-1.8411,-1.8672,-1.8789,-1.9001,-1.9118,-1.9026,-1.9026,-1.881,-1.8286,-1.8377,-1.816,-1.7747,-1.7635,-1.7582,-1.7582,-1.7582,-1.7582,-1.7582,-1.7582,-1.7582,-1.7582,-1.7582,-1.7582,-1.7582,-1.7582,-1.7582,-1.7582,-1.7582,-1.7582,-1.7582,-1.7582,-1.7582,-1.7582,-1.7582,-1.7582,-1.7582,-1.7582,-1.7582,-1.7582,-1.7582,-1.7582,-1.7582,-1.7582,-1.7582,-1.7582,-1.7582,-1.7582,-1.7582,-1.7582,-1.7582,-1.7582,-1.7582,-1.7582,-1.7582,-1.7582,-1.7582,-1.7582,-1.7582,-1.7582,-1.7582,-1.7582,-1.7582,-1.7582,-1.7582,-1.7582,-1.7582,-1.7582,-1.7582,-1.7582,-1.7582,-1.7582,-1.7582,-1.7582,-1.7582,-1.7582,-1.7582,-1.7582,-1.7582,-1.7582,-1.7582,-1.7642,0.0,0.0,0.0,-1.0982,-1.1417,-1.1974,-1.3318,-1.3601,-1.3733,-1.4369,-1.4716,-1.4961,-1.4988,-1.5177,-1.5464,-1.5711,-1.5771,-1.5879,-1.6177,-1.6224,-1.6312,-1.6588,-1.6831,-1.7026,-1.6979,-1.7483,-1.7801,-1.7801,-1.8094,-1.8277,-1.8277,-1.8284,-1.8438,-1.8774,-1.8789,-1.895,-1.9324,-1.9279,-1.9175,-1.8921,-1.8534,-1.8272,-1.7964,-1.7747,-1.7582,-1.7582,-1.7582,-1.7582,-1.7582,-1.7582,-1.7582,-1.7582,-1.7582,-1.7582,-1.7582,-1.7582,-1.7582,-1.7582,-1.7582,-1.7582,-1.7582,-1.7582,-1.7582,-1.7582,-1.7582,-1.7582,-1.7582,-1.7582,-1.7582,-1.7582,-1.7582,-1.7582,-1.7582,-1.7582,-1.7582,-1.7582,-1.7582,-1.7582,-1.7582,-1.7582,-1.7582,-1.7582,-1.7582,-1.7582,-1.7582,-1.7582,-1.7582,-1.7582,-1.7582,-1.7582,-1.7582,-1.7582,-1.7582,-1.7582,-1.7582,-1.7582,-1.7582,-1.7582,-1.7582,-1.7582,-1.7582,-1.7582,-1.7582,-1.7582,-1.7582,-1.7582,-1.7582,-1.7582,-1.7582,-1.7582,-1.7595,-1.7762,-0.8665,0.0,0.0,0.0,0.0,0.0,-1.2485,-1.2656,-1.2906,-1.3673,-1.3788,-1.3888,-1.4522,-1.471,-1.4856,-1.5157,-1.5558,-1.5879,-1.6177,-1.6359,-1.6541,-1.6581,-1.6965,-1.7153,-1.7026,-1.7279,-1.7465,-1.7465,-1.7498,-1.7596,-1.7596,-1.7823,-1.8211,-1.8774,-1.8789,-1.895,-1.9324,-1.9279,-1.9175,-1.8921,-1.8534,-1.8272,-1.7964,-1.7747,-1.7582,-1.7582,-1.7582,-1.7582,-1.7582,-1.7582,-1.7582,-1.7582,-1.7582,-1.7582,-1.7582,-1.7582,-1.7582,-1.7582,-1.7582,-1.7582,-1.7582,-1.7582,-1.7582,-1.7582,-1.7582,-1.7582,-1.7582,-1.7582,-1.7582,-1.7582,-1.7582,-1.7582,-1.7582,-1.7582,-1.7582,-1.7582,-1.7582,-1.7582,-1.7582,-1.7582,-1.7582,-1.7582,-1.7582,-1.7582,-1.7582,-1.7582,-1.7582,-1.7582,-1.7582,-1.7582,-1.7582,-1.7582,-1.7582,-1.7582,-1.7582,-1.7582,-1.7582,-1.7582,-1.7582,-1.7582,-1.7582,-1.7582,-1.7582,-1.7582,-1.7582,-1.7582,-1.7582,-1.7582,-1.7582,-1.7589,-1.7816,-1.8076,-0.903,-0.9532,-1.0067,-1.0475,0.0,0.0,-1.2308,-1.2298,-1.2378,-1.324,-1.3327,-1.34,-1.3999,-1.4255,-1.4436,-1.473,-1.5164,-1.565,-1.6106,-1.6411,-1.6676,-1.6864,-1.7138,-1.7239,-1.716,-1.7239,-1.7279,-1.7279,-1.7279,-1.7279,-1.7279,-1.7508,-1.7845,-1.8364,-1.8379,-1.8606,-1.9067,-1.9074,-1.9096,-1.9078,-1.875,-1.8541,-1.8338,-1.7957,-1.7747,-1.7747,-1.7635,-1.7582,-1.7635,-1.7747,-1.7687,-1.7582,-1.7582,-1.7582,-1.7582,-1.7582,-1.7582,-1.7582,-1.7582,-1.7582,-1.7582,-1.7582,-1.7582,-1.7582,-1.7582,-1.7582,-1.7582,-1.7582,-1.7582,-1.7582,-1.7582,-1.7582,-1.7582,-1.7582,-1.7582,-1.7582,-1.7582,-1.7582,-1.7582,-1.7582,-1.7582,-1.7582,-1.7582,-1.7582,-1.7582,-1.7582,-1.7582,-1.7582,-1.7582,-1.7582,-1.7582,-1.7582,-1.7582,-1.7582,-1.7582,-1.7582,-1.7582,-1.7582,-1.7582,-1.7582,-1.7582,-1.7582,-1.7582,-1.7582,-1.7582,-1.7582,-1.7582,-1.7582,-1.7582,-1.7589,-1.7903,-1.8203,-0.9459,-0.9857,-1.0321,-1.0782,-1.0827,0.0,-1.2308,-1.2208,-1.2058,-1.2893,-1.3039,-1.308,-1.344,-1.3761,-1.4035,-1.4329,-1.4649,-1.5156,-1.593,-1.6309,-1.6664,-1.7083,-1.7206,-1.7274,-1.7274,-1.7264,-1.7279,-1.7279,-1.7279,-1.7279,-1.7279,-1.7279,-1.7432,-1.7801,-1.7816,-1.8108,-1.873,-1.8774,-1.8935,-1.922,-1.9004,-1.8921,-1.8876,-1.8338,-1.8016,-1.7964,-1.7747,-1.7635,-1.7635,-1.7905,-1.7859,-1.7635,-1.7635,-1.7635,-1.7635,-1.7635,-1.7582,-1.7582,-1.7582,-1.7582,-1.7582,-1.7582,-1.7582,-1.7582,-1.7582,-1.7582,-1.7582,-1.7582,-1.7582,-1.7582,-1.7582,-1.7582,-1.7582,-1.7582,-1.7582,-1.7582,-1.7582,-1.7582,-1.7582,-1.7582,-1.7582,-1.7582,-1.7582,-1.7582,-1.7582,-1.7582,-1.7582,-1.7582,-1.7582,-1.7582,-1.7582,-1.7582,-1.7582,-1.7582,-1.7582,-1.7582,-1.7582,-1.7582,-1.7582,-1.7582,-1.7582,-1.7582,-1.7582,-1.7582,-1.7582,-1.7582,-1.7582,-1.7582,-1.7602,-1.7642,-1.7949,-1.8257,-0.977,-1.0241,-1.0735,-1.0374,-1.0955,0.0,-1.141,-1.1423,-1.163,-1.2044,-1.1944,-1.2011,-1.2817,-1.3012,-1.3146,-1.3414,-1.3915,-1.4565,-1.5353,-1.5708,-1.5982,-1.6206,-1.6701,-1.6991,-1.6991,-1.7179,-1.7279,-1.7279,-1.7279,-1.7279,-1.7279,-1.7279,-1.7432,-1.7801,-1.7816,-1.7999,-1.8394,-1.8657,-1.8818,-1.8884,-1.8903,-1.8921,-1.8869,-1.8489,-1.822,-1.8016,-1.7964,-1.7911,-1.7911,-1.7964,-1.7964,-1.7911,-1.7911,-1.7911,-1.7911,-1.7687,-1.7582,-1.7582,-1.7582,-1.7582,-1.7582,-1.7582,-1.7582,-1.7582,-1.7582,-1.7582,-1.7582,-1.7582,-1.7582,-1.7582,-1.7582,-1.7582,-1.7582,-1.7582,-1.7582,-1.7582,-1.7582,-1.7582,-1.7582,-1.7582,-1.7582,-1.7582,-1.7582,-1.7582,-1.7582,-1.7582,-1.7582,-1.7582,-1.7582,-1.7582,-1.7582,-1.7582,-1.7582,-1.7582,-1.7582,-1.7582,-1.7582,-1.7582,-1.7582,-1.7582,-1.7582,-1.7582,-1.7582,-1.7582,-1.7582,-1.7582,-1.7582,-1.7582,-1.7709,-1.7909,-1.8263,-1.8564,-1.0311,-1.0472,-1.0775,-1.0775,-1.1102,0.0,0.0,-1.165,-1.177,-1.2254,-1.1993,-1.1906,-1.265,-1.2663,-1.2663,-1.2933,-1.348,-1.3956,-1.4223,-1.5106,-1.5761,-1.5842,-1.6335,-1.6616,-1.6481,-1.6863,-1.7157,-1.7271,-1.7279,-1.7279,-1.7279,-1.7279,-1.7399,-1.7567,-1.7574,-1.7728,-1.8057,-1.8218,-1.8467,-1.8789,-1.8803,-1.8919,-1.9071,-1.8803,-1.8489,-1.822,-1.822,-1.8122,-1.8016,-1.8115,-1.8279,-1.8443,-1.8279,-1.8122,-1.7964,-1.7859,-1.7694,-1.7582,-1.7582,-1.7582,-1.7582,-1.7582,-1.7582,-1.7582,-1.7582,-1.7582,-1.7582,-1.7582,-1.7582,-1.7582,-1.7582,-1.7582,-1.7582,-1.7582,-1.7582,-1.7582,-1.7582,-1.7582,-1.7582,-1.7582,-1.7582,-1.7582,-1.7582,-1.7582,-1.7582,-1.7582,-1.7582,-1.7582,-1.7582,-1.7582,-1.7582,-1.7582,-1.7582,-1.7582,-1.7582,-1.7582,-1.7582,-1.7582,-1.7582,-1.7582,-1.7582,-1.7582,-1.7582,-1.7582,-1.7582,-1.7582,-1.7582,-1.7736,-1.7896,-1.8002,-1.8504,-1.8784,-1.0882,-1.0841,-1.1002,-1.1269,-1.1383,-1.153,0.0,0.0,0.0,-1.2455,-1.2147,-1.198,-1.2516,-1.2331,-1.2245,-1.2643,-1.3066,-1.328,-1.3146,-1.44,-1.5372,-1.5435,-1.5899,-1.6191,-1.5985,-1.6431,-1.6806,-1.7121,-1.7143,-1.7172,-1.723,-1.725,-1.7279,-1.7279,-1.7279,-1.741,-1.7721,-1.7786,-1.8108,-1.8694,-1.876,-1.8957,-1.9272,-1.9078,-1.881,-1.8482,-1.8482,-1.8377,-1.8174,-1.8436,-1.8698,-1.8921,-1.8534,-1.8325,-1.8181,-1.8023,-1.7852,-1.7687,-1.7635,-1.7582,-1.7582,-1.7582,-1.7582,-1.7582,-1.7582,-1.7582,-1.7582,-1.7582,-1.7582,-1.7582,-1.7582,-1.7582,-1.7582,-1.7582,-1.7582,-1.7582,-1.7582,-1.7582,-1.7582,-1.7582,-1.7582,-1.7582,-1.7582,-1.7582,-1.7582,-1.7582,-1.7582,-1.7582,-1.7582,-1.7582,-1.7582,-1.7582,-1.7582,-1.7582,-1.7582,-1.7582,-1.7582,-1.7582,-1.7582,-1.7582,-1.7582,-1.7582,-1.7582,-1.7582,-1.7582,-1.7609,-1.7669,-1.7983,-1.8075,-1.8089,-1.8677,-1.8951,-1.1483,-1.171,-1.1937,-1.1223,-1.2011,-1.2639,-1.1416,0.0,-1.2124,-1.167,0.0,-1.1577,-1.1946,0.0,0.0,-1.2265,-1.2412,-1.2538,-1.2804,-1.3533,-1.4132,-1.4405,-1.5184,-1.5749,-1.5878,-1.5958,-1.6148,-1.6499,-1.6521,-1.6646,-1.6939,-1.7172,-1.7279,-1.7279,-1.7279,-1.7301,-1.7337,-1.7669,-1.7999,-1.8357,-1.865,-1.8957,-1.9279,-1.9279,-1.9123,-1.8817,-1.8817,-1.8817,-1.8817,-1.8817,-1.9026,-1.9227,-1.8639,-1.8534,-1.8712,-1.8181,-1.7964,-1.7911,-1.7687,-1.7582,-1.7582,-1.7582,-1.7582,-1.7582,-1.7582,-1.7582,-1.7582,-1.7582,-1.7582,-1.7582,-1.7582,-1.7582,-1.7582,-1.7582,-1.7582,-1.7582,-1.7582,-1.7582,-1.7582,-1.7582,-1.7582,-1.7582,-1.7582,-1.7582,-1.7582,-1.7582,-1.7582,-1.7582,-1.7582,-1.7582,-1.7582,-1.7582,-1.7582,-1.7582,-1.7582,-1.7582,-1.7582,-1.7582,-1.7582,-1.7582,-1.7582,-1.7582,-1.7582,-1.7582,-1.7582,-1.7716,-1.7942,-1.8297,-1.8437,-1.845,-1.8771,-1.9065,-1.1549,-1.1807,-1.2143,-1.1631,-1.2078,-1.2466,-1.1893,-1.1777,-1.187,-1.2138,0.0,0.0,0.0,0.0,0.0,0.0,-1.2191,-1.2345,-1.2472,-1.3054,-1.3557,-1.38,-1.4493,-1.5136,-1.5557,-1.5593,-1.584,-1.6375,-1.6206,-1.6323,-1.6873,-1.7027,-1.7135,-1.7279,-1.7279,-1.7279,-1.7279,-1.7465,-1.7699,-1.8021,-1.816,-1.8496,-1.8994,-1.8994,-1.8949,-1.8928,-1.9078,-1.9026,-1.8921,-1.8921,-1.9078,-1.9279,-1.8862,-1.8757,-1.8869,-1.8384,-1.8115,-1.7964,-1.7694,-1.7582,-1.7582,-1.7582,-1.7582,-1.7582,-1.7582,-1.7582,-1.7582,-1.7582,-1.7582,-1.7582,-1.7582,-1.7582,-1.7582,-1.7582,-1.7582,-1.7582,-1.7582,-1.7582,-1.7582,-1.7582,-1.7582,-1.7582,-1.7582,-1.7582,-1.7582,-1.7582,-1.7582,-1.7582,-1.7582,-1.7582,-1.7582,-1.7582,-1.7582,-1.7582,-1.7582,-1.7582,-1.7582,-1.7582,-1.7582,-1.7582,-1.7582,-1.7582,-1.7582,-1.7582,-1.7762,-1.7916,-1.7995,-1.8517,-1.8744,-1.8751,-1.9045,-1.9252,-1.2051,-1.2281,-1.2551,-1.1921,-1.2074,-1.2301,-1.2007,-1.1797,-1.1824,-1.2429,-1.2124,0.0,0.0,0.0,-1.1643,-1.198,0.0,-1.2211,-1.2291,-1.2717,-1.3142,-1.345,-1.4095,-1.4692,-1.5199,-1.5097,-1.5328,-1.606,-1.5826,-1.5928,-1.6609,-1.6807,-1.7005,-1.7186,-1.7235,-1.7279,-1.7279,-1.7279,-1.7494,-1.7816,-1.7816,-1.8108,-1.8657,-1.8752,-1.8818,-1.8896,-1.919,-1.9175,-1.9026,-1.9026,-1.9123,-1.9279,-1.9078,-1.9026,-1.8974,-1.8646,-1.8384,-1.8069,-1.7799,-1.7635,-1.7582,-1.7582,-1.7582,-1.7582,-1.7582,-1.7582,-1.7582,-1.7582,-1.7582,-1.7582,-1.7582,-1.7582,-1.7582,-1.7582,-1.7582,-1.7582,-1.7582,-1.7582,-1.7582,-1.7582,-1.7582,-1.7582,-1.7582,-1.7582,-1.7582,-1.7582,-1.7582,-1.7582,-1.7582,-1.7582,-1.7582,-1.7582,-1.7582,-1.7582,-1.7582,-1.7582,-1.7582,-1.7582,-1.7582,-1.7582,-1.7582,-1.7582,-1.7582,-1.7582,-1.7836,-1.8035,-1.8115,-1.8677,-1.8965,-1.9052,-1.9265,-1.9424,-1.3251,-1.348,-1.3543,-1.1832,-1.2084,-1.2499,-1.1323,-1.1677,-1.2204,-1.1986,-1.2362,-1.2656,-1.2351,-1.2058,-1.1986,-1.2238,-1.2094,0.0,0.0,-1.2466,-1.2817,-1.3341,-1.4036,-1.4596,-1.4885,-1.4392,-1.4428,-1.5345,-1.5119,-1.5214,-1.5913,-1.6573,-1.6903,-1.6917,-1.7165,-1.7279,-1.7279,-1.7279,-1.7494,-1.7816,-1.7816,-1.7991,-1.8328,-1.8642,-1.8796,-1.8825,-1.914,-1.9279,-1.9279,-1.9279,-1.9272,-1.9279,-1.9272,-1.9279,-1.9279,-1.8974,-1.8653,-1.837,-1.8069,-1.7799,-1.7582,-1.7582,-1.7582,-1.7582,-1.7582,-1.7582,-1.7582,-1.7582,-1.7582,-1.7582,-1.7582,-1.7582,-1.7582,-1.7582,-1.7582,-1.7582,-1.7582,-1.7582,-1.7582,-1.7582,-1.7582,-1.7582,-1.7582,-1.7582,-1.7582,-1.7582,-1.7582,-1.7582,-1.7582,-1.7582,-1.7582,-1.7582,-1.7582,-1.7582,-1.7582,-1.7582,-1.7582,-1.7582,-1.7582,-1.7582,-1.7582,-1.7582,-1.7582,-1.7582,-1.7836,-1.8135,-1.8477,-1.8778,-1.9072,-1.9352,-1.9366,-1.9424,-1.3687,-1.401,-1.4102,-1.2825,-1.2718,-1.2709,-1.1815,-1.165,-1.175,-1.1886,-1.2214,-1.2418,-1.2318,-1.2064,-1.2,-1.2258,-1.2058,-1.194,0.0,-1.2134,-1.2332,-1.2754,-1.3627,-1.4187,-1.4296,-1.4304,-1.4523,-1.5024,-1.4966,-1.5185,-1.5877,-1.6309,-1.6675,-1.6895,-1.7165,-1.7279,-1.7279,-1.7279,-1.7337,-1.7447,-1.7447,-1.7614,-1.7984,-1.8094,-1.8379,-1.8796,-1.8906,-1.9074,-1.9279,-1.9279,-1.9279,-1.9279,-1.9279,-1.9279,-1.9279,-1.9026,-1.8817,-1.8653,-1.8174,-1.7799,-1.7582,-1.7582,-1.7582,-1.7582,-1.7582,-1.7582,-1.7582,-1.7582,-1.7582,-1.7582,-1.7582,-1.7582,-1.7582,-1.7582,-1.7582,-1.7582,-1.7582,-1.7582,-1.7582,-1.7582,-1.7582,-1.7582,-1.7582,-1.7582,-1.7582,-1.7582,-1.7582,-1.7582,-1.7582,-1.7582,-1.7582,-1.7582,-1.7582,-1.7582,-1.7582,-1.7582,-1.7582,-1.7582,-1.7582,-1.7582,-1.7582,-1.7582,-1.7675,-1.7883,-1.8183,-1.8484,-1.8778,-1.9072,-1.9265,-1.9424,-1.9424,-1.9424,-1.4179,-1.4465,-1.4522,-1.3467,-1.3261,-1.3096,-1.2314,-1.2097,-1.2138,-1.2226,-1.2398,-1.2604,-1.2825,-1.2402,-1.2154,-1.2523,-1.2291,-1.2027,0.0,-1.2185,-1.2375,-1.2537,-1.3201,-1.3726,-1.3885,-1.4062,-1.4309,-1.4776,-1.4758,-1.5057,-1.5709,-1.6038,-1.6397,-1.6719,-1.6989,-1.7216,-1.7279,-1.7279,-1.7279,-1.7279,-1.7279,-1.7388,-1.7647,-1.7765,-1.805,-1.846,-1.8686,-1.8906,-1.9111,-1.9228,-1.9279,-1.9279,-1.9279,-1.9279,-1.9279,-1.913,-1.8914,-1.8653,-1.8174,-1.7799,-1.7582,-1.7582,-1.7582,-1.7582,-1.7582,-1.7582,-1.7582,-1.7582,-1.7582,-1.7582,-1.7582,-1.7582,-1.7582,-1.7582,-1.7582,-1.7582,-1.7582,-1.7582,-1.7582,-1.7582,-1.7582,-1.7582,-1.7582,-1.7582,-1.7582,-1.7582,-1.7582,-1.7582,-1.7582,-1.7582,-1.7582,-1.7582,-1.7582,-1.7582,-1.7582,-1.7582,-1.7582,-1.7582,-1.7582,-1.7582,-1.7582,-1.7582,-1.7675,-1.7822,-1.8283,-1.8584,-1.8771,-1.9172,-1.9424,-1.9424,-1.9424,-1.9424]},{"header":{"parameterUnit":"m.s-1","parameterCategory":1,"la1":30.6,"la2":29.2853,"lo1":-89.7004,"lo2":-87.6739,"dy":0.0162,"dx":0.0183,"nx":112,"ny":82,"refTime":"2024-08-27T06:00:00:Z","depth":0,"parameterNumber":3,"parameterNumberName":"V-component_of_WINDS"},"data":[0.0,0.0,0.0,0.0,0.0,0.0,0.0,0.0,0.0,0.0,0.0,0.0,0.0,0.0,0.0,0.0,0.0,0.0,0.0,0.0,0.0,0.0,0.0,0.0,0.0,0.0,0.0,0.0,0.0,0.0,0.0,0.0,0.0,0.0,0.0,0.0,0.0,0.0,0.0,0.0,0.0,0.0,0.0,0.0,0.0,0.0,0.0,0.0,0.0,0.0,0.0,0.0,0.0,0.0,0.0,0.0,0.0,0.0,0.0,0.0,0.0,0.0,0.0,0.0,0.0,0.0,0.0,0.0,0.0,0.0,0.0,0.0,0.0,0.0,0.0,0.0,0.0,0.0,0.0,0.0,0.0,0.0,0.0,0.0,0.0,0.0,0.0,0.0,0.0,0.0,3.0041,3.2267,3.3944,3.4295,3.2831,3.3124,3.2049,2.8889,0.0,0.0,0.0,0.0,0.0,0.0,0.0,0.0,0.0,0.0,0.0,0.0,0.0,0.0,0.0,0.0,0.0,0.0,0.0,0.0,0.0,0.0,0.0,0.0,0.0,0.0,0.0,0.0,0.0,0.0,0.0,0.0,0.0,0.0,0.0,0.0,0.0,0.0,0.0,0.0,0.0,0.0,0.0,0.0,0.0,0.0,0.0,0.0,0.0,0.0,0.0,0.0,0.0,0.0,0.0,0.0,0.0,0.0,0.0,0.0,0.0,0.0,0.0,0.0,0.0,0.0,0.0,0.0,0.0,0.0,0.0,0.0,0.0,0.0,0.0,0.0,0.0,0.0,0.0,0.0,0.0,0.0,0.0,0.0,0.0,0.0,0.0,0.0,0.0,0.0,0.0,0.0,0.0,0.0,0.0,0.0,0.0,0.0,0.0,0.0,0.0,0.0,0.0,0.0,2.9163,3.3807,3.5193,3.5699,3.5426,3.4177,3.2557,3.0547,0.0,0.0,0.0,0.0,0.0,0.0,0.0,0.0,0.0,0.0,0.0,0.0,0.0,0.0,0.0,0.0,0.0,0.0,0.0,0.0,0.0,0.0,0.0,0.0,0.0,0.0,0.0,0.0,0.0,0.0,0.0,0.0,0.0,0.0,0.0,0.0,0.0,0.0,0.0,0.0,0.0,0.0,0.0,0.0,0.0,0.0,0.0,0.0,0.0,0.0,0.0,0.0,0.0,0.0,0.0,0.0,0.0,0.0,0.0,0.0,0.0,0.0,0.0,0.0,0.0,0.0,0.0,0.0,0.0,0.0,0.0,0.0,0.0,0.0,0.0,0.0,0.0,0.0,0.0,0.0,0.0,0.0,0.0,0.0,0.0,0.0,0.0,0.0,0.0,0.0,0.0,0.0,0.0,0.0,0.0,0.0,0.0,0.0,0.0,0.0,0.0,0.0,0.0,2.9279,3.1213,3.4998,3.5758,3.5992,3.5992,3.4392,3.2655,3.0917,2.7971,0.0,0.0,0.0,0.0,0.0,0.0,0.0,0.0,0.0,0.0,0.0,0.0,0.0,0.0,0.0,0.0,0.0,0.0,0.0,0.0,0.0,0.0,0.0,0.0,0.0,0.0,0.0,0.0,0.0,0.0,0.0,0.0,0.0,0.0,0.0,0.0,0.0,0.0,0.0,0.0,0.0,0.0,0.0,0.0,0.0,0.0,0.0,0.0,0.0,0.0,0.0,0.0,0.0,0.0,0.0,0.0,0.0,0.0,0.0,0.0,0.0,0.0,0.0,0.0,0.0,0.0,0.0,0.0,0.0,0.0,0.0,0.0,0.0,0.0,0.0,0.0,0.0,0.0,0.0,0.0,0.0,0.0,0.0,0.0,0.0,0.0,0.0,0.0,0.0,0.0,0.0,0.0,0.0,0.0,0.0,0.0,0.0,0.0,0.0,0.0,0.0,0.0,3.2026,3.3314,3.5713,3.5986,3.589,3.5719,3.4099,3.2362,3.0626,2.7288,0.0,0.0,0.0,0.0,0.0,0.0,0.0,0.0,0.0,0.0,0.0,0.0,0.0,0.0,0.0,0.0,0.0,0.0,0.0,0.0,0.0,0.0,0.0,0.0,0.0,0.0,0.0,0.0,0.0,0.0,0.0,0.0,0.0,0.0,0.0,0.0,0.0,0.0,0.0,0.0,0.0,0.0,0.0,0.0,0.0,0.0,0.0,0.0,0.0,0.0,0.0,0.0,0.0,0.0,0.0,0.0,0.0,0.0,0.0,0.0,0.0,0.0,0.0,0.0,0.0,0.0,0.0,0.0,0.0,0.0,0.0,0.0,0.0,0.0,0.0,0.0,0.0,0.0,0.0,0.0,0.0,0.0,0.0,0.0,0.0,0.0,0.0,0.0,0.0,0.0,0.0,0.0,0.0,0.0,0.0,0.0,0.0,0.0,0.0,0.0,0.0,0.0,3.181,3.3977,3.5715,3.591,3.5605,3.4841,3.3183,3.1466,2.9788,2.6428,0.0,0.0,0.0,0.0,0.0,0.0,0.0,0.0,0.0,0.0,0.0,0.0,0.0,0.0,0.0,0.0,0.0,0.0,0.0,0.0,0.0,0.0,0.0,0.0,0.0,0.0,0.0,0.0,0.0,0.0,0.0,0.0,0.0,0.0,0.0,0.0,0.0,0.0,0.0,0.0,0.0,0.0,0.0,0.0,0.0,0.0,0.0,0.0,0.0,0.0,0.0,0.0,0.0,0.0,0.0,0.0,0.0,0.0,0.0,0.0,0.0,0.0,0.0,0.0,0.0,0.0,0.0,0.0,0.0,0.0,0.0,0.0,0.0,0.0,0.0,0.0,0.0,0.0,0.0,0.0,0.0,0.0,0.0,0.0,0.0,0.0,0.0,0.0,0.0,0.0,0.0,0.0,0.0,0.0,0.0,0.0,0.0,0.0,0.0,0.0,0.0,0.0,3.1631,3.3446,3.5651,3.5904,3.5558,3.471,3.3571,3.1957,2.9674,0.0,0.0,0.0,0.0,0.0,0.0,0.0,0.0,0.0,0.0,0.0,0.0,0.0,0.0,0.0,0.0,0.0,0.0,0.0,0.0,0.0,0.0,0.0,0.0,0.0,0.0,0.0,0.0,0.0,0.0,0.0,0.0,0.0,0.0,0.0,0.0,0.0,0.0,0.0,0.0,0.0,0.0,0.0,0.0,0.0,0.0,0.0,0.0,0.0,0.0,0.0,0.0,0.0,0.0,0.0,0.0,0.0,0.0,0.0,0.0,0.0,0.0,0.0,0.0,0.0,0.0,0.0,0.0,0.0,0.0,0.0,0.0,0.0,0.0,0.0,0.0,0.0,0.0,0.0,0.0,0.0,0.0,0.0,0.0,0.0,0.0,0.0,0.0,0.0,0.0,0.0,0.0,0.0,0.0,0.0,0.0,0.0,0.0,0.0,0.0,0.0,0.0,3.0241,3.1779,3.3359,3.566,3.5894,3.5432,3.4272,3.3448,3.1742,2.8858,0.0,0.0,0.0,0.0,0.0,0.0,0.0,0.0,0.0,0.0,0.0,0.0,0.0,0.0,0.0,0.0,0.0,0.0,0.0,0.0,0.0,0.0,0.0,0.0,0.0,0.0,0.0,0.0,0.0,0.0,0.0,0.0,0.0,0.0,0.0,0.0,0.0,0.0,0.0,0.0,0.0,0.0,0.0,0.0,0.0,0.0,0.0,0.0,0.0,0.0,0.0,0.0,0.0,0.0,0.0,0.0,0.0,0.0,0.0,0.0,0.0,0.0,0.0,0.0,0.0,0.0,0.0,0.0,0.0,0.0,0.0,0.0,0.0,0.0,0.0,0.0,0.0,0.0,0.0,0.0,0.0,0.0,0.0,0.0,0.0,0.0,0.0,0.0,0.0,0.0,0.0,0.0,0.0,0.0,0.0,0.0,0.0,0.0,0.0,0.0,0.0,0.0,3.0269,3.2211,3.3965,3.5707,3.5901,3.5194,3.3451,3.2574,3.0626,0.0,0.0,0.0,0.0,0.0,0.0,0.0,0.0,0.0,0.0,0.0,0.0,0.0,0.0,0.0,0.0,0.0,0.0,0.0,0.0,0.0,0.0,0.0,0.0,0.0,0.0,0.0,0.0,0.0,0.0,0.0,0.0,0.0,0.0,0.0,0.0,0.0,0.0,0.0,0.0,0.0,0.0,0.0,0.0,0.0,0.0,0.0,0.0,0.0,0.0,0.0,0.0,0.0,0.0,0.0,0.0,0.0,0.0,0.0,0.0,0.0,0.0,0.0,0.0,0.0,0.0,0.0,0.0,0.0,0.0,0.0,0.0,0.0,0.0,0.0,0.0,0.0,0.0,0.0,0.0,0.0,0.0,0.0,0.0,0.0,0.0,0.0,0.0,0.0,0.0,0.0,0.0,0.0,0.0,0.0,0.0,0.0,0.0,0.0,0.0,0.0,0.0,0.0,3.026,3.222,3.3949,3.564,3.5834,3.5142,3.3443,3.3074,3.1471,2.8028,0.0,0.0,0.0,0.0,0.0,0.0,0.0,0.0,0.0,0.0,0.0,0.0,0.0,0.0,0.0,0.0,0.0,0.0,0.0,0.0,0.0,0.0,0.0,0.0,0.0,0.0,0.0,0.0,0.0,0.0,0.0,0.0,0.0,0.0,0.0,0.0,0.0,0.0,0.0,0.0,0.0,0.0,0.0,0.0,0.0,0.0,0.0,0.0,0.0,0.0,0.0,0.0,0.0,0.0,0.0,0.0,0.0,0.0,0.0,0.0,0.0,0.0,0.0,0.0,0.0,0.0,0.0,0.0,0.0,0.0,0.0,0.0,0.0,0.0,0.0,0.0,0.0,0.0,0.0,0.0,0.0,0.0,0.0,0.0,0.0,0.0,0.0,0.0,0.0,0.0,0.0,0.0,0.0,0.0,0.0,0.0,0.0,0.0,0.0,0.0,0.0,0.0,3.0266,3.2225,3.3934,3.562,3.5795,3.5115,3.3448,3.3292,3.1689,2.7921,0.0,0.0,0.0,0.0,0.0,0.0,0.0,0.0,0.0,0.0,0.0,0.0,0.0,0.0,0.0,0.0,0.0,0.0,0.0,0.0,0.0,0.0,0.0,0.0,0.0,0.0,0.0,0.0,0.0,0.0,0.0,0.0,0.0,0.0,0.0,0.0,0.0,0.0,0.0,0.0,0.0,0.0,0.0,0.0,0.0,0.0,0.0,0.0,0.0,0.0,0.0,0.0,0.0,0.0,0.0,0.0,0.0,0.0,0.0,0.0,0.0,0.0,0.0,0.0,0.0,0.0,0.0,0.0,0.0,0.0,0.0,0.0,0.0,0.0,0.0,0.0,0.0,0.0,0.0,0.0,0.0,0.0,0.0,0.0,0.0,0.0,0.0,0.0,0.0,0.0,0.0,0.0,0.0,0.0,0.0,0.0,0.0,0.0,0.0,0.0,0.0,0.0,3.0266,3.2283,3.4012,3.562,3.5795,3.5154,3.3546,3.3332,3.1564,2.7508,0.0,0.0,0.0,0.0,0.0,0.0,0.0,0.0,0.0,0.0,0.0,0.0,0.0,0.0,0.0,0.0,0.0,0.0,0.0,0.0,0.0,0.0,0.0,0.0,0.0,0.0,0.0,0.0,0.0,0.0,0.0,0.0,0.0,0.0,0.0,0.0,0.0,0.0,0.0,0.0,0.0,0.0,0.0,0.0,0.0,0.0,0.0,0.0,0.0,0.0,0.0,0.0,0.0,0.0,0.0,0.0,0.0,0.0,0.0,0.0,2.6039,2.5015,0.0,0.0,0.0,0.0,0.0,0.0,0.0,0.0,0.0,0.0,0.0,0.0,0.0,0.0,0.0,0.0,0.0,0.0,0.0,0.0,0.0,0.0,0.0,0.0,0.0,0.0,0.0,0.0,0.0,0.0,0.0,0.0,0.0,0.0,0.0,0.0,0.0,0.0,0.0,0.0,3.0344,3.2772,3.4633,3.5698,3.5795,3.5387,3.4323,3.3662,3.2322,3.0033,2.7838,0.0,0.0,0.0,0.0,0.0,0.0,0.0,0.0,0.0,0.0,0.0,0.0,0.0,0.0,0.0,0.0,0.0,0.0,0.0,0.0,0.0,0.0,0.0,0.0,0.0,0.0,0.0,0.0,0.0,0.0,0.0,0.0,0.0,0.0,0.0,0.0,0.0,0.0,0.0,0.0,0.0,0.0,0.0,0.0,0.0,0.0,0.0,0.0,0.0,0.0,0.0,0.0,0.0,0.0,0.0,0.0,0.0,0.0,0.0,2.9132,2.7936,0.0,0.0,0.0,0.0,0.0,0.0,0.0,0.0,0.0,0.0,0.0,0.0,0.0,0.0,0.0,0.0,0.0,0.0,0.0,0.0,0.0,0.0,0.0,0.0,0.0,0.0,0.0,0.0,0.0,0.0,0.0,0.0,0.0,0.0,0.0,0.0,0.0,0.0,0.0,0.0,3.0956,3.3164,3.4814,3.5668,3.5745,3.5415,3.4561,3.4128,3.2967,3.0835,2.9055,0.0,0.0,0.0,0.0,0.0,0.0,0.0,0.0,0.0,0.0,0.0,0.0,0.0,0.0,0.0,0.0,0.0,0.0,0.0,0.0,0.0,0.0,0.0,0.0,0.0,0.0,0.0,0.0,0.0,0.0,0.0,0.0,0.0,0.0,0.0,0.0,0.0,0.0,0.0,0.0,0.0,0.0,0.0,0.0,0.0,0.0,0.0,0.0,0.0,0.0,0.0,0.0,0.0,3.3248,3.4462,3.6511,3.5745,3.5709,3.6039,3.2551,3.1647,3.247,3.0055,0.0,0.0,0.0,0.0,0.0,0.0,0.0,0.0,0.0,0.0,0.0,0.0,0.0,0.0,0.0,0.0,0.0,0.0,0.0,0.0,0.0,0.0,3.0882,3.2415,3.2669,3.1855,2.9237,0.0,0.0,0.0,0.0,0.0,0.0,0.0,0.0,0.0,0.0,0.0,3.1618,3.3533,3.4967,3.5631,3.5708,3.5432,3.4773,3.4583,3.3606,3.1507,3.0397,2.9146,0.0,0.0,0.0,0.0,0.0,0.0,0.0,0.0,0.0,0.0,0.0,0.0,0.0,0.0,0.0,0.0,0.0,0.0,0.0,0.0,0.0,0.0,0.0,0.0,0.0,0.0,0.0,0.0,0.0,0.0,0.0,0.0,2.3338,2.4908,0.0,0.0,0.0,0.0,0.0,0.0,0.0,0.0,0.0,0.0,0.0,0.0,0.0,3.2193,3.3654,3.5223,3.6492,3.7486,3.8234,3.8782,3.9116,3.8975,3.8583,3.7948,3.7376,0.0,3.5152,3.3303,0.0,0.0,0.0,0.0,0.0,0.0,0.0,0.0,0.0,0.0,0.0,0.0,0.0,0.0,0.0,0.0,0.0,0.0,0.0,0.0,0.0,0.0,3.5127,3.6096,3.5757,3.5292,3.5597,3.2141,2.8702,2.778,2.7074,2.6276,0.0,0.0,0.0,0.0,0.0,0.0,3.1754,3.4022,3.5587,3.5689,3.5708,3.567,3.5548,3.4894,3.4371,3.4017,3.2471,3.1133,3.0149,2.8609,0.0,0.0,0.0,0.0,0.0,0.0,0.0,0.0,0.0,0.0,0.0,0.0,0.0,0.0,0.0,0.0,0.0,0.0,0.0,0.0,0.0,0.0,0.0,0.0,0.0,0.0,0.0,0.0,0.0,2.3412,2.4962,2.6198,2.6444,2.633,0.0,0.0,0.0,0.0,0.0,0.0,0.0,0.0,0.0,3.4898,3.5344,3.6352,3.8021,3.9252,4.0061,4.0454,4.1311,4.1732,4.1732,4.1732,4.1538,4.117,4.1133,4.0688,3.9769,3.6629,3.5117,3.4633,0.0,0.0,0.0,0.0,3.2912,3.3052,3.3896,3.3954,3.3606,3.3504,0.0,0.0,0.0,0.0,0.0,0.0,0.0,3.3044,3.44,3.5592,3.6769,3.8086,3.7741,3.7337,3.8219,3.6239,3.3645,3.1407,3.1026,3.018,2.7385,2.7725,0.0,0.0,0.0,3.305,3.3921,3.5392,3.6375,3.6375,3.5973,3.5702,3.5702,3.5383,3.4962,3.4478,3.3751,3.2966,3.2098,3.0416,2.8927,0.0,0.0,0.0,0.0,0.0,0.0,0.0,0.0,0.0,0.0,0.0,0.0,0.0,0.0,0.0,0.0,0.0,0.0,0.0,0.0,0.0,0.0,0.0,0.0,0.0,0.0,0.0,0.0,2.5141,2.6653,2.7744,2.8628,2.8806,0.0,0.0,0.0,0.0,0.0,0.0,3.4415,3.5287,3.6823,3.9207,3.9265,3.9982,4.1455,4.2094,4.2515,4.2747,4.3394,4.3704,4.3704,4.3704,4.3588,4.3375,4.3311,4.3305,4.3034,3.9663,3.8164,3.7892,3.7015,3.6531,3.6362,3.6589,3.6531,3.6459,3.7331,3.7485,3.7234,3.6802,3.6086,3.5137,3.3887,0.0,0.0,0.0,0.0,3.5446,3.7195,3.7644,3.802,3.9472,3.9338,3.905,3.9694,3.9314,3.7903,3.4754,3.4622,3.3949,3.0563,3.1052,0.0,3.1047,3.3291,3.5259,3.5916,3.6729,3.7232,3.7232,3.6497,3.6013,3.6013,3.5822,3.5426,3.4763,3.4778,3.4425,3.3538,3.2259,3.0961,2.9659,0.0,0.0,0.0,0.0,0.0,0.0,0.0,0.0,0.0,0.0,0.0,0.0,0.0,0.0,0.0,0.0,0.0,0.0,0.0,0.0,0.0,0.0,0.0,0.0,0.0,0.0,0.0,0.0,0.0,3.0305,3.1216,0.0,0.0,0.0,0.0,3.2884,3.4492,3.6198,3.7947,3.8872,4.0137,4.1848,4.1906,4.2352,4.3257,4.3252,4.3666,4.4479,4.4524,4.4543,4.4543,4.4543,4.4098,4.3305,4.3305,4.3305,4.3227,4.2189,4.13,4.0526,3.9661,3.8802,3.8175,3.9009,3.8783,3.8194,3.9067,3.8824,3.8276,3.9056,3.8727,3.7986,3.7909,3.6767,0.0,0.0,3.6767,3.7179,3.8926,3.9371,3.9597,4.0526,4.07,4.0681,4.0739,4.0649,3.9805,3.7226,3.6748,3.6458,3.5477,0.0,3.5433,3.5375,3.6168,3.6787,3.6826,3.7593,3.8135,3.8135,3.7367,3.6845,3.6845,3.6129,3.569,3.5632,3.5632,3.5245,3.438,3.426,3.3045,3.0586,2.9601,0.0,0.0,0.0,0.0,0.0,0.0,0.0,0.0,0.0,0.0,0.0,0.0,0.0,0.0,0.0,0.0,0.0,0.0,0.0,0.0,0.0,0.0,0.0,0.0,0.0,0.0,0.0,0.0,3.2938,3.4341,0.0,3.4007,3.5146,3.6081,3.6385,3.8485,4.0022,4.0647,4.1512,4.2499,4.3666,4.3705,4.4112,4.4944,4.4918,4.5066,4.5376,4.5362,4.5374,4.5374,4.5374,4.52,4.491,4.491,4.491,4.4871,4.4562,4.3634,4.2376,4.2067,4.1764,4.1519,4.1841,4.1745,4.1538,4.1841,4.1738,4.1525,4.1835,4.1738,4.1487,4.1487,4.1061,4.0649,4.0894,4.0578,4.032,4.0899,4.0629,4.0281,4.059,4.0668,4.0822,4.1394,4.1496,4.12,4.0287,3.9245,3.8048,3.6645,3.6877,3.705,3.649,3.761,3.8505,3.8511,3.8781,3.8987,3.903,3.8257,3.7729,3.7729,3.6961,3.6477,3.6477,3.5994,3.5303,3.4432,3.3852,3.2866,3.1395,3.0016,2.8178,0.0,0.0,0.0,0.0,0.0,0.0,0.0,0.0,0.0,0.0,0.0,0.0,0.0,0.0,0.0,0.0,0.0,0.0,0.0,0.0,0.0,0.0,0.0,0.0,0.0,3.1344,3.3313,3.473,3.6643,3.751,3.6633,3.8335,3.948,3.948,4.159,4.2879,4.2879,4.3672,4.4407,4.4987,4.5007,4.5258,4.5787,4.5807,4.5807,4.5807,4.5793,4.5805,4.5805,4.5771,4.5764,4.5764,4.5764,4.5764,4.5764,4.5764,4.5107,4.4102,4.413,4.4149,4.4135,4.4135,4.3935,4.3631,4.3361,4.3264,4.3264,4.3264,4.3264,4.3264,4.3264,4.3264,4.3257,4.3209,4.2816,4.2391,4.2343,4.1912,4.1475,4.1475,4.1475,4.1649,4.222,4.2328,4.2294,4.2294,4.1191,3.979,3.8324,3.8556,3.8748,3.817,3.9076,3.9804,3.9792,3.9792,3.9824,3.987,3.911,3.8491,3.8182,3.7382,3.677,3.648,3.5718,3.4993,3.4413,3.3552,3.2681,3.1811,2.9863,2.8459,2.7644,0.0,0.0,0.0,0.0,0.0,0.0,0.0,0.0,0.0,0.0,0.0,0.0,0.0,0.0,0.0,0.0,0.0,0.0,0.0,0.0,0.0,0.0,0.0,3.2027,3.3542,3.4962,3.5752,3.8081,3.9284,3.8446,4.0609,4.2086,4.2086,4.3666,4.4632,4.4632,4.5374,4.58,4.58,4.58,4.58,4.58,4.58,4.58,4.58,4.5803,4.5807,4.5781,4.5723,4.5708,4.5708,4.5708,4.5708,4.5708,4.568,4.57,4.5688,4.5771,4.5798,4.5807,4.5807,4.5229,4.4315,4.3543,4.3266,4.3246,4.3246,4.3246,4.3246,4.3246,4.3246,4.3246,4.3246,4.322,4.3208,4.3227,4.3189,4.3189,4.3196,4.3196,4.3196,4.3235,4.3173,4.3131,4.3131,4.2499,4.1699,4.0839,4.0684,4.0665,4.0646,4.0646,0.0,4.0607,4.0588,4.0588,4.0595,3.9906,3.9096,3.826,3.7417,3.656,3.5691,3.485,3.4364,3.4345,3.3546,3.2671,3.1806,2.9375,2.8498,2.9285,0.0,0.0,0.0,0.0,0.0,0.0,0.0,0.0,0.0,0.0,0.0,0.0,0.0,0.0,0.0,0.0,0.0,0.0,0.0,0.0,0.0,3.2991,3.4662,3.4672,3.6662,3.8432,3.9306,4.1099,4.2157,4.1919,4.3092,4.3885,4.3885,4.4863,4.5474,4.5474,4.5638,4.5719,4.5719,4.5719,4.5719,4.5719,4.5719,4.5719,4.5739,4.5731,4.5723,4.5723,4.5708,4.5708,4.5708,4.5708,4.5708,4.568,4.549,4.5408,4.5426,4.5645,4.5731,4.5723,4.5723,4.5442,4.5015,4.4803,4.4595,4.4437,4.4437,4.4437,4.4437,4.4437,4.4437,4.4427,4.4423,4.3973,4.3517,4.3656,4.3264,4.2879,4.3085,4.3137,4.3291,4.3869,4.3976,4.3968,4.3968,4.3783,4.3387,4.2541,4.2406,4.2194,4.1578,4.1463,4.1266,4.068,4.0603,4.0598,4.0607,4.0395,4.0163,3.9939,3.846,3.719,3.6385,3.4786,3.3698,3.3269,3.3019,3.2506,3.1665,3.0978,3.0122,0.0,0.0,0.0,0.0,0.0,0.0,0.0,0.0,0.0,0.0,0.0,0.0,0.0,0.0,0.0,0.0,0.0,0.0,0.0,0.0,0.0,0.0,3.6306,3.7926,3.8659,3.9496,4.0499,4.1706,4.3034,4.3846,4.3846,4.4606,4.5102,4.5102,4.551,4.5758,4.5758,4.5715,4.5708,4.5708,4.5708,4.5708,4.5708,4.5708,4.5708,4.5708,4.5711,4.5695,4.5695,4.566,4.5651,4.5651,4.5651,4.5651,4.5643,4.5493,4.5428,4.5428,0.0,0.0,0.0,0.0,4.5216,4.5101,4.5101,4.4984,4.487,4.487,4.487,4.487,4.487,4.4939,4.5036,4.5041,4.4734,4.4466,4.4585,4.4279,4.3943,4.4117,4.4143,4.4278,4.4739,4.4836,4.4836,4.4836,4.4836,0.0,4.422,4.3566,4.2931,4.2431,4.2335,4.2189,4.1713,4.1328,4.1112,4.1096,4.0776,4.041,4.0082,3.9053,0.0,0.0,0.0,3.3971,3.2816,3.2675,0.0,0.0,0.0,0.0,0.0,3.1642,0.0,0.0,3.1954,3.1703,0.0,0.0,0.0,0.0,0.0,0.0,0.0,0.0,0.0,0.0,0.0,0.0,0.0,0.0,0.0,0.0,3.9598,4.1212,4.2853,4.1971,4.1685,4.3213,4.4193,4.4715,4.4675,4.5321,4.5723,4.5708,4.5648,4.5605,4.5605,4.5632,0.0,0.0,0.0,4.5692,4.5692,4.5692,4.5692,4.5692,4.569,4.5693,4.5693,4.5631,4.5594,4.5594,4.5594,4.5577,4.5559,4.5513,4.5466,4.5381,4.5093,4.4973,4.4973,4.4891,4.4831,4.4807,4.4763,0.0,0.0,4.4701,4.4701,4.4701,4.4701,4.4872,4.5063,4.5063,4.5232,4.5429,4.5448,4.5457,4.5485,4.5531,4.5522,4.5541,4.5586,4.5577,4.5568,4.5586,4.5594,4.5594,4.5594,4.4374,4.3355,4.3258,4.3239,4.3201,4.3104,4.2431,4.1942,4.1942,4.1162,0.0,3.965,3.9354,3.8553,3.699,3.6151,3.4937,3.3197,3.3053,3.2963,3.2849,3.2953,3.372,3.5181,3.5293,3.6205,3.7683,3.319,3.2749,0.0,0.0,0.0,0.0,0.0,0.0,0.0,0.0,0.0,0.0,0.0,0.0,0.0,0.0,0.0,3.8476,4.0606,4.2467,4.3489,4.3356,4.3359,4.3964,4.494,4.5457,4.5195,4.5303,4.5314,4.5095,4.5069,4.5055,4.5055,4.5203,4.5303,4.5303,4.5522,4.562,4.562,4.562,4.562,4.562,4.5612,0.0,4.5622,4.5614,4.5594,4.5594,4.5594,4.5485,4.5253,4.5041,4.4701,4.4388,4.5171,4.5466,4.5429,4.5211,4.4996,4.4763,4.4546,4.4332,4.4151,4.4151,4.4151,4.4151,4.4151,4.4196,0.0,4.4236,4.4279,4.436,4.4585,4.4618,4.4751,4.5161,4.5107,4.5074,4.5504,4.5429,4.5342,4.5559,4.5594,4.5594,4.5594,4.5325,4.4883,4.4162,4.4066,4.3835,4.3181,4.2951,4.2854,4.2854,4.2066,4.1489,4.1335,3.9726,3.8384,3.7584,3.6776,3.6166,3.5782,3.6405,3.6416,3.5728,3.6411,3.6599,3.6289,3.7101,3.8036,3.8999,3.7026,3.6386,0.0,0.0,0.0,0.0,0.0,0.0,0.0,0.0,0.0,0.0,0.0,3.3321,3.5335,0.0,3.9357,4.1035,4.2202,4.3189,4.4085,4.4175,4.4239,4.4513,4.5026,4.5275,4.5116,4.5093,4.5028,4.4905,4.4884,4.4915,4.5041,4.5159,4.5253,4.54,4.5522,4.555,4.541,4.5522,4.5522,4.54,4.54,4.54,4.54,4.5253,4.5201,4.5201,4.5201,4.5118,4.4996,4.4868,4.4637,4.4457,4.4996,4.5041,4.4788,4.465,4.4506,4.4374,4.425,4.4106,4.4005,4.4005,4.4005,4.4005,4.4005,4.4075,4.4192,4.4192,4.4308,4.443,4.4559,4.4599,4.4663,4.495,4.4903,4.4861,4.5129,4.5096,4.5041,4.5161,4.518,4.5159,4.5159,4.5118,4.5069,4.4974,4.496,4.4806,4.4393,4.3844,4.3493,4.3493,4.2632,4.1896,4.1485,3.9706,3.8476,3.8176,3.728,3.6737,3.6737,3.7083,3.7093,3.6767,3.7176,3.7471,3.7656,3.8155,3.9067,4.0321,3.9672,3.9414,0.0,0.0,0.0,0.0,0.0,0.0,0.0,3.1094,3.1927,3.4563,3.5635,3.6698,3.8677,3.9807,4.1143,4.3308,4.3548,4.3732,4.4423,4.4498,4.4546,4.4719,4.482,4.4867,4.4808,4.4799,4.4776,4.4726,4.4676,4.4814,4.519,4.5266,4.5453,4.584,4.5736,4.5562,4.5355,4.5409,4.5332,4.5118,4.5118,4.5118,4.5107,4.4903,4.4788,4.4788,4.4739,4.4714,4.4714,4.4682,4.4637,4.4637,4.4637,4.4374,4.402,4.4064,4.4079,4.4079,4.402,4.4005,4.4005,4.4005,4.4005,4.4005,4.4005,4.4151,4.4318,4.4318,4.4484,4.4637,4.4637,4.4637,4.465,4.4688,4.4663,4.465,4.4739,4.4714,4.4688,4.4751,4.4714,4.4676,4.4676,4.4637,4.4781,4.5313,4.5419,4.5429,4.5429,4.462,4.4067,4.4067,4.3149,4.2196,4.1328,4.0075,3.9299,3.9236,3.8478,3.7965,3.7795,3.7785,3.7785,3.7792,3.7943,3.8482,3.9397,3.9397,4.0121,4.1493,4.1431,4.1628,2.8569,2.9289,3.0207,3.1671,3.1511,3.2172,0.0,3.6511,3.6169,3.8861,4.0081,4.0658,4.0643,4.1968,4.3083,4.3081,4.3665,4.4129,4.424,4.4143,4.4079,4.4091,4.4585,4.4769,4.4474,4.4452,4.436,4.4106,4.4094,4.4445,4.5255,4.5452,4.5923,4.6727,4.6234,4.5949,4.5912,4.524,4.4872,4.4837,4.4837,4.4837,4.4837,4.48,4.4788,4.4776,4.4546,4.4438,4.443,4.4196,4.4094,4.4094,4.4094,4.4048,4.4017,4.4279,4.436,4.4318,4.4094,4.4005,4.4005,4.4005,4.4005,4.4005,4.4005,4.4036,4.4048,4.4048,4.4064,4.4094,4.4094,4.4094,4.4136,4.4303,4.4181,4.4106,4.4533,4.4443,4.4332,4.4585,4.4624,4.4624,4.4624,4.4593,4.4637,4.4695,4.4763,4.4788,4.4788,4.4737,4.4704,4.4704,4.3891,4.293,4.1901,4.1862,4.1772,4.1549,4.1649,4.1377,4.0681,4.1297,4.1335,4.0643,4.1351,4.1779,4.1897,4.1897,4.2003,4.2192,4.2181,4.2272,3.1233,3.2224,3.3051,3.4235,3.5281,3.664,3.8922,3.9137,3.9309,4.1027,4.1961,4.2398,4.2258,4.3154,4.3844,4.3718,4.3927,4.4085,4.4085,4.4039,4.4005,4.4005,4.4221,4.4322,4.4177,4.4181,4.4326,4.4727,4.4748,4.5196,4.6183,4.6319,4.66,4.7127,4.6895,4.6673,4.6524,4.6346,4.6176,4.6016,4.6016,4.5752,4.5262,4.5134,4.4805,4.4336,4.4206,4.4181,4.4166,4.4048,4.4005,4.4005,4.4005,4.4005,4.4002,4.4121,4.4181,4.4151,4.4033,4.4005,4.4005,4.4005,4.4005,4.4005,4.4005,4.4005,4.3989,4.3942,4.3945,4.3929,4.3881,4.3883,4.3897,4.3989,4.3929,4.3899,4.4075,4.4048,4.4005,4.4106,4.4072,4.4023,4.4023,4.3992,4.3962,4.3962,4.4337,4.4663,4.4688,4.4585,4.4452,4.4365,4.3587,4.2908,4.2449,4.2113,4.1846,4.1722,4.1833,4.175,4.1394,4.1713,4.1779,4.1556,4.1895,4.2139,4.2302,4.2302,4.2548,4.3002,4.2995,4.3315,3.2757,3.4081,3.5289,3.6303,3.8263,4.0077,4.0679,4.1155,4.1743,4.2662,4.3203,4.3498,4.3483,4.3882,4.4184,4.4135,4.407,4.4005,4.4005,4.4005,4.4005,4.4005,4.4005,4.4005,4.4005,4.4005,4.4358,4.5231,4.5287,4.5826,4.7068,4.7124,4.7324,4.7721,4.7528,4.7314,4.712,4.7089,4.699,4.6802,4.6802,4.6465,4.5832,4.5472,4.4952,4.4358,4.4098,4.4005,4.4005,4.4005,4.4005,4.4005,4.4005,4.4005,4.4005,4.4005,4.4005,4.4005,4.4005,4.3989,4.3974,4.3974,4.3958,4.3926,4.3926,4.3926,4.3945,4.3899,4.3883,4.3867,4.382,4.3804,4.3788,4.3753,4.3736,4.3736,4.3719,4.3719,4.3719,4.3719,4.3634,4.3565,4.3565,4.3531,4.3515,4.3515,4.3962,4.4341,4.4443,4.4303,4.4166,4.402,4.3485,4.3132,4.3132,4.2593,4.2259,4.2259,4.2259,4.2166,4.1943,4.2129,4.2232,4.2164,4.237,4.2578,4.2762,4.2762,4.3063,4.3641,4.3636,4.4027,3.2163,3.3974,3.6235,3.7831,3.9521,4.1179,4.2744,4.3123,4.3339,4.4086,4.4244,4.4252,4.4177,4.4199,4.4169,4.402,4.4005,4.4005,4.4005,4.4005,4.4005,4.4005,4.4005,4.4005,4.4005,4.4005,4.4358,4.5231,4.5287,4.5992,4.7588,4.7681,4.8034,4.8832,4.8088,4.7681,4.7681,4.6917,4.6527,4.651,4.651,4.6492,4.6455,4.5674,4.5287,4.5212,4.4376,4.4005,4.4005,4.4005,4.4005,4.4005,4.4005,4.4005,4.4005,4.4005,4.4005,4.4005,4.4005,4.3961,4.3897,4.3897,4.3867,4.3804,4.3804,4.3804,4.3804,4.3804,4.3804,4.3804,4.3804,4.3804,4.3771,4.3634,4.3599,4.3582,4.3513,4.3515,4.3515,4.3515,4.3515,4.3496,4.3496,4.3515,4.3515,4.3515,4.3513,4.36,4.3802,4.3929,4.402,4.4005,4.3986,4.3968,4.3968,4.3949,4.3931,4.3931,4.3931,4.3578,4.2797,4.3503,4.3559,4.2794,4.3537,4.3946,4.3962,4.3962,4.3962,4.398,4.398,4.4129,3.4819,3.6407,3.7946,4.0139,4.1467,4.2548,4.3675,4.3918,4.4011,4.4244,4.3807,4.3371,4.3342,4.3316,4.3255,4.3206,4.3652,4.4005,4.4005,4.4506,4.4655,4.4079,4.4971,4.5454,4.4915,4.4339,4.4581,4.5992,4.6104,4.6791,4.8407,4.85,4.863,4.889,4.8649,4.85,4.85,4.824,4.8091,4.8091,4.7553,4.7293,4.7274,4.6457,4.6104,4.6048,4.5212,4.4859,4.4822,4.4246,4.4005,4.4005,4.4005,4.4005,4.4005,4.4005,4.4005,4.3989,4.3961,4.3913,4.3881,4.3851,4.382,4.3804,4.3804,4.3804,4.3788,4.3684,4.3667,4.3651,4.36,4.36,4.3583,4.3531,4.3531,4.3532,4.3496,4.3515,4.3515,4.3515,4.3515,4.3515,4.3515,4.3515,4.3532,4.3548,4.3565,4.3582,4.3651,4.3767,4.3867,4.3867,4.3897,4.3929,4.3929,4.3974,4.4005,4.4005,4.4005,4.3875,4.3615,4.3856,4.3875,4.3596,4.3812,4.3961,4.4005,4.3961,4.3961,4.3986,4.4177,4.4221,3.6745,3.8259,3.958,4.1758,4.2875,4.3598,4.4143,4.4255,4.4166,4.3819,4.3271,4.2794,4.2497,4.2396,4.2463,4.2742,4.3225,4.3782,4.4376,4.4952,4.5194,4.4934,4.5844,4.6273,4.5718,4.5145,4.5403,4.6828,4.6921,4.7516,4.8834,4.8909,4.8909,4.8909,4.8909,4.8909,4.8909,4.8909,4.8909,4.889,4.8389,4.8129,4.811,4.7259,4.6906,4.6884,4.6034,4.5681,4.5677,4.5119,4.4695,4.4385,4.4385,4.4387,4.4318,4.4022,4.4114,4.4318,4.4022,4.3913,4.3899,4.382,4.3771,4.3719,4.3703,4.3686,4.3669,4.36,4.3565,4.3548,4.3515,4.3515,4.3515,4.3515,4.3515,4.3515,4.3515,4.3515,4.3515,4.3515,4.3515,4.3515,4.3515,4.3515,4.3496,4.3548,4.3565,4.36,4.3667,4.3754,4.3804,4.3804,4.3853,4.3867,4.3867,4.3897,4.3945,4.3958,4.3958,4.3974,4.4005,4.4005,4.4005,4.4005,4.3961,4.3961,4.4005,4.3961,4.3961,4.3986,4.4181,4.4221,3.7916,3.953,4.1101,4.2683,4.3673,4.427,4.4143,4.4128,4.3852,4.2868,4.263,4.2352,4.1553,4.1479,4.1776,4.2556,4.2816,4.3485,4.5082,4.5361,4.5695,4.6401,4.6568,4.6554,4.6379,4.6397,4.6802,4.7684,4.7703,4.8037,4.8836,4.8891,4.8909,4.8909,4.8909,4.8891,4.8891,4.8891,4.8873,4.8873,4.8873,4.8873,4.8854,4.8025,4.769,4.7684,4.6765,4.6431,4.6533,4.6496,4.5964,4.5158,4.5158,4.5109,4.4967,4.421,4.4413,4.4947,4.4294,4.3963,4.3865,4.382,4.3703,4.3582,4.3513,4.3515,4.3515,4.3515,4.3515,4.3515,4.3515,4.3515,4.3515,4.3515,4.3515,4.3515,4.3515,4.3515,4.3515,4.3515,4.3515,4.3515,4.3515,4.3515,4.3497,4.357,4.3533,4.3566,4.3771,4.3788,4.3788,4.3788,4.3788,4.3788,4.3788,4.3788,4.3837,4.3899,4.3881,4.3929,4.3989,4.3989,4.3989,4.3989,4.3989,4.3989,4.3989,4.3989,4.3989,4.4005,4.4002,4.4151,4.0264,4.1591,4.2578,4.3636,4.3982,4.3918,4.3308,4.3162,4.2753,4.1307,4.0494,3.9788,3.899,3.9863,4.0769,4.0992,4.3058,4.4804,4.5231,4.6327,4.6904,4.6394,4.7451,4.7916,4.7199,4.7662,4.8105,4.8345,4.7809,4.7863,4.8785,4.8822,4.8857,4.8909,4.8839,4.8822,4.8822,4.8714,4.8678,4.8678,4.8678,4.8678,4.866,4.8457,4.8346,4.8308,4.7477,4.7144,4.7124,4.6515,4.6147,4.5926,4.5926,4.5909,4.5874,4.567,4.5726,4.5781,4.5018,4.4284,4.3684,4.36,4.3549,4.3513,4.3515,4.3515,4.3515,4.3515,4.3515,4.3515,4.3515,4.3515,4.3515,4.3515,4.3515,4.3515,4.3515,4.3515,4.3515,4.3515,4.3515,4.3515,4.3515,4.3515,4.3699,4.4305,4.3883,4.3515,4.3566,4.3566,4.3566,4.3566,4.3617,4.3651,4.3651,4.3736,4.3804,4.3818,4.3837,4.3818,4.3851,4.3851,4.3851,4.3851,4.3749,4.3765,4.3929,4.3883,4.3897,4.3986,4.4206,4.4236,4.1805,4.2824,4.3509,4.3989,4.3776,4.3262,4.2463,4.1999,4.1274,3.964,3.8915,3.8321,3.7522,3.8432,3.9528,4.0285,4.2537,4.4581,4.5658,4.6869,4.7596,4.7416,4.8177,4.8494,4.7942,4.8292,4.8532,4.8458,4.8144,4.8161,4.8678,4.8715,4.8732,4.8767,4.8714,4.8715,4.8715,4.8642,4.8605,4.8605,4.8605,4.8605,4.8605,4.8569,4.8569,4.8569,4.8089,4.7905,4.7885,4.7442,4.7037,4.6688,4.6688,4.6652,4.6561,4.6193,4.6285,4.6488,4.5677,4.5053,4.4504,4.3769,4.3531,4.3531,4.3515,4.3515,4.3515,4.3515,4.3515,4.3515,4.3515,4.3515,4.3589,4.3938,4.403,4.4121,4.447,4.4544,4.4544,4.4544,4.4544,4.4544,4.4544,4.4544,4.4709,4.5168,4.4837,4.4544,4.4544,4.3955,4.3515,4.3515,4.3531,4.3548,4.3548,4.3617,4.3686,4.3719,4.3719,4.3736,4.3804,4.3804,4.3804,4.3804,4.3719,4.3753,4.3851,4.382,4.3851,4.3976,4.4478,4.4646,4.2832,4.3512,4.4005,4.4005,4.3392,4.2556,4.1646,4.081,3.9728,3.7949,3.7578,3.7318,3.6532,3.7113,3.8284,3.9955,4.1664,4.3652,4.6125,4.7115,4.7898,4.8658,4.866,4.855,4.8476,4.8476,4.8438,4.8306,4.8458,4.8569,4.8587,4.8587,4.8587,4.8587,4.8587,4.8569,4.855,4.855,4.855,4.855,4.855,4.855,4.855,4.8495,4.8495,4.8569,4.8513,4.8495,4.855,4.855,4.8108,4.7445,4.7445,4.7353,4.7168,4.6489,4.6673,4.7131,4.6342,4.6067,4.581,4.4264,4.3747,4.3712,4.355,4.3515,4.3515,4.3515,4.3515,4.3515,4.3515,4.3588,4.3828,4.4544,4.4764,4.5057,4.5755,4.5902,4.5902,4.5902,4.5902,4.5902,4.5902,4.5902,4.5938,4.6049,4.5975,4.5938,4.6049,4.4745,4.3773,4.3663,4.3736,4.3773,4.3663,4.3772,4.3807,4.3747,4.3747,4.3744,4.3771,4.3771,4.3771,4.3771,4.3771,4.3753,4.3769,4.3863,4.3968,4.4066,4.4881,4.5303,4.3593,4.3893,4.4005,4.4005,4.3392,4.2407,4.094,3.9937,3.8674,3.6402,3.5919,3.5659,3.4791,3.5869,3.7442,3.9064,4.1274,4.3621,4.6005,4.7081,4.7845,4.8495,4.8532,4.8476,4.8363,4.8325,4.8343,4.8306,4.8344,4.8382,4.8513,4.8513,4.8513,4.8513,4.8513,4.8457,4.8363,4.8363,4.8363,4.8363,4.8363,4.8363,4.8344,4.8344,4.8344,4.8344,4.8325,4.8344,4.8363,4.8363,4.8252,4.8123,4.8123,4.8123,4.8086,4.7939,4.7976,4.7994,4.7168,4.6892,4.6617,4.5021,4.4506,4.4396,4.3717,4.3515,4.3515,4.3515,4.3515,4.3515,4.3515,4.3993,4.4544,4.4654,4.5223,4.5736,4.5865,4.5902,4.5902,4.5902,4.5902,4.5902,4.5902,4.5902,4.6122,4.6782,4.6342,4.614,4.6801,4.6067,4.5223,4.4562,4.5094,4.5204,4.4562,4.5094,4.5186,4.4561,4.4506,4.4212,4.3586,4.3549,4.3549,4.3549,4.3549,4.3583,4.3634,4.4314,4.4697,4.4818,4.5632,4.602,4.3782,4.4005,4.4005,4.4005,4.3076,4.1739,4.0085,3.8748,3.7281,3.5237,3.4822,3.4711,3.4271,3.5231,3.6593,3.8209,4.0197,4.2526,4.5303,4.6365,4.7276,4.8365,4.8438,4.8363,4.8306,4.8306,4.8306,4.8306,4.8306,4.8325,4.8382,4.84,4.84,4.84,4.84,4.8363,4.8306,4.8306,4.8306,4.8306,4.8306,4.8306,4.8306,4.8306,4.8306,4.8306,4.8306,4.8306,4.8306,4.8306,4.8306,4.8306,4.8306,4.8306,4.8306,4.8306,4.8306,4.8251,4.7846,4.7718,4.7516,4.6342,4.537,4.4727,4.4727,4.4452,4.4121,4.4121,4.4121,4.4121,4.4121,4.4415,4.4911,4.5737,4.6562,4.715,4.715,4.715,4.715,4.715,4.715,4.715,4.715,4.715,4.7278,4.7663,4.7407,4.7297,4.7663,4.7388,4.6691,4.5461,4.5663,4.5736,4.5369,4.5681,4.5736,4.5351,4.5333,4.5149,4.4764,4.4745,4.4745,4.4745,4.4745,4.4763,4.4798,4.5166,4.544,4.5582,4.6411,4.6798,4.3578,4.3875,4.4005,4.4005,4.2797,4.1163,3.9472,3.7856,3.6222,3.455,3.4197,3.4197,3.4185,3.4754,3.5795,3.7583,3.8994,4.1011,4.4344,4.5446,4.6467,4.8015,4.8252,4.8306,4.8306,4.8306,4.8306,4.8306,4.8306,4.8306,4.8306,4.8306,4.8306,4.8306,4.8306,4.8306,4.8306,4.8306,4.8306,4.8306,4.8306,4.8306,4.8306,4.8306,4.8306,4.8306,4.8306,4.8306,4.8306,4.8306,4.8306,4.8306,4.8306,4.8306,4.8306,4.8306,4.8306,4.8306,4.8306,4.8306,4.8214,4.7553,4.6379,4.5296,4.5755,4.5461,4.4966,4.4966,4.4966,4.4966,4.4966,4.5076,4.5572,4.7021,4.7828,4.8306,4.8306,4.8306,4.8306,4.8306,4.8306,4.8306,4.8306,4.8306,4.8306,4.8306,4.8306,4.8306,4.8306,4.8306,4.7829,4.6544,4.6416,4.6342,4.6177,4.6324,4.6342,4.6177,4.6159,4.6085,4.5902,4.5902,4.5902,4.5902,4.5902,4.5902,4.5902,4.6067,4.6214,4.6323,4.7151,4.7537,4.289,4.3448,4.4005,4.4005,4.2797,4.1163,3.9472,3.7856,3.6222,3.455,3.4197,3.4185,3.4124,3.4216,3.5095,3.7423,3.7947,3.9423,4.3359,4.4495,4.5495,4.704,4.7865,4.8306,4.8306,4.8306,4.8306,4.8306,4.8306,4.8306,4.8306,4.8306,4.8306,4.8306,4.8306,4.8306,4.8306,4.8306,4.8306,4.8306,4.8306,4.8306,4.8306,4.8306,4.8306,4.8306,4.8306,4.8306,4.8306,4.8306,4.8306,4.8306,4.8306,4.8306,4.8306,4.8306,4.8306,4.8306,4.8306,4.8306,4.8306,4.8214,4.759,4.6764,4.6104,4.5847,4.5792,4.5792,4.5792,4.5792,4.5792,4.6342,4.7094,4.7994,4.8251,4.8306,4.8306,4.8306,4.8306,4.8306,4.8306,4.8306,4.8306,4.8306,4.8306,4.8306,4.8306,4.8306,4.8306,4.8306,4.8251,4.8104,4.8086,4.7792,4.7039,4.7645,4.7774,4.7039,4.6984,4.6654,4.592,4.5902,4.5902,4.5902,4.5902,4.5902,4.5902,4.6617,4.6984,4.704,4.7829,4.8215,4.2537,4.3392,4.3875,4.3392,4.2043,4.0381,3.8693,3.706,3.5577,3.4389,3.4173,3.4185,3.4111,3.4161,3.481,3.6712,3.704,3.8302,4.1746,4.2454,4.3546,4.6085,4.6654,4.7241,4.8214,4.8306,4.8306,4.8306,4.8306,4.8306,4.8306,4.8306,4.8306,4.8306,4.8306,4.8306,4.8306,4.8306,4.8306,4.8306,4.8306,4.8306,4.8306,4.8306,4.8306,4.8306,4.8306,4.8306,4.8306,4.8306,4.8306,4.8306,4.8306,4.8306,4.8306,4.8306,4.8306,4.8306,4.8306,4.8306,4.8306,4.8306,4.8067,4.7755,4.7443,4.7021,4.6617,4.6617,4.6617,4.6617,4.6617,4.7204,4.7901,4.8233,4.8306,4.8306,4.8306,4.8306,4.8306,4.8306,4.8306,4.8306,4.8306,4.8306,4.8306,4.8306,4.8306,4.8306,4.8306,4.8306,4.8306,4.8306,4.8306,4.8177,4.7846,4.8122,4.8159,4.7828,4.781,4.7682,4.737,4.7352,4.7352,4.7352,4.7352,4.7352,4.7352,4.7663,4.781,4.7828,4.8159,4.8306,4.133,4.2482,4.315,4.2593,4.1174,3.954,3.8113,3.6557,3.5136,3.424,3.4124,3.4148,3.4061,3.4099,3.4562,3.5905,3.6343,3.747,4.0114,4.0877,4.2077,4.4525,4.5259,4.6085,4.7462,4.8031,4.8306,4.8306,4.8306,4.8306,4.8306,4.8306,4.8306,4.8306,4.8306,4.8306,4.8306,4.8306,4.8306,4.8306,4.8306,4.8306,4.8306,4.8306,4.8306,4.8306,4.8306,4.8306,4.8306,4.8306,4.8306,4.8306,4.8306,4.8306,4.8306,4.8306,4.8306,4.8306,4.8306,4.8306,4.8306,4.8306,4.8306,4.8306,4.8306,4.7901,4.7443,4.7443,4.7443,4.7443,4.7443,4.7865,4.8306,4.8306,4.8306,4.8306,4.8306,4.8306,4.8306,4.8306,4.8306,4.8306,4.8306,4.8306,4.8306,4.8306,4.8306,4.8306,4.8306,4.8306,4.8306,4.8306,4.8306,4.8306,4.8306,4.8306,4.8306,4.8306,4.8306,4.8306,4.8306,4.8306,4.8306,4.8306,4.8306,4.8306,4.8306,4.8306,4.8306,4.8306,4.8306,4.8306,3.8915,4.0364,4.1609,4.1609,4.0302,3.8799,3.7984,3.6557,3.5123,3.419,3.4049,3.4061,3.3921,3.3959,3.4281,3.5081,3.5878,3.6969,3.8604,4.0131,4.1407,4.2249,4.3754,4.5039,4.5847,4.737,4.8306,4.8306,4.8306,4.8306,4.8306,4.8306,4.8306,4.8306,4.8306,4.8306,4.8306,4.8306,4.8306,4.8306,4.8306,4.8306,4.8306,4.8306,4.8306,4.8306,4.8306,4.8306,4.8306,4.8306,4.8306,4.8306,4.8306,4.8306,4.8306,4.8306,4.8306,4.8306,4.8306,4.8306,4.8306,4.8306,4.8306,4.8306,4.8306,4.8306,4.8306,4.8306,4.8306,4.8306,4.8306,4.8306,4.8306,4.8306,4.8306,4.8306,4.8306,4.8306,4.8306,4.8306,4.8306,4.8306,4.8306,4.8306,4.8306,4.8306,4.8306,4.8306,4.8306,4.8306,4.8306,4.8306,4.8306,4.8306,4.8306,4.8306,4.8306,4.8306,4.8306,4.8306,4.8306,4.8306,4.8306,4.8306,4.8306,4.8306,4.8306,4.8306,4.8306,4.8306,4.8306,4.8306,3.6504,3.7752,3.8734,3.7576,3.6828,3.6196,3.5441,3.4831,3.4356,3.4066,3.4049,3.4061,3.3921,3.3947,3.4605,3.6466,3.7014,3.7765,3.9323,4.0926,4.2213,4.302,4.5516,4.726,4.7517,4.8012,4.8306,4.8306,4.8306,4.8306,4.8306,4.8306,4.8306,4.8306,4.8306,4.8306,4.8306,4.8306,4.8306,4.8306,4.8306,4.8306,4.8306,4.8306,4.8306,4.8306,4.8306,4.8306,4.8306,4.8306,4.8306,4.8306,4.8306,4.8306,4.8306,4.8306,4.8306,4.8306,4.8306,4.8306,4.8306,4.8306,4.8306,4.8306,4.8306,4.8306,4.8306,4.8306,4.8306,4.8306,4.8306,4.8306,4.8306,4.8306,4.8306,4.8306,4.8306,4.8306,4.8306,4.8306,4.8306,4.8306,4.8306,4.8306,4.8306,4.8306,4.8306,4.8306,4.8306,4.8306,4.8306,4.8306,4.8306,4.8306,4.8306,4.8306,4.8306,4.8306,4.8306,4.8306,4.8306,4.8306,4.8306,4.8306,4.8306,4.8306,4.8306,4.8306,4.8306,4.8306,4.8306,4.8306,3.4309,3.5427,3.6266,3.5491,3.5024,3.4713,3.455,3.4231,3.3959,3.3934,3.3972,3.3985,3.3881,3.4152,3.4857,3.6317,3.7118,3.7996,3.9273,4.0836,4.2378,4.3773,4.5993,4.7517,4.781,4.8122,4.8306,4.8306,4.8306,4.8306,4.8306,4.8306,4.8306,4.8306,4.8306,4.8306,4.8306,4.8306,4.8306,4.8306,4.8306,4.8306,4.8306,4.8306,4.8306,4.8306,4.8306,4.8306,0.0,4.8306,4.8306,4.8306,4.8306,4.8306,4.8306,4.8306,4.8306,4.8306,4.8306,4.8306,4.8306,4.8306,4.8306,4.8306,4.8306,4.8306,4.8306,4.8306,4.8306,4.8306,4.8306,4.8306,4.8306,4.8306,4.8306,4.8306,4.8306,4.8306,4.8306,4.8306,4.8306,4.8306,4.8306,4.8306,4.8306,4.8306,4.8306,4.8306,4.8306,4.8306,4.8306,4.8306,4.8306,4.8306,4.8306,4.8306,4.8306,4.8306,4.8306,4.8306,4.8306,4.8306,4.8306,4.8306,4.8306,4.8306,4.8306,4.8306,4.8306,4.8306,4.8306,4.8306,0.0,3.3228,3.4068,3.4707,3.4328,3.4018,3.4755,3.4405,0.0,3.3815,3.3873,3.3887,3.3894,3.4491,3.5059,3.5243,3.6615,3.7951,3.8762,4.0306,4.2251,4.4654,4.5626,4.6361,4.7113,4.7846,4.8306,4.8306,4.8306,4.8306,4.8306,4.8306,4.8306,4.8306,4.8306,4.8306,4.8306,4.8306,4.8306,4.8306,4.8306,4.8306,4.8306,4.8306,4.8306,4.8306,4.8306,4.8306,4.8306,4.8306,4.8306,4.8306,4.8306,4.8306,4.8306,4.8306,4.8306,4.8306,4.8306,4.8306,4.8306,4.8306,4.8306,4.8306,4.8306,4.8306,4.8306,4.8306,4.8306,4.8306,4.8306,4.8306,4.8306,4.8306,4.8306,4.8306,4.8306,4.8306,4.8306,4.8306,4.8306,4.8306,4.8306,4.8306,4.8306,4.8306,4.8306,4.8306,4.8306,4.8306,4.8306,4.8306,4.8306,4.8306,4.8306,4.8306,4.8306,4.8306,4.8306,4.8306,4.8306,4.8306,4.8306,4.8306,4.8306,4.8306,4.8306,4.8306,4.8306,4.8306,4.8306,4.8306,2.9074,0.0,3.1159,3.0683,3.1293,3.2077,0.0,3.3171,3.3895,3.3868,3.3881,3.4071,3.4614,3.4876,3.5628,3.7518,3.867,3.9625,4.0416,4.2434,4.4746,4.7168,4.7627,4.781,4.8012,4.8196,4.8306,4.8306,4.8306,4.8306,4.8306,4.8306,4.8306,4.8306,4.8306,4.8306,4.8306,4.8306,4.8306,4.8306,4.8306,4.8306,4.8306,4.8306,4.8306,4.8306,4.8306,4.8306,4.8306,4.8306,4.8306,4.8306,4.8306,4.8306,4.8306,4.8306,4.8306,4.8306,4.8306,4.8306,4.8306,4.8306,4.8306,4.8306,4.8306,4.8306,4.8306,4.8306,4.8306,4.8306,4.8306,4.8306,4.8306,4.8306,4.8306,4.8306,4.8306,4.8306,4.8306,4.8306,4.8306,4.8306,4.8306,4.8306,4.8306,4.8306,4.8306,4.8306,4.8306,4.8306,4.8306,4.8306,4.8306,4.8306,4.8306,4.8306,4.8306,4.8306,4.8306,4.8306,4.8306,4.8306,4.8306,4.8306,4.8306,4.8306,4.8306,4.8306,4.8306,4.8306,4.8306,4.8306,2.8011,2.9171,3.0367,3.0201,3.0778,3.1519,3.1912,3.2684,3.329,3.329,3.3603,3.4086,3.4857,3.5334,3.627,3.8358,3.9386,4.0561,4.2471,4.4507,4.6415,4.8104,4.8306,4.8306,4.8306,4.8306,4.8306,4.8306,4.8306,4.8306,4.8306,4.8306,4.8306,4.8306,4.8306,4.8306,4.8306,4.8306,4.8306,4.8306,4.8306,4.8306,4.8306,4.8306,4.8306,4.8306,4.8306,4.8306,4.8306,4.8306,4.8306,4.8306,4.8306,4.8306,4.8306,4.8306,4.8306,4.8306,4.8306,4.8306,4.8306,4.8306,4.8306,4.8306,4.8306,4.8306,4.8306,4.8306,4.8306,4.8306,4.8306,4.8306,4.8306,4.8306,4.8306,4.8306,4.8306,4.8306,4.8306,4.8306,4.8306,4.8306,4.8306,4.8306,4.8306,4.8306,4.8306,4.8306,4.8306,4.8306,4.8306,4.8306,4.8306,4.8306,4.8306,4.8306,4.8306,4.8306,4.8306,4.8306,4.8306,4.8306,4.8306,4.8306,4.8306,4.8306,4.8306,4.8306,4.8306,4.8306,4.8306,4.8306,2.7958,2.9348,3.0793,3.1011,3.1323,3.1733,3.2302,3.2601,3.2784,3.2784,3.3421,3.4215,3.5041,3.6009,3.7184,3.8799,3.9955,4.1662,4.4636,4.6232,4.7388,4.8214,4.8306,4.8306,4.8306,4.8306,4.8306,4.8306,4.8306,4.8306,4.8306,4.8306,4.8306,4.8306,4.8306,4.8306,4.8306,4.8306,4.8306,4.8306,4.8306,4.8306,4.8306,4.8306,4.8306,4.8306,4.8306,4.8306,4.8306,4.8306,4.8306,4.8306,4.8306,4.8306,4.8306,4.8306,4.8306,4.8306,4.8306,4.8306,4.8306,4.8306,4.8306,4.8306,4.8306,4.8306,4.8306,4.8306,4.8306,4.8306,4.8306,4.8306,4.8306,4.8306,4.8306,4.8306,4.8306,4.8306,4.8306,4.8306,4.8306,4.8306,4.8306,4.8306,4.8306,4.8306,4.8306,4.8306,4.8306,4.8306,4.8306,4.8306,4.8306,4.8306,4.8306,4.8306,4.8306,4.8306,4.8306,4.8306,4.8306,4.8306,4.8306,4.8306,4.8306,4.8306,4.8306,4.8306,4.8306,4.8306,4.8306,4.8306,2.7748,3.0093,3.1869,2.9943,3.0944,3.2284,3.1715,3.2632,3.3623,3.3623,3.4252,3.5078,3.5936,3.7331,3.8872,4.0471,4.2544,4.4599,4.647,4.6947,4.7388,4.8214,4.8306,4.8306,4.8306,4.8306,4.8306,4.8306,4.8306,4.8306,4.8306,4.8306,4.8306,4.8306,4.8306,4.8306,4.8306,4.8306,4.8306,4.8306,4.8306,4.8306,4.8306,4.8306,4.8306,4.8306,4.8306,4.8306,4.8306,4.8306,4.8306,4.8306,4.8306,4.8306,4.8306,4.8306,4.8306,4.8306,4.8306,4.8306,4.8306,4.8306,4.8306,4.8306,4.8306,4.8306,4.8306,4.8306,4.8306,4.8306,4.8306,4.8306,4.8306,4.8306,4.8306,4.8306,4.8306,4.8306,4.8306,4.8306,4.8306,4.8306,4.8306,4.8306,4.8306,4.8306,4.8306,4.8306,4.8306,4.8306,4.8306,4.8306,4.8306,4.8306,4.8306,4.8306,4.8306,4.8306,4.8306,4.8306,4.8306,4.8306,4.8306,4.8306,4.8306,4.8306,4.8306,4.8306,4.8306,4.8306,4.8306,4.8306,2.7044,2.8964,3.0679,3.0416,3.2131,3.3683,3.2871,3.3605,3.4454,3.4454,3.5114,3.5973,3.678,3.79,3.9515,4.1992,4.4433,4.625,4.7003,4.7461,4.7902,4.8269,4.8306,4.8306,4.8306,4.8306,4.8306,4.8306,4.8306,4.8306,4.8306,4.8306,4.8306,4.8306,4.8306,4.8306,4.8306,4.8306,4.8306,4.8306,4.8306,4.8306,4.8306,4.8306,4.8306,4.8306,4.8306,4.8306,4.8306,4.8306,4.8306,4.8306,4.8306,4.8306,4.8306,4.8306,4.8306,4.8306,4.8306,4.8306,4.8306,4.8306,4.8306,4.8306,4.8306,4.8306,4.8306,4.8306,4.8306,4.8306,4.8306,4.8306,4.8306,4.8306,4.8306,4.8306,4.8306,4.8306,4.8306,4.8306,4.8306,4.8306,4.8306,4.8306,4.8306,4.8306,4.8306,4.8306,4.8306,4.8306,4.8306,4.8306,4.8306,4.8306,4.8306,4.8306,4.8306,4.8306,4.8306,4.8306,4.8306,4.8306,4.8306,4.8306,4.8306,4.8306,4.8306,4.8306,4.8306,4.8306,4.8306,4.8306,2.672,2.8143,2.9681,3.106,3.2797,3.4197,3.4357,3.4559,3.4931,3.572,3.6413,3.711,3.7915,3.9184,4.0965,4.3626,4.5938,4.7369,4.7369,4.7901,4.8306,4.8306,4.8306,4.8306,4.8306,4.8306,4.8306,4.8306,4.8306,4.8306,4.8306,4.8306,4.8306,4.8306,4.8306,4.8306,4.8306,4.8306,4.8306,4.8306,4.8306,4.8306,4.8306,4.8306,4.8306,4.8306,4.8306,4.8306,4.8306,4.8306,4.8306,4.8306,4.8306,4.8306,4.8306,4.8306,4.8306,4.8306,4.8306,4.8306,4.8306,4.8306,4.8306,4.8306,4.8306,4.8306,4.8306,4.8306,4.8306,4.8306,4.8306,4.8306,4.8306,4.8306,4.8306,4.8306,4.8306,4.8306,4.8306,4.8306,4.8306,4.8306,4.8306,4.8306,4.8306,4.8306,4.8306,4.8306,4.8306,4.8306,4.8306,4.8306,4.8306,4.8306,4.8306,4.8306,4.8306,4.8306,4.8306,4.8306,4.8306,4.8306,4.8306,4.8306,4.8306,4.8306,4.8306,4.8306,4.8306,4.8306,4.8306,4.8306,2.7385,2.8949,3.0332,3.1195,3.1525,3.243,3.544,3.4963,3.4743,3.7808,3.8487,3.8781,3.957,4.2213,4.4599,4.5571,4.7131,4.8214,4.8214,4.8269,4.8306,4.8306,4.8306,4.8306,4.8306,4.8306,4.8306,4.8306,4.8306,4.8306,4.8306,4.8306,4.8306,4.8306,4.8306,4.8306,4.8306,4.8306,4.8306,4.8306,4.8306,4.8306,4.8306,4.8306,4.8306,4.8306,4.8306,4.8306,4.8306,4.8306,4.8306,4.8306,4.8306,4.8306,4.8306,4.8306,4.8306,4.8306,4.8306,4.8306,4.8306,4.8306,4.8306,4.8306,4.8306,4.8306,4.8306,4.8306,4.8306,4.8306,4.8306,4.8306,4.8306,4.8306,4.8306,4.8306,4.8306,4.8306,4.8306,4.8306,4.8306,4.8306,4.8306,4.8306,4.8306,4.8306,4.8306,4.8306,4.8306,4.8306,4.8306,4.8306,4.8306,4.8306,4.8306,4.8306,4.8306,4.8306,4.8306,4.8306,4.8306,4.8306,4.8306,4.8306,4.8306,4.8306,4.8306,4.8306,4.8306,4.8306,4.8306,4.8306,2.671,2.8276,2.9886,3.1696,3.2522,3.3495,3.5771,3.6578,3.7477,3.9719,4.0178,4.0451,4.124,4.28,4.4378,4.5681,4.6838,4.7718,4.8233,4.8306,4.8306,4.8306,4.8306,4.8306,4.8306,4.8306,4.8306,4.8306,4.8306,4.8306,4.8306,4.8306,4.8306,4.8306,4.8306,4.8306,4.8306,4.8306,4.8306,4.8306,4.8306,4.8306,4.8306,4.8306,4.8306,4.8306,4.8306,4.8306,4.8306,4.8306,4.8306,4.8306,4.8306,4.8306,4.8306,4.8306,4.8306,4.8306,4.8306,4.8306,4.8306,4.8306,4.8306,4.8306,4.8306,4.8306,4.8306,4.8306,4.8306,4.8306,4.8306,4.8306,4.8306,4.8306,4.8306,4.8306,4.8306,4.8306,4.8306,4.8306,4.8306,4.8306,4.8306,4.8306,4.8306,4.8306,4.8306,4.8306,4.8306,4.8306,4.8306,4.8306,4.8306,4.8306,4.8306,4.8306,4.8306,4.8306,4.8306,4.8306,4.8306,4.8306,4.8306,4.8306,4.8306,4.8306,4.8306,4.8306,4.8306,4.8306,4.8306,4.8306,2.671,2.8018,2.9574,3.1995,3.3201,3.4376,3.656,3.7716,3.8982,4.1368,4.1864,4.2029,4.258,4.3534,4.4617,4.5718,4.6801,4.7663,4.8233,4.8306,4.8306,4.8306,4.8306,4.8306,4.8306,4.8306,4.8306,4.8306,4.8306,4.8306,4.8306,4.8306,4.8306,4.8306,4.8306,4.8306,4.8306,4.8306,4.8306,4.8306,4.8306,4.8306,4.8306,4.8306,4.8306,4.8306,4.8306,4.8306,4.8306,4.8306,4.8306,4.8306,4.8306,4.8306,4.8306,4.8306,4.8306,4.8306,4.8306,4.8306,4.8306,4.8306,4.8306,4.8306,4.8306,4.8306,4.8306,4.8306,4.8306,4.8306,4.8306,4.8306,4.8306,4.8306,4.8306,4.8306,4.8306,4.8306,4.8306,4.8306,4.8306,4.8306,4.8306,4.8306,4.8306,4.8306,4.8306,4.8306,4.8306,4.8306,4.8306,4.8306,4.8306,4.8306,4.8306,4.8306,4.8306,4.8306,4.8306,4.8306,4.8306,4.8306,4.8306,4.8306,4.8306,4.8306,4.8306,4.8306,4.8306,4.8306,4.8306,4.8306,2.7669,2.8441,2.961,3.1995,3.3238,3.4706,3.7973,3.8102,3.8667,4.2688,4.3515,4.3515,4.3515,4.48,4.5883,4.5902,4.7241,4.8306,4.8306,4.8306,4.8306,4.8306,4.8306,4.8306,4.8306,4.8306,4.8306,4.8306,4.8306,4.8306,4.8306,4.8306,4.8306,4.8306,4.8306,4.8306,4.8306,4.8306,4.8306,4.8306,4.8306,4.8306,4.8306,4.8306,4.8306,4.8306,4.8306,4.8306,4.8306,4.8306,4.8306,4.8306,4.8306,4.8306,4.8306,4.8306,4.8306,4.8306,4.8306,4.8306,4.8306,4.8306,4.8306,4.8306,4.8306,4.8306,4.8306,4.8306,4.8306,4.8306,4.8306,4.8306,4.8306,4.8306,4.8306,4.8306,4.8306,4.8306,4.8306,4.8306,4.8306,4.8306,4.8306,4.8306,4.8306,4.8306,4.8306,4.8306,4.8306,4.8306,4.8306,4.8306,4.8306,4.8306,4.8306,4.8306,4.8306,4.8306,4.8306,4.8306,4.8306,4.8306,4.8306,4.8306,4.8306,4.8306,4.8306,4.8306,4.8306,4.8306,4.8306,4.8306,2.7153,2.8828,3.0999,3.2271,3.4931,3.7661,3.9184,3.9808,4.0689,4.3019,4.3515,4.3515,4.3515,4.4342,4.5241,4.581,4.6783,4.7645,4.8233,4.8306,4.8306,4.8306,4.8306,4.8306,4.8306,4.8306,4.8306,4.8306,4.8306,4.8306,4.8306,4.8306,4.8306,4.8306,4.8306,4.8306,4.8306,4.8306,4.8306,4.8306,4.8306,4.8306,4.8306,4.8306,4.8306,4.8306,4.8306,4.8306,4.8306,4.8306,4.8306,4.8306,4.8306,4.8306,4.8306,4.8306,4.8306,4.8306,4.8306,4.8306,4.8306,4.8306,4.8306,4.8306,4.8306,4.8306,4.8306,4.8306,4.8306,4.8306,4.8306,4.8306,4.8306,4.8306,4.8306,4.8306,4.8306,4.8306,4.8306,4.8306,4.8306,4.8306,4.8306,4.8306,4.8306,4.8306,4.8306,4.8306,4.8306,4.8306,4.8306,4.8306,4.8306,4.8306,4.8306,4.8306,4.8306,4.8306,4.8306,4.8306,4.8306,4.8306,4.8306,4.8306,4.8306,4.8306,4.8306,4.8306,4.8306,4.8306,4.8306,4.8306,2.8165,3.0014,3.234,3.4141,3.6648,3.9166,4.0928,4.1699,4.2323,4.3313,4.3515,4.3515,4.3515,4.4158,4.4966,4.5773,4.6581,4.7369,4.8196,4.8306,4.8306,4.8306,4.8306,4.8306,4.8306,4.8306,4.8306,4.8306,4.8306,4.8306,4.8306,4.8306,4.8306,4.8306,4.8306,4.8306,4.8306,4.8306,4.8306,4.8306,4.8306,4.8306,4.8306,4.8306,4.8306,4.8306,4.8306,4.8306,4.8306,4.8306,4.8306,4.8306,4.8306,4.8306,4.8306,4.8306,4.8306,4.8306,4.8306,4.8306,4.8306,4.8306,4.8306,4.8306,4.8306,4.8306,4.8306,4.8306,4.8306,4.8306,4.8306,4.8306,4.8306,4.8306,4.8306,4.8306,4.8306,4.8306,4.8306,4.8306,4.8306,4.8306,4.8306,4.8306,4.8306,4.8306,4.8306,4.8306,4.8306,4.8306,4.8306,4.8306,4.8306,4.8306,4.8306,4.8306,4.8306,4.8306,4.8306,4.8306,4.8306,4.8306,4.8306,4.8306,4.8306,4.8306,4.8306,4.8306,4.8306,4.8306,4.8306,4.8306,2.9876,3.1468,3.3471,3.6693,3.8272,3.9808,4.2818,4.3515,4.3515,4.3515,4.3515,4.3515,4.3515,4.4158,4.4947,4.5663,4.6471,4.7259,4.8086,4.8196,4.8233,4.8306,4.8306,4.8306,4.8306,4.8306,4.8306,4.8306,4.8306,4.8306,4.8306,4.8306,4.8306,4.8306,4.8306,4.8306,4.8306,4.8306,4.8306,4.8306,4.8287,4.8287,4.8306,4.8306,4.8306,4.8306,4.8306,4.8306,4.8306,4.8306,4.8306,4.8306,4.8306,4.8306,4.8306,4.8306,4.8306,4.8306,4.8306,4.8306,4.8306,4.8306,4.8306,4.8306,4.8306,4.8306,4.8306,4.8306,4.8306,4.8306,4.8306,4.8306,4.8306,4.8306,4.8306,4.8306,4.8306,4.8306,4.8306,4.8306,4.8306,4.8306,4.8306,4.8306,4.8306,4.8306,4.8306,4.8306,4.8306,4.8306,4.8306,4.8306,4.8306,4.8306,4.8306,4.8306,4.8306,4.8306,4.8306,4.8306,4.8306,4.8306,4.8306,4.8306,4.8306,4.8306,4.8306,4.8306,4.8306,4.8306,4.8306,4.8306,2.8624,3.057,3.3342,3.5993,3.9118,4.1864,4.3185,4.3515,4.3515,4.3515,4.3515,4.3515,4.3515,4.4158,4.4746,4.4947,4.5626,4.6452,4.7241,4.7351,4.759,4.8233,4.8306,4.8306,4.8306,4.8306,4.8306,4.8306,4.8306,4.8306,4.8306,4.8306,4.8306,4.8306,4.8306,4.8306,4.8306,4.8306,4.8306,4.8306,4.8247,4.8247,4.8306,4.8306,4.8306,4.8306,4.8306,4.8306,4.8306,4.8306,4.8306,4.8306,4.8306,4.8306,4.8306,4.8306,4.8306,4.8306,4.8306,4.8306,4.8306,4.8306,4.8306,4.8306,4.8306,4.8306,4.8306,4.8306,4.8306,4.8306,4.8306,4.8306,4.8306,4.8306,4.8306,4.8306,4.8306,4.8306,4.8306,4.8306,4.8306,4.8306,4.8306,4.8306,4.8306,4.8306,4.8306,4.8306,4.8306,4.8306,4.8306,4.8306,4.8306,4.8306,4.8306,4.8306,4.8306,4.8306,4.8306,4.8306,4.8306,4.8306,4.8306,4.8306,4.8306,4.8306,4.8306,4.8306,4.8306,4.8306,4.8306,4.8306,2.9047,3.1268,3.4218,3.7812,4.0515,4.2506,4.3331,4.3515,4.3515,4.3515,4.3515,4.3515,4.3515,4.3828,4.425,4.4654,4.5057,4.5608,4.6416,4.6544,4.6691,4.7095,4.7498,4.7718,4.7718,4.8086,4.8306,4.8306,4.8306,4.8306,4.8306,4.8306,4.8306,4.8306,4.8306,4.8287,4.8247,4.8287,4.8287,4.8247,4.8247,4.8267,4.8306,4.8306,4.8306,4.8306,4.8306,4.8306,4.8306,4.8306,4.8306,4.8306,4.8306,4.8306,4.8306,4.8306,4.8306,4.8306,4.8306,4.8306,4.8306,4.8306,4.8306,4.8306,4.8306,4.8306,4.8306,4.8306,4.8306,4.8306,4.8306,4.8306,4.8306,4.8306,4.8306,4.8306,4.8306,4.8306,4.8306,4.8306,4.8306,4.8306,4.8306,4.8306,4.8306,4.8306,4.8306,4.8306,4.8306,4.8306,4.8306,4.8306,4.8306,4.8306,4.8306,4.8306,4.8306,4.8306,4.8306,4.8306,4.8306,4.8306,4.8306,4.8306,4.8306,4.8306,4.8306,4.8306,4.8306,4.8306,4.8306,4.8306,2.9359,3.2066,3.5336,3.9691,4.1562,4.247,4.313,4.3387,4.3515,4.3515,4.3515,4.3515,4.3515,4.3515,4.3718,4.4378,4.4488,4.4782,4.5571,4.5681,4.5736,4.5883,4.6599,4.7094,4.7094,4.7828,4.8287,4.8306,4.8287,4.8287,4.8306,4.8287,4.8267,4.8267,4.8267,4.8247,4.8187,4.8247,4.8267,4.8226,4.8286,4.8287,4.8267,4.8287,4.8306,4.8306,4.8306,4.8306,4.8306,4.8306,4.8306,4.8306,4.8306,4.8306,4.8306,4.8306,4.8306,4.8306,4.8306,4.8306,4.8306,4.8306,4.8306,4.8306,4.8306,4.8306,4.8306,4.8306,4.8306,4.8306,4.8306,4.8306,4.8306,4.8306,4.8306,4.8306,4.8306,4.8306,4.8306,4.8306,4.8306,4.8306,4.8306,4.8306,4.8306,4.8306,4.8306,4.8306,4.8306,4.8306,4.8306,4.8306,4.8306,4.8306,4.8306,4.8306,4.8306,4.8306,4.8306,4.8306,4.8306,4.8306,4.8306,4.8306,4.8306,4.8306,4.8306,4.8306,4.8306,4.8306,4.8306,4.8306,2.7111,3.1142,3.5707,3.8442,4.0719,4.2323,4.2433,4.3002,4.3515,4.3515,4.3515,4.3515,4.3515,4.3515,4.3551,4.3626,4.3644,4.3938,4.4764,4.4874,4.5131,4.581,4.6599,4.7094,4.7094,4.7789,4.8246,4.8287,4.8247,4.8246,4.8287,4.8247,4.8207,4.8207,4.811,4.809,4.8187,4.8207,4.8246,4.8287,4.8287,4.8267,4.8207,4.8286,4.8306,4.8306,4.8306,4.8306,4.8306,4.8306,4.8306,4.8306,4.8306,4.8306,4.8306,4.8306,4.8306,4.8306,4.8306,4.8306,4.8306,4.8306,4.8306,4.8306,4.8306,4.8306,4.8306,4.8306,4.8306,4.8306,4.8306,4.8306,4.8306,4.8306,4.8306,4.8306,4.8306,4.8306,4.8306,4.8306,4.8306,4.8306,4.8306,4.8306,4.8306,4.8306,4.8306,4.8306,4.8306,4.8306,4.8306,4.8306,4.8306,4.8306,4.8306,4.8306,4.8306,4.8306,4.8306,4.8306,4.8306,4.8306,4.8306,4.8306,4.8306,4.8306,4.8306,4.8306,4.8306,4.8306,4.8306,4.8306,2.8932,3.2364,3.5799,3.8243,3.9921,4.1185,4.2084,4.2561,4.2947,4.3423,4.3515,4.3515,4.3515,4.3515,4.3515,4.3515,4.3515,4.3608,4.3975,4.403,4.4158,4.4507,4.5278,4.592,4.6341,4.7072,4.7731,4.8209,4.8149,4.813,4.8228,4.8149,4.809,4.809,4.8032,4.8032,4.809,4.8168,4.8228,4.8306,4.8267,4.8247,4.8267,4.8287,4.8306,4.8306,4.8306,4.8306,4.8306,4.8306,4.8306,4.8306,4.8306,4.8306,4.8306,4.8306,4.8306,4.8306,4.8306,4.8306,4.8306,4.8306,4.8306,4.8306,4.8306,4.8306,4.8306,4.8306,4.8306,4.8306,4.8306,4.8306,4.8306,4.8306,4.8306,4.8306,4.8306,4.8306,4.8306,4.8306,4.8306,4.8306,4.8306,4.8306,4.8306,4.8306,4.8306,4.8306,4.8306,4.8306,4.8306,4.8306,4.8306,4.8306,4.8306,4.8306,4.8306,4.8306,4.8306,4.8306,4.8306,4.8306,4.8306,4.8306,4.8306,4.8306,4.8306,4.8306,4.8306,4.8306,4.8306,4.8306,2.9861,3.2395,3.4644,3.7336,3.8807,3.9987,4.1401,4.2027,4.247,4.3057,4.3368,4.3515,4.3515,4.3515,4.3515,4.3515,4.3515,4.3515,4.3515,4.3515,4.3515,4.3515,4.4214,4.4894,4.5443,4.6356,4.7177,4.7801,4.7921,4.803,4.8148,4.803,4.797,4.797,4.7949,4.7949,4.797,4.809,4.8189,4.8267,4.8208,4.8246,4.8306,4.8306,4.8306,4.8306,4.8306,4.8306,4.8306,4.8306,4.8306,4.8306,4.8306,4.8306,4.8306,4.8306,4.8306,4.8306,4.8306,4.8306,4.8306,4.8306,4.8306,4.8306,4.8306,4.8306,4.8306,4.8306,4.8306,4.8306,4.8306,4.8306,4.8306,4.8306,4.8306,4.8306,4.8306,4.8306,4.8306,4.8306,4.8306,4.8306,4.8306,4.8306,4.8306,4.8306,4.8306,4.8306,4.8306,4.8306,4.8306,4.8306,4.8306,4.8306,4.8306,4.8306,4.8306,4.8306,4.8306,4.8306,4.8306,4.8306,4.8306,4.8306,4.8306,4.8306,4.8306,4.8306,4.8306,4.8306,4.8306,4.8306,2.7613,2.95,3.1508,3.4759,3.7239,3.909,3.9936,4.1252,4.2304,4.2359,4.2965,4.3515,4.3515,4.3515,4.3515,4.3515,4.3515,4.3515,4.3515,4.3515,4.3515,4.3515,4.4143,4.462,4.4675,4.5893,4.6762,4.686,4.7508,4.7945,4.7992,4.7927,4.7902,4.7902,4.778,4.778,4.7902,4.7988,4.809,4.8207,4.8207,4.8246,4.8306,4.8306,4.8306,4.8306,4.8306,4.8306,4.8306,4.8306,4.8306,4.8306,4.8306,4.8306,4.8306,4.8306,4.8306,4.8306,4.8306,4.8306,4.8306,4.8306,4.8306,4.8306,4.8306,4.8306,4.8306,4.8306,4.8306,4.8306,4.8306,4.8306,4.8306,4.8306,4.8306,4.8306,4.8306,4.8306,4.8306,4.8306,4.8306,4.8306,4.8306,4.8306,4.8306,4.8306,4.8306,4.8306,4.8306,4.8306,4.8306,4.8306,4.8306,4.8306,4.8306,4.8306,4.8306,4.8306,4.8306,4.8306,4.8306,4.8306,4.8306,4.8306,4.8306,4.8306,4.8306,4.8306,4.8306,4.8306,4.8306,4.8306,2.7445,2.9238,3.1092,3.3826,3.5874,3.754,3.8848,3.9989,4.091,4.1423,4.1772,4.2121,4.2635,4.3149,4.3515,4.3515,4.3515,4.3515,4.3515,4.3463,4.3464,4.3479,4.3614,4.3889,4.4418,4.4889,4.5377,4.5925,4.6136,4.6279,4.638,4.6789,4.7019,4.7019,4.7467,4.7759,4.7881,4.7925,4.8008,4.8187,4.811,4.8151,4.8306,4.8306,4.8306,4.8306,4.8306,4.8306,4.8306,4.8306,4.8306,4.8306,4.8306,4.8306,4.8306,4.8306,4.8306,4.8306,4.8306,4.8306,4.8306,4.8306,4.8306,4.8306,4.8306,4.8306,4.8306,4.8306,4.8306,4.8306,4.8306,4.8306,4.8306,4.8306,4.8306,4.8306,4.8306,4.8306,4.8306,4.8306,4.8306,4.8306,4.8306,4.8306,4.8306,4.8306,4.8306,4.8306,4.8306,4.8306,4.8306,4.8306,4.8306,4.8306,4.8306,4.8306,4.8306,4.8306,4.8306,4.8306,4.8306,4.8306,4.8306,4.8306,4.8306,4.8306,4.8306,4.8306,4.8306,4.8306,4.8306,4.8306,2.6674,2.8402,3.0249,3.2933,3.4336,3.574,3.8183,3.8921,3.9386,4.0487,4.0912,4.126,4.1809,4.2543,4.3185,4.346,4.3515,4.3497,4.3463,4.3429,4.3394,4.341,4.3269,4.3378,4.3925,4.4141,4.4447,4.4992,4.5204,4.5349,4.5426,4.5856,4.6214,4.6504,4.7029,4.7467,4.784,4.784,4.7904,4.8107,4.803,4.8092,4.8267,4.8287,4.8306,4.8306,4.8306,4.8306,4.8306,4.8306,4.8306,4.8306,4.8306,4.8306,4.8306,4.8306,4.8306,4.8306,4.8306,4.8306,4.8306,4.8306,4.8306,4.8306,4.8306,4.8306,4.8306,4.8306,4.8306,4.8306,4.8306,4.8306,4.8306,4.8306,4.8306,4.8306,4.8306,4.8306,4.8306,4.8306,4.8306,4.8306,4.8306,4.8306,4.8306,4.8306,4.8306,4.8306,4.8306,4.8306,4.8306,4.8306,4.8306,4.8306,4.8306,4.8306,4.8306,4.8306,4.8306,4.8306,4.8306,4.8306,4.8306,4.8306,4.8306,4.8306,4.8306,4.8306,4.8306,4.8306,4.8306,4.8471,0.0,0.0,0.0,3.1893,3.2693,3.3697,3.7739,3.8011,3.786,3.9478,4.0432,4.0967,4.104,4.1699,4.2488,4.3313,4.3478,4.348,4.3412,4.3394,4.334,4.3214,4.3142,4.3086,4.3104,4.3682,4.4059,4.4059,4.4784,4.5236,4.5236,4.5254,4.5635,4.6468,4.6504,4.6902,4.7678,4.7717,4.7759,4.7881,4.797,4.807,4.8207,4.8267,4.8306,4.8306,4.8306,4.8306,4.8306,4.8306,4.8306,4.8306,4.8306,4.8306,4.8306,4.8306,4.8306,4.8306,4.8306,4.8306,4.8306,4.8306,4.8306,4.8306,4.8306,4.8306,4.8306,4.8306,4.8306,4.8306,4.8306,4.8306,4.8306,4.8306,4.8306,4.8306,4.8306,4.8306,4.8306,4.8306,4.8306,4.8306,4.8306,4.8306,4.8306,4.8306,4.8306,4.8306,4.8306,4.8306,4.8306,4.8306,4.8306,4.8306,4.8306,4.8306,4.8306,4.8306,4.8306,4.8306,4.8306,4.8306,4.8306,4.8306,4.8306,4.8306,4.8306,4.8306,4.8306,4.8306,4.8343,4.8802,2.5254,0.0,0.0,0.0,0.0,0.0,3.4655,3.5009,3.5459,3.7694,3.7881,3.8157,3.99,4.0414,4.0818,4.1644,4.2745,4.348,4.3412,4.3323,4.3233,4.3196,4.3068,4.2994,4.3086,4.3174,4.3226,4.3226,4.3445,4.3552,4.3552,4.4114,4.5073,4.6468,4.6504,4.6902,4.7678,4.7717,4.7759,4.7881,4.797,4.807,4.8207,4.8267,4.8306,4.8306,4.8306,4.8306,4.8306,4.8306,4.8306,4.8306,4.8306,4.8306,4.8306,4.8306,4.8306,4.8306,4.8306,4.8306,4.8306,4.8306,4.8306,4.8306,4.8306,4.8306,4.8306,4.8306,4.8306,4.8306,4.8306,4.8306,4.8306,4.8306,4.8306,4.8306,4.8306,4.8306,4.8306,4.8306,4.8306,4.8306,4.8306,4.8306,4.8306,4.8306,4.8306,4.8306,4.8306,4.8306,4.8306,4.8306,4.8306,4.8306,4.8306,4.8306,4.8306,4.8306,4.8306,4.8306,4.8306,4.8306,4.8306,4.8306,4.8306,4.8306,4.8306,4.8306,4.8306,4.8324,4.8948,4.9664,2.5768,2.6917,2.8136,2.9276,0.0,0.0,3.3702,3.3788,3.4009,3.6501,3.6615,3.6817,3.8594,3.9166,3.9662,4.0469,4.1662,4.2565,4.2792,4.3032,4.316,4.3087,4.2957,4.2938,4.3012,4.2938,4.2901,4.2901,4.2901,4.2901,4.2901,4.3335,4.4168,4.5454,4.549,4.6051,4.7192,4.721,4.7412,4.7819,4.7907,4.7988,4.8087,4.8189,4.8267,4.8267,4.8287,4.8306,4.8287,4.8267,4.8267,4.8306,4.8306,4.8306,4.8306,4.8306,4.8306,4.8306,4.8306,4.8306,4.8306,4.8306,4.8306,4.8306,4.8306,4.8306,4.8306,4.8306,4.8306,4.8306,4.8306,4.8306,4.8306,4.8306,4.8306,4.8306,4.8306,4.8306,4.8306,4.8306,4.8306,4.8306,4.8306,4.8306,4.8306,4.8306,4.8306,4.8306,4.8306,4.8306,4.8306,4.8306,4.8306,4.8306,4.8306,4.8306,4.8306,4.8306,4.8306,4.8306,4.8306,4.8306,4.8306,4.8306,4.8306,4.8306,4.8306,4.8306,4.8306,4.8324,4.9187,5.0013,2.6528,2.7361,2.8356,2.9622,2.9647,0.0,3.3702,3.3426,3.3128,3.5422,3.5826,3.606,3.7052,3.7808,3.856,3.9368,4.0249,4.1082,4.1772,4.2485,4.285,4.2685,4.272,4.2755,4.2755,4.2865,4.2901,4.2901,4.2901,4.2901,4.2901,4.2901,4.3281,4.4059,4.4095,4.482,4.6359,4.6468,4.6866,4.7572,4.7785,4.7881,4.792,4.8087,4.8187,4.8207,4.8267,4.8287,4.8287,4.8208,4.8246,4.8287,4.8287,4.8287,4.8287,4.8287,4.8306,4.8306,4.8306,4.8306,4.8306,4.8306,4.8306,4.8306,4.8306,4.8306,4.8306,4.8306,4.8306,4.8306,4.8306,4.8306,4.8306,4.8306,4.8306,4.8306,4.8306,4.8306,4.8306,4.8306,4.8306,4.8306,4.8306,4.8306,4.8306,4.8306,4.8306,4.8306,4.8306,4.8306,4.8306,4.8306,4.8306,4.8306,4.8306,4.8306,4.8306,4.8306,4.8306,4.8306,4.8306,4.8306,4.8306,4.8306,4.8306,4.8306,4.8306,4.8306,4.8361,4.8471,4.9315,5.016,2.6935,2.8136,2.9494,2.8503,3.0099,0.0,3.1243,3.1384,3.1953,3.3091,3.2816,3.2999,3.5096,3.5628,3.5995,3.6853,3.823,3.9614,4.0926,4.1188,4.123,4.1142,4.1597,4.1922,4.1922,4.252,4.2901,4.2901,4.2901,4.2901,4.2901,4.2901,4.3281,4.4059,4.4095,4.4548,4.5526,4.6178,4.6576,4.6739,4.7531,4.7881,4.7902,4.8008,4.809,4.8187,4.8207,4.8226,4.8226,4.8207,4.8207,4.8226,4.8226,4.8226,4.8226,4.8267,4.8306,4.8306,4.8306,4.8306,4.8306,4.8306,4.8306,4.8306,4.8306,4.8306,4.8306,4.8306,4.8306,4.8306,4.8306,4.8306,4.8306,4.8306,4.8306,4.8306,4.8306,4.8306,4.8306,4.8306,4.8306,4.8306,4.8306,4.8306,4.8306,4.8306,4.8306,4.8306,4.8306,4.8306,4.8306,4.8306,4.8306,4.8306,4.8306,4.8306,4.8306,4.8306,4.8306,4.8306,4.8306,4.8306,4.8306,4.8306,4.8306,4.8306,4.8306,4.8306,4.8655,4.9372,5.0178,5.1004,2.8235,2.8675,2.9604,2.9604,3.0503,0.0,0.0,3.2008,3.2339,3.3555,3.2839,3.2601,3.4637,3.4674,3.4674,3.5532,3.7037,3.8215,3.8554,3.9871,4.0792,4.0739,4.0944,4.1126,4.118,4.1868,4.2466,4.2883,4.2901,4.2901,4.2901,4.2901,4.3063,4.348,4.3498,4.3878,4.4693,4.5091,4.5707,4.6504,4.6982,4.742,4.7801,4.7886,4.8008,4.809,4.809,4.8148,4.8187,4.813,4.8088,4.8046,4.8088,4.8148,4.8207,4.8246,4.8286,4.8306,4.8306,4.8306,4.8306,4.8306,4.8306,4.8306,4.8306,4.8306,4.8306,4.8306,4.8306,4.8306,4.8306,4.8306,4.8306,4.8306,4.8306,4.8306,4.8306,4.8306,4.8306,4.8306,4.8306,4.8306,4.8306,4.8306,4.8306,4.8306,4.8306,4.8306,4.8306,4.8306,4.8306,4.8306,4.8306,4.8306,4.8306,4.8306,4.8306,4.8306,4.8306,4.8306,4.8306,4.8306,4.8306,4.8306,4.8306,4.8306,4.8306,4.8728,4.9169,4.9629,5.0839,5.161,2.9898,2.9684,3.0124,3.0962,3.1274,3.1678,0.0,0.0,0.0,3.4105,3.3261,3.2803,3.427,3.388,3.3642,3.4619,3.5899,3.6611,3.6119,3.8259,3.9916,4.008,4.0234,4.0328,4.0452,4.0926,4.1596,4.2375,4.2429,4.2502,4.2647,4.2829,4.2901,4.2901,4.2901,4.3227,4.386,4.4023,4.482,4.6269,4.6432,4.692,4.7699,4.7819,4.7904,4.799,4.799,4.803,4.8128,4.8028,4.7927,4.7881,4.797,4.805,4.8146,4.8206,4.8228,4.8267,4.8287,4.8306,4.8306,4.8306,4.8306,4.8306,4.8306,4.8306,4.8306,4.8306,4.8306,4.8306,4.8306,4.8306,4.8306,4.8306,4.8306,4.8306,4.8306,4.8306,4.8306,4.8306,4.8306,4.8306,4.8306,4.8306,4.8306,4.8306,4.8306,4.8306,4.8306,4.8306,4.8306,4.8306,4.8306,4.8306,4.8306,4.8306,4.8306,4.8306,4.8306,4.8306,4.8306,4.8306,4.8306,4.8306,4.8306,4.8379,4.8545,4.9407,4.9831,4.9867,5.1316,5.2068,3.1549,3.2173,3.2797,3.0834,3.2999,3.4724,3.1366,0.0,3.3311,3.2063,0.0,3.1806,3.2711,0.0,0.0,3.3697,3.41,3.4449,3.5059,3.5956,3.6814,3.7525,3.8794,3.96,3.9549,3.9622,3.9967,4.0709,4.0764,4.1071,4.1795,4.2502,4.2901,4.2901,4.2901,4.2955,4.3046,4.3733,4.4548,4.5436,4.616,4.692,4.7717,4.7717,4.778,4.7922,4.7922,4.7922,4.7922,4.7922,4.784,4.7738,4.7929,4.797,4.7963,4.8146,4.8207,4.8226,4.8267,4.8306,4.8306,4.8306,4.8306,4.8306,4.8306,4.8306,4.8306,4.8306,4.8306,4.8306,4.8306,4.8306,4.8306,4.8306,4.8306,4.8306,4.8306,4.8306,4.8306,4.8306,4.8306,4.8306,4.8306,4.8306,4.8306,4.8306,4.8306,4.8306,4.8306,4.8306,4.8306,4.8306,4.8306,4.8306,4.8306,4.8306,4.8306,4.8306,4.8306,4.8306,4.8306,4.8306,4.8306,4.8306,4.8306,4.8673,4.9463,5.027,5.0655,5.0692,5.1573,5.238,3.1837,3.2221,3.2805,3.1849,3.285,3.3789,3.2564,3.2357,3.2614,3.3348,0.0,0.0,0.0,0.0,0.0,0.0,3.3495,3.3917,3.4266,3.5384,3.6259,3.6544,3.703,3.77,3.8625,3.8716,3.9206,4.0401,4.0111,4.0401,4.1632,4.2012,4.2411,4.2901,4.2901,4.2901,4.2901,4.3226,4.3806,4.4603,4.4947,4.578,4.7011,4.7011,4.7345,4.7899,4.7819,4.784,4.7881,4.7881,4.7819,4.7717,4.7884,4.7925,4.7902,4.8048,4.813,4.8207,4.8286,4.8306,4.8306,4.8306,4.8306,4.8306,4.8306,4.8306,4.8306,4.8306,4.8306,4.8306,4.8306,4.8306,4.8306,4.8306,4.8306,4.8306,4.8306,4.8306,4.8306,4.8306,4.8306,4.8306,4.8306,4.8306,4.8306,4.8306,4.8306,4.8306,4.8306,4.8306,4.8306,4.8306,4.8306,4.8306,4.8306,4.8306,4.8306,4.8306,4.8306,4.8306,4.8306,4.8306,4.8306,4.8306,4.8802,4.9224,4.961,5.0875,5.1499,5.1518,5.2325,5.2894,3.2776,3.3066,3.357,3.2533,3.2727,3.3121,3.2876,3.2412,3.2485,3.4032,3.3311,0.0,0.0,0.0,3.199,3.2803,0.0,3.355,3.377,3.4821,3.5622,3.5736,3.5781,3.6363,3.7738,3.7484,3.7938,3.9749,3.917,3.9423,4.0981,4.1469,4.1958,4.2538,4.2792,4.2901,4.2901,4.2901,4.3299,4.4095,4.4095,4.482,4.6178,4.6413,4.6871,4.7513,4.7648,4.7759,4.784,4.784,4.778,4.7717,4.7819,4.784,4.7861,4.7947,4.8048,4.8168,4.8247,4.8287,4.8306,4.8306,4.8306,4.8306,4.8306,4.8306,4.8306,4.8306,4.8306,4.8306,4.8306,4.8306,4.8306,4.8306,4.8306,4.8306,4.8306,4.8306,4.8306,4.8306,4.8306,4.8306,4.8306,4.8306,4.8306,4.8306,4.8306,4.8306,4.8306,4.8306,4.8306,4.8306,4.8306,4.8306,4.8306,4.8306,4.8306,4.8306,4.8306,4.8306,4.8306,4.8306,4.8306,4.8306,4.917,4.9721,4.9941,5.1316,5.2105,5.2344,5.2931,5.3185,3.5206,3.5934,3.6223,3.2399,3.3201,3.411,3.1005,3.2082,3.3532,3.2821,3.3848,3.4656,3.3935,3.3128,3.2821,3.3623,3.3115,0.0,0.0,3.3789,3.4054,3.4754,3.5405,3.6127,3.6959,3.562,3.5711,3.81,3.7538,3.7774,3.9387,4.089,4.1705,4.1741,4.2484,4.2901,4.2901,4.2901,4.3299,4.4095,4.4095,4.453,4.5363,4.6142,4.6522,4.6595,4.7373,4.7717,4.7717,4.7717,4.7699,4.7717,4.7699,4.7717,4.7717,4.7861,4.7966,4.8012,4.8168,4.8247,4.8306,4.8306,4.8306,4.8306,4.8306,4.8306,4.8306,4.8306,4.8306,4.8306,4.8306,4.8306,4.8306,4.8306,4.8306,4.8306,4.8306,4.8306,4.8306,4.8306,4.8306,4.8306,4.8306,4.8306,4.8306,4.8306,4.8306,4.8306,4.8306,4.8306,4.8306,4.8306,4.8306,4.8306,4.8306,4.8306,4.8306,4.8306,4.8306,4.8306,4.8306,4.8306,4.8306,4.8306,4.917,4.9996,5.0765,5.1591,5.2399,5.317,5.3206,5.3185,3.5772,3.638,3.6617,3.4302,3.3904,3.3657,3.2135,3.2008,3.2284,3.2546,3.3445,3.4119,3.3844,3.3146,3.2858,3.3678,3.3128,3.2693,0.0,3.2454,3.2338,3.3117,3.4265,3.5113,3.5385,3.5403,3.5946,3.7303,3.7158,3.7701,3.9297,4.0365,4.1144,4.1687,4.2484,4.2901,4.2901,4.2901,4.3046,4.3318,4.3318,4.3734,4.4512,4.4784,4.549,4.6522,4.6794,4.721,4.7717,4.7717,4.7717,4.7717,4.7717,4.7717,4.7717,4.784,4.7922,4.7966,4.8128,4.8247,4.8306,4.8306,4.8306,4.8306,4.8306,4.8306,4.8306,4.8306,4.8306,4.8306,4.8306,4.8306,4.8306,4.8306,4.8306,4.8306,4.8306,4.8306,4.8306,4.8306,4.8306,4.8306,4.8306,4.8306,4.8306,4.8306,4.8306,4.8306,4.8306,4.8306,4.8306,4.8306,4.8306,4.8306,4.8306,4.8306,4.8306,4.8306,4.8306,4.8306,4.8306,4.8306,4.8563,4.9132,4.9958,5.0784,5.1591,5.2399,5.2931,5.3185,5.3185,5.3185,3.6461,3.6958,3.7103,3.5312,3.4659,3.4116,3.2825,3.2572,3.2682,3.292,3.3606,3.428,3.4531,3.373,3.328,3.406,3.3542,3.2931,0.0,3.2268,3.2133,3.2343,3.3194,3.3973,3.4582,3.4806,3.5527,3.6919,3.6757,3.7268,3.888,3.9695,4.0456,4.1252,4.2049,4.2611,4.2901,4.2901,4.2901,4.2901,4.2901,4.3173,4.3679,4.3969,4.4675,4.5689,4.625,4.6794,4.7301,4.7591,4.7717,4.7717,4.7717,4.7717,4.7717,4.7798,4.7863,4.7966,4.8128,4.8247,4.8306,4.8306,4.8306,4.8306,4.8306,4.8306,4.8306,4.8306,4.8306,4.8306,4.8306,4.8306,4.8306,4.8306,4.8306,4.8306,4.8306,4.8306,4.8306,4.8306,4.8306,4.8306,4.8306,4.8306,4.8306,4.8306,4.8306,4.8306,4.8306,4.8306,4.8306,4.8306,4.8306,4.8306,4.8306,4.8306,4.8306,4.8306,4.8306,4.8306,4.8306,4.8306,4.8563,4.9133,5.0233,5.1059,5.1573,5.2674,5.3185,5.3185,5.3185,5.3185]}]]